     2              OBSERVATION DATA    G (GPS)             RINEX VERSION / TYPE
ASRINEXO V2.9.7 UX USGS/MENLO_PARK 28-AUG-00 16:13          PGM / RUN BY / DATE
                                                            COMMENT
National Earthquake Hazard Reduction Program                COMMENT
Crustal Strain Project                                      COMMENT
345 Middlefield Road, MS/977                                COMMENT
U.S. Geological Survey, Menlo Park, California 94025        COMMENT
Contact: kwendt@isdmnl.wr.usgs.gov (Ph: 650-329-4866)       COMMENT
HI's are vertical to base of antenna                        COMMENT
BIT 2 OF LLI (+4) FLAGS DATA COLLECTED UNDER "AS" CONDITION COMMENT
b300 B_300_USGS                                             MARKER NAME
JLS                                                         OBSERVER / AGENCY
lp019992805 ASHTECH Z-XII3 CD00                             REC # / TYPE / VERS
CR14333 ASH700936D_M NONE                                   ANT # / TYPE
 -2425867.0000 -4332740.0000  3992482.0000                  APPROX POSITION XYZ
        1.1660        0.0000        0.0000                  ANTENNA: DELTA H/E/N
     1     1                                                WAVELENGTH FACT L1/2
     5    C1    L1    L2    P1    P2                        # / TYPES OF OBSERV
    30                                                      INTERVAL
  2000     8    22    17    59   30.000000                  TIME OF FIRST OBS
                                                            END OF HEADER
 00  8 22 17 59 30.0000000  0  8 23 03 21 17 15 31 29 09
  21971764.925      147112.478 8    107534.69747  21971764.614    21971771.9754
  21563815.395        2875.27045                  21563815.331    21563823.1544
  20959083.383    20958789.452                                    20958799.1804
  22965018.792      254408.943 8    187114.15646  22965017.819    22965028.0284
  20321488.357     -183542.870 9   -116351.78347  20321487.667    20321494.5294
  22701889.718     -160656.119 8   -101503.93746  22701889.409    22701897.6344
  20760893.049     -206826.924 9   -120320.51447  20760893.283    20760899.5614
  23518363.387      -54722.747 8    -36504.39145  23518363.016    23518372.0244
 00  8 22 18  0  0.0000000  0  8 23 03 21 17 15 31 29 09
  21964449.537      108671.044 8     77580.28847  21964449.438    21964456.8454
  21551684.541        -201.422 9    -46797.98847  21551684.360    21551691.5484
  20938590.908      -81852.18157                  20938590.306    20938596.8244
  22964081.960      249487.015 8    183278.74746  22964081.347    22964091.4924
  20295105.087     -322188.631 9   -224387.40747  20295104.292    20295111.1164
  22676932.394     -291806.775 8   -203699.20246  22676932.246    22676940.5194
  20733296.986     -351844.983 9   -233321.56847  20733297.257    20733303.5094
  23499579.950     -153431.196 7   -113420.02945  23499579.520    23499588.5674
 00  8 22 18  0 30.0000000  0  8 23 03 21 17 15 31 29 09
  21974449.975      161222.686 8    118529.57547  21974449.645    21974457.1424
  21556953.702       27487.985 9    -25221.86347  21556953.472    21556960.7434
  20935431.387     -204403.31119    -94789.76747  20935430.753    20935437.3824
  22980491.152      335717.800 8    250471.41546  22980490.507    22980500.7384
  20286082.077     -369605.238 9   -261335.38347  20286081.238    20286088.0304
  22669374.793     -331523.737 8   -234647.44046  22669374.398    22669382.6604
  20723084.156     -405514.949 9   -275142.29147  20723084.217    20723090.4564
  23498197.340     -160696.811 8   -119081.50845  23498196.796    23498205.9384
 00  8 22 18  1  0.0000000  0  8 23 03 21 17 15 31 29 09
  21984471.483      213885.565 8    159565.53647  21984471.087    21984478.6374
  21562328.341       55731.682 9     -3213.82047  21562328.091    21562335.3844
  20932310.842     -220801.809 9   -107567.81147  20932310.243    20932316.8684
  22996951.811      422219.177 8    317874.92845  22996951.122    22996961.4724
  20277125.499     -416672.320 9   -298011.00747  20277124.659    20277131.4654
  22661922.442     -370686.930 8   -265164.15146  22661921.928    22661930.1374
  20712960.236     -458717.019 9   -316598.42347  20712960.216    20712966.4574
  23496921.715     -167399.547 8   -124304.35945  23496921.260    23496930.5124
 00  8 22 18  1 30.0000000  0  8 23 03 21 17 15 31 29 09
  21994513.908      266658.427 8    200687.20847  21994513.475    21994521.0604
  21567808.138       84527.871 9     19224.73747  21567807.887    21567815.1504
  20929229.096     -236996.394 9   -120186.95947  20929228.527    20929235.1224
  23013463.741      508989.673 8    385488.15545  23013463.051    23013473.5114
  20268235.691     -463388.415 9   -334413.12847  20268234.893    20268241.7054
  22654575.550     -409296.022 8   -295249.11046  22654574.974    22654583.1014
  20702925.377     -511450.763 9   -357689.61947  20702925.323    20702931.5554
  23495753.408     -173539.022 8   -129088.30945  23495753.059    23495762.2734
 00  8 22 18  2  0.0000000  0  8 23 03 21 17 15 31 29 09
  22004577.276      319541.265 8    241894.57147  22004576.798    22004584.3754
  21573392.871      113875.529 9     42093.01247  21573392.591    21573399.8504
  20926186.154     -252987.276 9   -132647.37647  20926185.593    20926192.2084
  23030026.830      596028.969 8    453310.81845  23030026.174    23030036.6684
  20259413.133     -509751.279 9   -370540.00947  20259412.371    20259419.1504
  22647334.265     -447349.345 8   -324900.99846  22647333.687    22647341.8124
  20692979.951     -563714.620 9   -398414.67447  20692979.868    20692986.1094
  23494692.460     -179114.017 8   -133432.40145  23494692.113    23494701.5344
 00  8 22 18  2 30.0000000  0  8 23 03 21 17 15 31 29 09
  22014661.830      372535.142 8    283188.46547  22014661.287    22014668.8524
  21579082.620      143775.111 9     65391.35547  21579082.322    21579089.5884
  20923182.236     -268772.926 9   -144947.87547  20923181.683    20923188.2874
  23046641.281      683337.968 8    521343.63545  23046640.573    23046651.1654
  20250658.518     -555757.289 9   -406388.81847  20250657.751    20250664.5394
  22640199.194     -484843.882 8   -354117.45946  22640198.586    22640206.8334
  20683124.382     -615506.056 9   -438771.60847  20683124.291    20683130.5194
  23493739.513     -184121.688 7   -137334.41945  23493739.223    23493748.5684
 00  8 22 18  3  0.0000000  0  8 23 03 21 17 15 31 29 09
  22024766.744      425636.354 8    324565.99247  22024766.191    22024773.7414
  21584876.518      174221.995 9     89116.16547  21584876.221    21584883.4944
  20920216.889     -284356.027 9   -157090.54147  20920216.346    20920222.9744
  23063306.281      770912.502 8    589583.37245  23063305.595    23063316.1724
  20241971.523     -601407.556 9   -441960.42547  20241970.765    20241977.5744
  22633170.072     -521781.702 8   -382900.13546  22633169.472    22633177.8664
  20673358.330     -666827.152 9   -478762.04447  20673358.222    20673364.4614
  23492894.062     -188564.472 7   -140796.29345  23492893.748    23492902.9844
 00  8 22 18  3 30.0000000  0  8 23 03 21 17 15 31 29 09
  22034892.273      478846.302 8    366028.25247  22034891.722    22034899.3034
  21590774.687      205216.722 9    113267.86247  21590774.368    21590781.6494
  20917290.396     -299735.065 9   -169074.19947  20917289.832    20917296.4634
  23080022.019      858753.730 8    658030.90945  23080021.334    23080031.9354
  20233352.992     -646698.242 9   -477251.83447  20233352.252    20233359.0714
  22626247.598     -558159.218 8   -411246.18846  22626247.036    22626255.4424
  20663682.373     -717674.670 9   -518383.46047  20663682.280    20663688.4924
  23492156.534     -192439.554 7   -143815.77845  23492156.259    23492165.4914
 00  8 22 18  4  0.0000000  0  8 23 03 21 17 15 31 29 09
  22045038.451      532164.664 8    407574.97947  22045037.888    22045045.5174
  21596776.894      236758.245 9    137845.63947  21596776.602    21596783.8824
  20914402.528     -314910.960 9   -180899.56347  20914401.961    20914408.6134
  23096788.309      946860.762 8    726685.58245  23096787.646    23096798.3204
  20224803.280     -691627.193 9   -512261.36747  20224802.540    20224809.3714
  22619432.050     -593975.463 8   -439154.89946  22619431.424    22619439.7844
  20654096.753     -768047.738 9   -557635.17247  20654096.656    20654102.8294
  23491527.374     -195745.573 8   -146391.84045  23491527.134    23491536.2354
 00  8 22 18  4 30.0000000  0  8 23 03 21 17 15 31 29 09
  22055205.142      585590.499 8    449205.46347  22055204.580    22055212.1824
  21602882.884      268845.047 9    162848.29647  21602882.565    21602889.8274
  20911553.374     -329883.325 9   -192566.33547  20911552.803    20911559.4604
  23113605.090     1035232.645 8    795546.62245  23113604.434    23113615.1354
  20216322.785     -736192.720 9   -546987.71747  20216322.031    20216328.8194
  22612723.450     -629229.576 8   -466625.58246  22612722.788    22612731.0924
  20644601.508     -817945.674 9   -596516.64947  20644601.400    20644607.5554
  23491006.798     -198482.003 8   -148524.07045  23491006.435    23491015.5224
 00  8 22 18  5  0.0000000  0  8 23 03 21 17 15 31 29 09
  22065392.173      639123.076 8    490919.11047  22065391.587    22065399.1814
  21609092.238      301475.019 8    188274.21647  21609091.907    21609099.1554
  20908742.801     -344653.072 9   -204075.22247  20908742.259    20908748.8864
  23130472.072     1123868.402 8    864613.30645  23130471.378    23130482.0664
  20207911.763     -780393.005 9   -581429.46547  20207911.024    20207917.7834
  22606122.007     -663920.615 8   -493657.50546  22606121.328    22606129.5544
  20635196.872     -867367.618 9   -635027.22547  20635196.750    20635202.8664
  23490594.628     -200648.226 8   -150211.97245  23490594.270    23490603.3694
 00  8 22 18  5 30.0000000  0  8 23 03 21 17 15 31 29 09
  22075599.217      692761.159 8    532714.97547  22075598.661    22075606.2304
  21615404.503      334646.034 9    214121.71547  21615404.177    21615411.4414
  20905970.651     -359220.818 9   -215426.70747  20905970.118    20905976.7464
  23147388.973     1212766.489 8    933884.38745  23147388.306    23147398.9934
  20199570.428     -824226.764 9   -615585.61047  20199569.709    20199576.4574
  22599627.759     -698048.074 8   -520250.29546  22599627.094    22599635.2474
  20625882.801     -916313.339 9   -673166.71347  20625882.689    20625888.7784
  23490290.823     -202244.389 8   -151455.67445  23490290.450    23490299.6034
 00  8 22 18  6  0.0000000  0  8 23 03 21 17 15 31 29 09
  22085826.614      746506.123 8    574594.13247  22085826.051    22085833.6284
  21621819.888      368358.816 8    240391.38247  21621819.546    21621826.8394
  20903237.280     -373585.040 9   -226619.59347  20903236.730    20903243.3484
  23164355.984     1301927.810 8   1003360.57145  23164355.310    23164366.0454
  20191299.602     -867690.485 9   -649453.41147  20191298.875    20191305.5994
  22593241.372     -731608.880 8   -546401.51946  22593240.705    22593248.8044
  20616659.909     -964780.042 9   -710932.94147  20616659.793    20616665.8604
  23490096.009     -203267.622 8   -152252.91845  23490095.696    23490104.8864
 00  8 22 18  6 30.0000000  0  8 23 03 21 17 15 31 29 09
  22096073.946      800355.796 8    616554.87047  22096073.356    22096080.9564
  21628337.802      402610.381 8    267080.87147  21628337.473    21628344.7634
  20900542.354     -387747.221 9   -237655.05147  20900541.806    20900548.3974
  23181372.597     1391349.812 8   1073039.89745  23181371.850    23181382.6384
  20183099.227     -910783.867 9   -683032.63847  20183098.462    20183105.1784
  22586962.652     -764603.721 8   -572111.74246  22586961.992    22586970.0414
  20607528.077    -1012768.396 9   -748326.42647  20607527.935    20607534.0174
  23490010.271     -203718.506 8   -152604.20445  23490009.914    23490018.9874
 00  8 22 18  7  0.0000000  0  8 23 03 21 17 15 31 29 09
  22106341.163      854310.201 8    658597.22347  22106340.599    22106348.2144
  21634957.964      437399.328 8    294189.09747  21634957.620    21634964.9444
  20897885.893     -401707.235 9   -248532.97347  20897885.335    20897891.9234
  23198438.671     1481032.100 8   1142922.02845  23198437.926    23198448.7614
  20174969.751     -953504.554 9   -716321.45547  20174968.980    20174975.6954
  22580791.815     -797031.410 8   -597380.01046  22580791.194    22580799.2204
  20598487.431    -1060277.167 9   -785346.21447  20598487.294    20598493.3644
  23490033.552     -203596.225 8   -152508.84545  23490033.228    23490042.2174
 00  8 22 18  7 30.0000000  0  8 23 03 21 17 15 31 29 09
  22116628.193      908368.841 8    700720.79647  22116627.637    22116635.2784
  21641680.088      472724.236 8    321714.95947  21641679.777    21641687.1194
  20895267.801     -415465.437 9   -259253.63747  20895267.237    20895273.8084
  23215554.158     1570973.707 8   1213006.23145  23215553.416    23215564.2204
  20166911.602     -995850.502 9   -749318.27047  20166910.838    20166917.5314
  22574729.242     -828890.596 8   -622205.30746  22574728.620    22574736.6004
  20589538.269    -1107305.465 9   -821991.60547  20589538.120    20589544.1934
  23490165.973     -202900.248 8   -151966.45345  23490165.716    23490174.6394
 00  8 22 18  8  0.0000000  0  8 23 03 21 17 15 31 29 09
  22126934.990      962530.958 8    742925.00547  22126934.412    22126942.0244
  21648503.941      508583.415 9    349657.14347  21648503.613    21648510.9264
  20892688.135     -429021.851 9   -269817.06447  20892687.573    20892694.1324
  23232718.758     1661173.444 8   1283291.57245  23232718.013    23232728.8754
  20158925.074    -1037820.003 9   -782021.74047  20158924.307    20158930.9684
  22568774.911     -860180.676 8   -646587.13346  22568774.283    22568782.2844
  20580680.633    -1153852.517 9   -858261.99547  20580680.481    20580686.5474
  23490407.705     -201629.959 8   -150976.55745  23490407.429    23490416.3804
 00  8 22 18  8 30.0000000  0  8 23 03 21 17 15 31 29 09
  22137261.317     1016795.691 8    785209.16247  22137260.723    22137268.3294
  21655429.129      544974.895 9    378014.09747  21655428.778    21655436.0664
  20890146.676     -442377.218 9   -280223.83147  20890146.123    20890152.7104
  23249932.227     1751630.074 8   1353777.09945  23249931.547    23249942.3764
  20151010.491    -1079411.452 9   -814430.62647  20151009.716    20151016.3634
  22562929.021     -890900.725 8   -670524.78246  22562928.430    22562936.4524
  20571914.655    -1199918.029 9   -894157.16447  20571914.490    20571920.5454
  23490758.736     -199785.028 8   -149538.88845  23490758.446    23490767.4484
 00  8 22 18  9  0.0000000  0  8 23 03 21 17 15 31 29 09
  22147607.074     1071162.765 8    827573.08047  22147606.501    22147614.0954
  21662455.296      581897.277 8    406784.74747  21662454.924    21662462.2184
  20887643.496     -455531.644 9   -290474.01947  20887642.946    20887649.5404
  23267194.480     1842342.853 8   1424462.22645  23267193.807    23267204.6394
  20143168.223    -1120622.741 9   -846543.27947  20143167.465    20143174.1104
  22557191.818     -921049.796 8   -694017.50346  22557191.221    22557199.3064
  20563240.503    -1245500.925 9   -929676.26447  20563240.335    20563246.3854
  23491219.261     -197364.686 8   -147652.85345  23491219.007    23491227.8464
 00  8 22 18  9 30.0000000  0  8 23 03 21 17 15 31 29 09
  22157972.317     1125632.098 8    870016.67147  22157971.725    22157979.3424
  21669582.188      619349.224 8    435968.03947  21669581.821    21669589.1804
  20885178.583     -468484.866 9   -300567.43147  20885178.042    20885184.6304
  23284505.318     1933311.150 8   1495346.45845  23284504.643    23284515.4954
  20135398.798    -1161451.539 9   -878357.90047  20135398.044    20135404.6744
  22551563.546     -950626.573 8   -717064.30146  22551562.918    22551571.0104
  20554658.413    -1290599.958 9   -964818.32647  20554658.266    20554664.3054
  23491789.603     -194367.630 8   -145317.44045  23491789.343    23491798.0334
 00  8 22 18 10  0.0000000  0  8 23 03 21 17 15 31 29 09
  22168356.756     1180202.519 8    912539.03447  22168356.156    22168363.8244
  21676809.356      657328.204 8    465562.01047  21676808.997    21676816.3724
  20882751.820     -481237.622 9   -310504.63147  20882751.262    20882757.8734
  23301864.471     2024533.484 8   1566428.64145  23301863.755    23301874.7644
  20127702.346    -1201896.729 9   -909873.60047  20127701.602    20127708.2064
  22546044.156     -979630.825 8   -739664.96146  22546043.569    22546051.7074
  20546168.421    -1335215.177 9   -999583.39247  20546168.294    20546174.3124
  23492469.577     -190794.163 8   -142532.86545  23492469.302    23492478.1114
 00  8 22 18 10 30.0000000  0  8 23 03 21 17 15 31 29 09
  22178760.480     1234874.278 8    955140.36047  22178759.904    22178767.5844
  21684136.711      695833.231 8    495565.88447  21684136.354    21684143.7014
  20880363.324     -493789.393 9   -320285.22247  20880362.766    20880369.3754
  23319271.946     2116009.422 8   1637708.42145  23319271.254    23319282.2324
  20120079.338    -1241955.882 9   -941088.49447  20120078.589    20120085.1834
  22540633.987    -1008061.235 8   -761818.48946  22540633.404    22540641.5314
  20537770.735    -1379345.317 9  -1033970.47547  20537770.587    20537776.5784
  23493259.359     -186643.242 8   -139298.32445  23493259.105    23493268.0614
 00  8 22 18 11  0.0000000  0  8 23 03 21 17 15 31 29 09
  22189183.343     1289646.267 8    997819.78047  22189182.758    22189190.4134
  21691563.810      734862.309 8    525978.10347  21691563.433    21691570.7534
  20878012.862     -506141.051 9   -329909.88347  20878012.313    20878018.9144
  23336727.326     2207737.426 8   1709184.61745  23336726.650    23336737.6184
  20112529.999    -1281627.762 9   -972001.61847  20112529.266    20112535.8624
  22535333.103    -1035917.547 8   -783524.65946  22535332.544    22535340.6114
  20529465.424    -1422990.076 9  -1067979.34147  20529465.267    20529471.2694
  23494159.041     -181915.070 8   -135613.97045  23494158.763    23494167.8694
 00  8 22 18 11 30.0000000  0  8 23 03 21 17 15 31 29 09
  22199625.188     1344518.178 8   1040577.07647  22199624.609    22199632.2334
  21699090.261      774413.817 8    556797.41647  21699089.883    21699097.2544
  20875700.560     -518292.302 9   -339378.37847  20875700.004    20875706.5934
  23354230.570     2299716.514 7   1780856.45945  23354229.883    23354240.9464
  20105054.803    -1320910.419 9  -1002611.45147  20105054.041    20105060.6014
  22530141.692    -1063198.785 8   -804782.71346  22530141.058    22530149.1124
  20521252.564    -1466148.715 9  -1101609.40347  20521252.413    20521258.4104
  23495168.838     -176608.838 8   -131479.19945  23495168.623    23495177.6644
 00  8 22 18 12  0.0000000  0  8 23 03 21 17 15 31 29 09
  22210085.968     1399489.607 8   1083411.91547  22210085.378    22210093.0054
  21706715.666      814485.809 8    588022.29747  21706715.314    21706722.7494
  20873426.301     -530243.845 9   -348691.26047  20873425.738    20873432.3034
  23371781.400     2391945.950 8   1852723.36645  23371780.742    23371791.8224
  20097654.040    -1359801.631 9  -1032916.26447  20097653.274    20097659.8534
  22525059.966    -1089903.826 8   -825591.79546  22525059.276    22525067.2844
  20513132.389    -1508820.363 9  -1134860.00047  20513132.244    20513138.2584
  23496288.764     -170724.185 8   -126893.70845  23496288.488    23496297.4774
 00  8 22 18 12 30.0000000  0  8 23 03 21 17 15 31 29 09
  22220565.538     1454560.022 8   1126323.88747  22220564.943    22220572.6004
  21714439.871      855076.473 8    619651.33847  21714439.536    21714446.9754
  20871190.083     -541995.297 9   -357848.22847  20871189.516    20871196.0764
  23389379.563     2484424.339 7   1924784.25845  23389378.870    23389390.0124
  20090328.107    -1398299.731 9  -1062914.75847  20090327.346    20090333.9164
  22520087.739    -1116032.462 8   -845951.73046  22520087.108    22520095.0904
  20505105.027    -1551004.381 9  -1167730.62547  20505104.891    20505110.8834
  23497518.681     -164260.701 8   -121857.17945  23497518.397    23497527.2904
 00  8 22 18 13  0.0000000  0  8 23 03 21 17 15 31 29 09
  22231063.726     1509728.397 8   1169312.18147  22231063.135    22231070.8294
  21722262.413      896183.674 8    651682.87847  21722262.071    21722269.4654
  20868991.722     -553547.712 9   -366850.10447  20868991.158    20868997.7304
  23407024.856     2577150.251 8   1997038.02745  23407024.204    23407035.3734
  20083077.246    -1436403.144 9  -1092605.69947  20083076.486    20083083.0374
  22515225.304    -1141584.295 8   -865862.21646  22515224.734    22515232.6934
  20497170.482    -1592700.811 9  -1200221.31547  20497170.334    20497176.3124
  23498858.591     -157218.369 8   -116369.61345  23498858.309    23498867.1904
 00  8 22 18 13 30.0000000  0  8 23 03 21 17 15 31 29 09
  22241580.872     1564995.989 8   1212377.79647  22241580.304    22241587.9774
  21730183.135      937807.164 8    684116.72647  21730182.788    21730190.1834
  20866831.522     -564899.615 9   -375695.73747  20866830.983    20866837.5504
  23424717.448     2670124.534 8   2069485.34645  23424716.786    23424727.9954
  20075902.149    -1474108.480 9  -1121986.45248  20075901.403    20075907.9474
  22510473.207    -1166556.725 8   -885321.20946  22510472.654    22510480.6144
  20489329.151    -1633907.115 9  -1232330.08347  20489328.993    20489334.9594
  23500309.171     -149595.077 8   -110429.33945  23500308.934    23500317.7534
 00  8 22 18 14  0.0000000  0  8 23 03 21 17 15 31 29 09
  22252116.767     1620361.965 8   1255520.07047  22252116.180    22252123.8514
  21738201.629      979944.574 8    716951.02947  21738201.317    21738208.7154
  20864709.393     -576051.595 9   -384385.58447  20864708.853    20864715.4154
  23442456.980     2763345.430 8   2142124.81545  23442456.315    23442467.5084
  20068803.057    -1511414.475 9  -1151056.03648  20068802.297    20068808.8554
  22505831.422    -1190949.779 8   -904328.74946  22505830.807    22505838.7874
  20481581.084    -1674623.359 9  -1264056.99047  20481580.947    20481586.8834
  23501870.430     -141391.209 8   -104036.67445  23501870.143    23501878.9444
 00  8 22 18 14 30.0000000  0  8 23 03 21 17 15 31 29 09
  22262670.906     1675824.023 8   1298737.20846  22262670.324    22262677.9894
  21746317.291     1022592.297 8    750182.97547  21746316.978    21746324.3524
  20862625.024     -587005.139 9   -392920.81147  20862624.486    20862631.0614
  23460242.879     2856810.189 7   2214954.31345  23460242.272    23460253.4364
  20061779.969    -1548320.975 9  -1179814.32748  20061779.219    20061785.7824
  22501299.652    -1214764.376 8   -922885.54146  22501299.015    22501307.0234
  20473926.049    -1714850.721 9  -1295402.95247  20473925.906    20473931.8444
  23503541.972     -132608.162 8    -97192.70145  23503541.667    23503550.3664
 00  8 22 18 15  0.0000000  0  8 23 03 21 17 15 31 29 09
  22273243.435     1731382.964 8   1342029.84646  22273242.855    22273250.5614
  21754529.971     1065749.862 8    783812.20647  21754529.642    21754537.0304
  20860578.535     -597759.698 9   -401300.98747  20860577.992    20860584.5544
  23478075.235     2950518.987 8   2287973.94845  23478074.647    23478085.8674
  20054833.491    -1584824.961 9  -1208258.97248  20054832.738    20054839.2764
  22496878.140    -1237998.895 8   -940990.33146  22496877.586    22496885.6254
  20466364.402    -1754587.462 9  -1326366.61047  20466364.271    20466370.2124
  23505323.746     -123244.509 8    -89896.29245  23505323.433    23505332.1954
 00  8 22 18 15 30.0000000  0  8 23 03 21 17 15 31 29 09
  22283834.317     1787038.371 8   1385397.64746  22283833.713    22283841.4654
  21762839.291     1109415.554 8    817837.38547  21762838.960    21762846.3954
  20858569.884     -608315.201 9   -409526.05447  20858569.333    20858575.9064
  23495953.849     3044470.748 8   2361182.91245  23495953.190    23495964.4464
  20047963.943    -1620924.700 9  -1236388.62048  20047963.174    20047969.7344
  22492567.237    -1260652.495 8   -958642.44446  22492566.730    22492574.7154
  20458896.214    -1793832.859 9  -1356947.40347  20458896.091    20458902.0204
  23507216.038     -113299.750 8    -82147.08245  23507215.704    23507224.4014
 00  8 22 18 16  0.0000000  0  8 23 03 21 17 15 31 29 09
  22294443.407     1842789.242 8   1428839.84046  22294442.798    22294450.5904
  21771244.775     1153586.436 8    852256.21647  21771244.451    21771251.9104
  20856598.938     -618672.672 9   -417596.80947  20856598.377    20856604.9794
  23513878.336     3138663.716 8   2434579.83045  23513877.691    23513888.9654
  20041171.495    -1656618.992 9  -1264202.33248  20041170.746    20041177.2774
  22488366.932    -1282725.473 8   -975842.12546  22488366.408    22488374.3664
  20451521.534    -1832587.076 9  -1387145.45847  20451521.396    20451527.3604
  23509219.002     -102774.462 8    -73945.51945  23509218.736    23509227.1674
 00  8 22 18 16 30.0000000  0  8 23 03 21 17 15 31 29 09
  22305070.617     1898635.483 8   1472356.33646  22305070.031    22305077.8524
  21779746.135     1198260.934 9    887067.48047  21779745.796    21779753.2504
  20854665.674     -628832.061 9   -425513.21647  20854665.136    20854671.7194
  23531848.566     3233097.266 8   2508164.21245  23531847.960    23531859.3194
  20034456.700    -1691905.605 9  -1291698.37148  20034455.965    20034462.5024
  22484277.384    -1304216.853 8   -992588.63046  22484276.729    22484284.6434
  20444240.407    -1870849.477 9  -1416960.28248  20444240.267    20444246.2274
  23511332.624      -91668.090 8    -65291.15845  23511332.323    23511340.6744
 00  8 22 18 17  0.0000000  0  8 23 03 21 17 15 31 29 09
  22315716.033     1954577.052 8   1515947.11646  22315715.402    22315723.2284
  21788342.986     1243437.437 8    922269.91247  21788342.644    21788350.1154
  20852770.224     -638792.681 9   -433274.73647  20852769.678    20852776.2614
  23549864.399     3327770.388 8   2581935.28345  23549863.738    23549875.2384
  20027819.862    -1726782.400 9  -1318875.07648  20027819.089    20027825.6394
  22480298.411    -1325125.846 8  -1008881.31946  22480297.844    22480305.7504
  20437053.066    -1908619.150 9  -1446391.16548  20437052.943    20437058.8634
  23513556.672      -79980.364 8    -56183.78345  23513556.334    23513564.8714
 00  8 22 18 17 30.0000000  0  8 23 03 21 17 15 31 29 09
  22326379.475     2010613.431 8   1559611.78046  22326378.850    22326386.6984
  21797034.957     1289113.935 8    957861.94147  21797034.587    21797042.1404
  20850912.594     -648554.867 9   -440881.63447  20850912.044    20850918.6194
  23567925.637     3422681.916 8   2655892.11745  23567924.975    23567936.4914
  20021261.340    -1761247.630 9  -1345731.07648  20021260.580    20021267.1234
  22476430.488    -1345451.909 8  -1024719.79446  22476429.891    22476437.8164
  20429959.561    -1945895.755 9  -1475437.83748  20429959.423    20429965.3434
  23515891.380      -67711.117 8    -46623.29145  23515891.008    23515899.7124
 00  8 22 18 18  0.0000000  0  8 23 03 21 17 15 31 29 09
  22337060.757     2066743.958 8   1603349.79446  22337060.155    22337068.0234
  21805821.647     1335288.248 8    993841.87547  21805821.304    21805828.8664
  20849092.648     -658118.891 9   -448334.11647  20849092.094    20849098.6474
  23586031.990     3517830.695 8   2730033.82545  23586031.320    23586042.9134
  20014781.425    -1795299.796 9  -1372265.20848  20014780.656    20014787.2004
  22472673.544    -1365194.934 8  -1040103.94646  22472672.952    22472680.8354
  20422959.960    -1982678.826 9  -1504099.93748  20422959.819    20422965.7504
  23518336.688      -54860.474 8    -36609.77945  23518336.295    23518345.0744
 00  8 22 18 18 30.0000000  0  8 23 03 21 17 15 31 29 09
  22347759.971     2122968.845 8   1647161.34246  22347759.428    22347767.3084
  21814702.823     1381958.734 8   1030208.44247  21814702.475    21814710.0184
  20847310.473     -667484.318 9   -455631.84747  20847309.928    20847316.4594
  23604183.418     3613216.046 8   2804359.87345  23604182.684    23604194.3714
  20008380.572    -1828936.550 9  -1398475.64348  20008379.787    20008386.3304
  22469027.610    -1384354.099 8  -1055033.15446  22469027.086    22469034.9604
  20416054.440    -2018967.529 9  -1532376.81848  20416054.310    20416060.2254
  23520892.825      -41427.544 8    -26142.53345  23520892.495    23520901.2404
 00  8 22 18 19  0.0000000  0  8 23 03 21 17 15 31 29 09
  22358477.058     2179286.983 8   1691045.55846  22358476.489    22358484.3484
  21823677.949     1429122.987 8   1066959.75647  21823677.612    21823685.1514
  20845565.915     -676652.088 9   -462775.56647  20845565.355    20845571.8964
  23622379.533     3708836.230 8   2878868.90745  23622378.807    23622390.5184
  20002058.916    -1862156.952 9  -1424361.65448  20002058.153    20002064.6774
  22465492.931    -1402929.221 8  -1069507.25546  22465492.383    22465500.1974
  20409242.955    -2054762.065 9  -1560268.63048  20409242.825    20409248.7284
  23523559.631      -27413.031 8    -15222.10545  23523559.309    23523568.0714
 00  8 22 18 19 30.0000000  0  8 23 03 21 17 15 31 29 09
  22369211.792     2235698.098 8   1735002.20646  22369211.198    22369219.0884
  21832746.656     1476778.984 8   1104094.25247  21832746.294    21832753.8264
  20843858.970     -685622.008 9   -469765.11147  20843858.437    20843864.9734
  23640620.108     3804690.241 8   2953560.13545  23640619.420    23640631.1024
  19995816.865    -1894959.029 9  -1449921.69448  19995816.115    19995822.6364
  22462069.353    -1420920.133 8  -1083526.13746  22462068.843    22462076.6354
  20402525.554    -2090062.146 9  -1587775.15748  20402525.436    20402531.3094
  23526337.263      -12816.860 8     -3848.45445  23526336.925    23526345.5124
 00  8 22 18 20  0.0000000  0  8 23 03 21 17 15 31 29 09
  22379964.070     2292201.514 8   1779030.79246  22379963.533    22379971.3984
  21841908.401     1524924.161 8   1141609.92347  21841908.072    21841915.5994
  20842189.566     -694394.949 9   -476601.16947  20842189.043    20842195.5644
  23658904.897     3900776.680 8   3028432.46545  23658904.231    23658915.9144
  19989654.743    -1927341.187 9  -1475154.53548  19989653.991    19989660.5084
  22458757.067    -1438326.365 8  -1097089.41746  22458756.546    22458764.3204
  20395902.307    -2124867.463 9  -1614896.15448  20395902.181    20395908.0434
  23529225.540        2360.872 8      7978.36545  23529225.266    23529233.6294
 00  8 22 18 20 30.0000000  0  8 23 03 21 17 15 31 29 09
  22390733.987     2348797.310 8   1823131.35846  22390733.378    22390741.3014
  21851162.914     1573557.021 8   1179505.61047  21851162.585    21851170.1744
  20840557.709     -702970.290 9   -483283.25647  20840557.182    20840563.7324
  23677233.768     3997094.775 7   3103485.33145  23677233.132    23677244.8154
  19983572.925    -1959301.295 9  -1500058.50048  19983572.191    19983578.6894
  22455556.033    -1455147.697 8  -1110196.93046  22455555.552    22455563.3454
  20389373.332    -2159177.359 9  -1641631.10448  20389373.221    20389379.0554
  23532224.419       18120.494 8     20258.60845  23532224.110    23532232.5834
 00  8 22 18 21  0.0000000  0  8 23 03 21 17 15 31 29 09
  22401521.396     2405485.280 8   1867303.74246  22401520.800    22401528.7384
  21860509.910     1622675.562 8   1217779.74047  21860509.574    21860517.1764
  20838963.473     -711348.227 9   -489811.52147  20838962.936    20838969.5054
  23695606.556     4093643.650 7   3178718.01645  23695605.923    23695617.7394
  19977571.818    -1990837.310 9  -1524632.00848  19977571.095    19977577.5844
  22452466.502    -1471383.245 8  -1122847.98546  22452466.031    22452473.8094
  20382938.792    -2192991.236 9  -1667979.55048  20382938.655    20382944.4884
  23535334.024       34462.032 8     32992.30145  23535333.787    23535342.3264
 00  8 22 18 21 30.0000000  0  8 23 03 21 17 15 31 29 09
  22412326.208     2462264.626 8   1911547.33746  22412325.659    22412333.5544
  21869948.799     1672276.962 8   1256430.12747  21869948.450    21869956.0864
  20837406.724     -719529.006 9   -496186.16047  20837406.194    20837412.7654
  23714022.927     4190421.372 7   3254129.01045  23714022.244    23714034.2494
  19971651.593    -2021948.363 9  -1548874.37748  19971650.874    19971657.3404
  22449488.359    -1487033.262 8  -1135042.77346  22449487.893    22449495.7024
  20376598.541    -2226309.426 9  -1693941.74648  20376598.395    20376604.2104
  23538554.348       51384.897 8     46178.97445  23538554.088    23538562.6744
 00  8 22 18 22  0.0000000  0  8 23 03 21 17 15 31 29 09
  22423148.412     2519135.490 8   1955862.25146  22423147.878    22423155.7604
  21879479.241     1722359.627 8   1295455.52747  21879478.912    21879486.5454
  20835887.571     -727512.159 9   -502406.80447  20835887.036    20835893.6334
  23732482.683     4287427.310 7   3329717.85045  23732482.024    23732494.0144
  19965812.680    -2052632.107 9  -1572783.77848  19965811.956    19965818.4314
  22446621.798    -1502097.033 8  -1146780.75446  22446621.307    22446629.1754
  20370352.799    -2259130.999 9  -1719516.96848  20370352.668    20370358.4744
  23541885.386       68889.418 8     59818.86145  23541885.092    23541893.6944
 00  8 22 18 22 30.0000000  0  8 23 03 21 17 15 31 29 09
  22433987.843     2576096.701 8   2000247.54946  22433987.294    22433995.2184
  21889100.761     1772920.823 8   1334853.80147  21889100.431    21889108.0644
  20834405.800     -735298.977 9   -508474.46147  20834405.261    20834411.8494
  23750985.574     4384659.668 7   3405483.09345  23750984.795    23750996.8524
  19960055.327    -2082887.232 9  -1596359.19148  19960054.592    19960061.0714
  22443866.776    -1516574.718 8  -1158062.03846  22443866.285    22443874.1614
  20364201.424    -2291456.493 9  -1744705.63748  20364201.287    20364207.0954
  23545327.003       86974.788 8     73911.36845  23545326.670    23545335.1814
 00  8 22 18 23  0.0000000  0  8 23 03 21 17 15 31 29 09
  22444844.466     2633148.424 8   2044703.39046  22444843.907    22444851.8794
  21898813.024     1823958.737 8   1374623.55347  21898812.668    21898820.2984
  20832961.530     -742888.700 9   -514388.53947  20832961.001    20832967.5984
  23769531.375     4482117.609 7   3481424.14345  23769530.626    23769542.6384
  19954379.908    -2112711.715 9  -1619599.04148  19954379.181    19954385.6234
  22441223.375    -1530466.040 8  -1168886.43046  22441222.855    22441230.6604
  20358144.629    -2323285.223 9  -1769507.21548  20358144.500    20358150.2914
  23548879.134      105641.423 8     88456.80745  23548878.811    23548887.3624
 00  8 22 18 23 30.0000000  0  8 23 03 21 17 15 31 29 09
  22455718.203     2690290.075 8   2089229.30246  22455717.650    22455725.6354
  21908615.569     1875471.251 8   1414763.11547  21908615.211    21908622.8604
  20831554.677     -750281.892 9   -520149.47647  20831554.135    20831560.7314
  23788119.864     4579799.810 7   3557539.91445  23788119.118    23788131.1624
  19948786.748    -2142104.012 9  -1642502.11848  19948786.013    19948792.4584
  22438691.599    -1543770.905 8  -1179253.83246  22438691.057    22438698.8134
  20352182.358    -2354617.008 9  -1793921.56048  20352182.237    20352188.0274
  23552541.839      124889.185 8    103455.06245  23552541.524    23552550.1574
 00  8 22 18 24  0.0000000  0  8 23 03 21 17 15 31 29 09
  22466609.107     2747521.671 8   2133825.29746  22466608.511    22466616.5174
  21918508.017     1927456.279 8   1455270.86947  21918507.673    21918515.3694
  20830185.254     -757478.350 9   -525757.11247  20830184.703    20830191.3174
  23806750.831     4677705.315 7   3633829.71245  23806750.039    23806762.3034
  19943276.218    -2171062.172 9  -1665066.91148  19943275.468    19943281.9124
  22436271.475    -1556488.877 8  -1189163.92146  22436270.863    22436278.6214
  20346314.763    -2385451.454 9  -1817948.37148  20346314.649    20346320.4154
  23556315.054      144717.951 8    118906.04945  23556314.753    23556323.3874
 00  8 22 18 24 30.0000000  0  8 23 03 21 17 15 31 29 09
  22477516.935     2804842.583 8   2178490.88046  22477516.339    22477524.3644
  21928489.923     1979911.265 8   1496144.83047  21928489.602    21928497.3074
  20828853.192     -764478.368 9   -531211.67647  20828852.655    20828859.2384
  23825423.949     4775832.480 7   3710292.21445  23825423.092    23825435.5164
  19937848.488    -2199584.928 9  -1687292.42348  19937847.755    19937854.1944
  22433963.014    -1568619.986 8  -1198616.71046  22433962.371    22433970.1234
  20340541.797    -2415788.518 9  -1841587.61048  20340541.686    20340547.4484
  23560198.730      165127.024 8    134809.23645  23560198.513    23560207.1014
 00  8 22 18 25  0.0000000  0  8 23 03 21 17 15 31 29 09
  22488441.730     2862252.531 8   2223225.86246  22488441.166    22488449.1774
  21938560.828     2032834.033 8   1537383.28447  21938560.520    21938568.2414
  20827558.565     -771281.795 9   -536513.05947  20827558.022    20827564.5954
  23844139.076     4874180.215 7   3786926.58945  23844138.257    23844150.7134
  19932503.999    -2227670.404 9  -1709177.19848  19932503.255    19932509.6894
  22431766.287    -1580164.046 8  -1207612.06646  22431765.612    22431773.3624
  20334863.499    -2445628.107 9  -1864839.21048  20334863.377    20334869.1404
  23564192.961      186116.443 8    151164.62245  23564192.749    23564201.2474
 00  8 22 18 25 30.0000000  0  8 23 03 21 17 15 31 29 09
  22499383.432     2919751.428 8   2268030.14646  22499382.881    22499390.8934
  21948720.349     2086222.339 8   1578984.49747  21948720.047    21948727.7494
  20826301.252     -777889.197 9   -541661.69447  20826300.702    20826307.2544
  23862895.882     4972747.326 7   3863731.90845  23862895.071    23862907.6544
  19927243.061    -2255316.799 9  -1730719.82848  19927242.337    19927248.7674
  22429681.191    -1591121.113 8  -1216150.02246  22429680.525    22429688.2964
  20329279.907    -2474969.862 9  -1887702.88948  20329279.792    20329285.5474
  23568297.556      207685.926 8    167972.00045  23568297.347    23568305.7854
 00  8 22 18 26  0.0000000  0  8 23 03 21 17 15 31 29 09
  22510341.985     2977338.786 8   2312903.35346  22510341.435    22510349.4954
  21958968.042     2140073.913 8   1620946.70147  21958967.723    21958975.3914
  20825081.264     -784300.279 9   -546657.35047  20825080.727    20825087.2664
  23881694.208     5071532.391 7   3940707.06545  23881693.477    23881705.9634
  19922065.940    -2282522.573 9  -1751919.11648  19922065.221    19922071.6464
  22427707.842    -1601490.985 8  -1224230.42446  22427707.251    22427714.9884
  20323791.082    -2503813.776 9  -1910178.63848  20323790.972    20323796.6944
  23572512.374      229834.845 8    185230.89345  23572512.109    23572520.5824
 00  8 22 18 26 30.0000000  0  8 23 03 21 17 15 31 29 09
  22521317.296     3035014.390 8   2357845.33246  22521316.757    22521324.8214
  21969303.483     2194386.576 8   1663268.20047  21969303.178    21969310.8004
  20823898.658     -790514.986 9   -551499.98847  20823898.125    20823904.6294
  23900533.810     5170534.396 7   4017851.25845  23900533.135    23900545.7034
  19916973.100    -2309285.780 9  -1772773.54548  19916972.397    19916978.7984
  22425846.304    -1611273.427 8  -1231853.08846  22425845.690    22425853.4624
  20318397.048    -2532159.628 9  -1932266.28848  20318396.936    20318402.6524
  23576837.420      252563.119 8    202941.22545  23576837.145    23576845.6664
 00  8 22 18 27  0.0000000  0  8 23 03 21 17 15 31 29 09
  22532309.335     3092777.794 8   2402855.72346  22532308.787    22532316.8734
  21979726.215     2249157.938 8   1705947.11347  21979725.902    21979733.5314
  20822753.277     -796534.044 9   -556190.16447  20822752.748    20822759.2574
  23919414.487     5269751.963 7   4095163.41645  23919413.914    23919426.3744
  19911964.725    -2335604.932 9  -1793281.95548  19911964.004    19911970.3874
  22424096.420    -1620468.911 8  -1239018.38046  22424095.841    22424103.5664
  20313097.775    -2560007.374 9  -1953965.80248  20313097.665    20313103.3804
  23581272.572      275870.329 8    221102.66545  23581272.295    23581280.8494
 00  8 22 18 27 30.0000000  0  8 23 03 21 17 15 31 29 09
  22543318.092     3150629.137 8   2447934.62646  22543317.566    22543325.6574
  21990235.843     2304385.987 8   1748981.89747  21990235.536    21990243.1804
  20821645.283     -802356.664 9   -560727.27647  20821644.755    20821651.2784
  23938336.010     5369184.237 7   4172642.86645  23938335.455    23938348.0094
  19907041.176    -2361478.360 9  -1813443.05648  19907040.483    19907046.8354
  22422458.373    -1629076.991 8  -1245725.96046  22422457.786    22422465.5124
  20307893.338    -2587356.751 9  -1975276.97948  20307893.228    20307898.9544
  23585817.955      299756.365 8    239715.14445  23585817.728    23585826.3154
 00  8 22 18 28  0.0000000  0  8 23 03 21 17 15 31 29 09
  22554343.570     3208567.939 8   2493081.69846  22554343.023    22554351.0774
  22000831.820     2360067.876 8   1792370.31647  22000831.511    22000839.1554
  20820574.712     -807982.575 9   -565111.10547  20820574.176    20820580.7144
  23957298.022     5468829.705 7   4250288.44245  23957297.438    23957310.1404
  19902202.723    -2386904.655 9  -1833255.73948  19902201.992    19902208.3574
  22420932.027    -1637097.929 8  -1251976.00446  22420931.442    22420939.1634
  20302783.748    -2614207.753 9  -1996199.81548  20302783.645    20302789.3684
  23590473.300      324220.590 8    258778.16145  23590472.996    23590481.7564
 00  8 22 18 28 30.0000000  0  8 23 03 21 17 15 31 29 09
  22565385.525     3266593.365 8   2538296.27446  22565384.979    22565393.0284
  22011513.681     2416201.063 8   1836110.39247  22011513.336    22011520.9734
  20819541.444     -813412.519 9   -569342.23847  20819540.902    20819547.4634
  23976300.344     5568686.558 7   4328098.74745  23976299.703    23976312.4634
  19897449.575    -2411882.493 9  -1852718.98048  19897448.853    19897455.2324
  22419517.315    -1644532.114 8  -1257768.85746  22419516.751    22419524.4664
  20297768.926    -2640560.784 9  -2016734.62348  20297768.817    20297774.5354
  23595238.600      349262.504 8    278291.33945  23595238.286    23595247.1024
 00  8 22 18 29  0.0000000  0  8 23 03 21 17 15 31 29 09
  22576444.012     3324705.610 8   2583578.49346  22576443.414    22576451.4874
  22022281.047     2472783.726 8   1880200.71647  22022280.692    22022288.3564
  20818545.367     -818646.809 9   -573420.91047  20818544.831    20818551.3984
  23995342.737     5668754.053 7   4406073.17545  23995342.110    23995354.8644
  19892782.183    -2436409.783 9  -1871831.14848  19892781.464    19892787.8374
  22418214.344    -1651379.076 8  -1263104.14046  22418213.783    22418221.4774
  20292848.920    -2666415.409 9  -2036881.06048  20292848.813    20292854.5124
  23600113.886      374881.944 8    298254.52445  23600113.582    23600122.3234
 00  8 22 18 29 30.0000000  0  8 23 03 21 17 15 31 29 09
  22587518.946     3382904.442 8   2628928.17946  22587518.326    22587526.4214
  22033133.427     2529813.286 8   1924639.26847  22033133.109    22033140.7794
  20817586.662     -823684.929 9   -577346.72247  20817586.115    20817592.6634
  24014424.918     5769030.825 7   4484210.68145  24014424.269    24014436.9594
  19888200.776    -2460485.143 9  -1890591.16148  19888200.056    19888206.4434
  22417023.063    -1657639.131 8  -1267982.09046  22417022.538    22417030.2034
  20288023.798    -2691771.627 9  -2056639.13248  20288023.684    20288029.3814
  23605098.942      401078.242 8    318667.21545  23605098.570    23605107.2574
 00  8 22 18 30  0.0000000  0  8 23 03 21 17 15 31 29 09
  22598610.231     3441189.531 8   2674345.08246  22598609.658    22598617.7454
  22044070.343     2587287.155 8   1969424.02947  22044070.018    22044077.7614
  20816665.294     -828526.902 9   -581119.69547  20816664.763    20816671.3084
  24033546.753     5869515.548 7   4562510.20245  24033546.231    24033558.9214
  19883705.719    -2484106.853 9  -1908997.68148  19883705.008    19883711.4074
  22415943.522    -1663312.295 8  -1272402.71846  22415942.986    22415950.6194
  20283293.474    -2716629.620 9  -2076008.97748  20283293.368    20283299.0584
  23610193.548      427850.627 8    339528.79745  23610193.193    23610201.8484
 00  8 22 18 30 30.0000000  0  8 23 03 21 17 15 31 29 09
  22609717.885     3499560.472 8   2719828.88046  22609717.318    22609725.4084
  22055091.362     2645202.838 8   2014553.06147  22055091.038    22055098.8154
  20815781.180     -833172.868 9   -584739.93247  20815780.655    20815787.1894
  24052707.820     5970206.741 7   4640970.61745  24052707.337    24052720.1274
  19879297.285    -2507273.405 9  -1927049.52948  19879296.589    19879302.9584
  22414975.549    -1668399.303 8  -1276366.60946  22414975.006    22414982.6064
  20278657.975    -2740989.285 9  -2094990.51248  20278657.867    20278663.5394
  23615397.748      455198.620 8    360838.91545  23615397.361    23615406.0704
 00  8 22 18 31  0.0000000  0  8 23 03 21 17 15 31 29 09
  22620841.934     3558017.427 8   2765379.70846  22620841.337    22620849.4634
  22066196.119     2703558.408 8   2060024.86147  22066195.800    22066203.5844
  20814934.396     -837622.912 9   -588207.50547  20814933.871    20814940.4064
  24071907.991     6071103.460 7   4719591.18045  24071907.416    24071920.3444
  19874975.825    -2529982.800 9  -1944745.15748  19874975.111    19874981.4614
  22414119.072    -1672899.692 8  -1279873.40046  22414118.579    22414126.1834
  20274117.317    -2764850.464 9  -2113583.62148  20274117.211    20274122.8644
  23620711.303      483121.895 8    382597.32045  23620711.002    23620719.7744
 00  8 22 18 31 30.0000000  0  8 23 03 21 17 15 31 29 09
  22631982.171     3616559.685 8   2810996.99646  22631981.575    22631989.7274
  22077384.018     2762350.888 8   2105837.10947  22077383.705    22077391.4584
  20814124.768     -841877.497 9   -591522.77147  20814124.242    20814130.7744
  24091146.972     6172203.979 7   4798370.54945  24091146.336    24091159.4134
  19870741.586    -2552233.954 9  -1962083.71248  19870740.862    19870747.2154
  22413374.220    -1676813.986 8  -1282923.48146  22413373.684    22413381.2664
  20269671.445    -2788213.659 9  -2131788.69048  20269671.329    20269676.9654
  23626134.289      511619.621 8    404803.34445  23626133.957    23626142.7234
 00  8 22 18 32  0.0000000  0  8 23 03 21 17 15 31 29 09
  22643138.667     3675187.346 8   2856680.84046  22643138.101    22643146.2544
  22088654.672     2821578.249 8   2151988.22947  22088654.343    22088662.1434
  20813352.347     -845936.497 9   -594685.63047  20813351.826    20813358.3844
  24110424.574     6273507.172 7   4877307.83245  24110423.850    24110437.0364
  19866594.812    -2574025.176 9  -1979063.88048  19866594.093    19866600.4484
  22412740.857    -1680142.309 8  -1285516.97146  22412740.323    22412747.9134
  20265320.384    -2811078.583 9  -2149605.49548  20265320.271    20265325.9164
  23631666.487      540691.385 8    427456.69045  23631666.228    23631674.9264
 00  8 22 18 32 30.0000000  0  8 23 03 21 17 15 31 29 09
  22654311.285     3733899.843 8   2902430.77446  22654310.746    22654318.9214
  22100007.513     2881237.645 8   2198475.99947  22100007.193    22100015.0254
  20812617.235     -849799.731 9   -597695.94447  20812616.715    20812623.2564
  24129740.355     6375011.384 7   4956401.76445  24129739.738    24129752.9264
  19862535.871    -2595355.048 9  -1995684.55548  19862535.153    19862541.5044
  22412218.900    -1682885.206 8  -1287654.28246  22412218.354    22412225.9304
  20261064.067    -2833445.615 9  -2167034.33148  20261063.947    20261069.5824
  23637307.720      570336.411 8    450556.72945  23637307.503    23637316.1994
 00  8 22 18 33  0.0000000  0  8 23 03 21 17 15 31 29 09
  22665500.222     3792697.763 8   2948247.28546  22665499.691    22665507.8444
  22111442.212     2941327.374 8   2245299.09846  22111441.887    22111449.7864
  20811919.448     -853466.757 9   -600553.37247  20811918.928    20811925.4644
  24149094.316     6476716.293 7   5035652.08445  24149093.790    24149106.9684
  19858565.181    -2616221.209 9  -2011943.89948  19858564.472    19858570.8104
  22411808.402    -1685042.093 8  -1289334.96946  22411807.878    22411815.4844
  20256902.621    -2855314.163 9  -2184074.73948  20256902.508    20256908.1424
  23643058.093      600554.726 8    474103.49745  23643057.822    23643066.5914
 00  8 22 18 33 30.0000000  0  8 23 03 21 17 15 31 29 09
  22676705.134     3851579.473 8   2994129.09046  22676704.574    22676712.6994
  22122958.112     3001843.482 8   2292454.43646  22122957.785    22122965.6614
  20811258.795     -856938.504 9   -603258.63447  20811258.266    20811264.8044
  24168486.022     6578619.038 7   5115056.55745  24168485.376    24168498.6614
  19854682.731    -2636623.680 9  -2027841.92448  19854682.020    19854688.3494
  22411509.118    -1686614.617 8  -1290560.30646  22411508.625    22411516.2604
  20252835.712    -2876685.692 9  -2200727.85948  20252835.604    20252841.2374
  23648917.038      631344.154 8    498095.29445  23648916.746    23648925.5814
 00  8 22 18 34  0.0000000  0  8 23 03 21 17 15 31 29 09
  22687926.190     3910546.153 8   3040077.09346  22687925.606    22687933.7554
  22134554.939     3062784.729 8   2339941.05046  22134554.607    22134562.4684
  20810635.469     -860214.022 9   -605810.99047  20810634.957    20810641.4994
  24187915.283     6680719.531 7   5194615.11645  24187914.665    24187927.8504
  19850889.041    -2656559.663 9  -2043376.45248  19850888.326    19850894.6654
  22411321.169    -1687602.143 8  -1291329.80646  22411320.705    22411328.3684
  20248863.602    -2897559.129 9  -2216992.85448  20248863.493    20248869.1504
  23654884.789      662705.440 8    522532.69845  23654884.554    23654893.3904
 00  8 22 18 34 30.0000000  0  8 23 03 21 17 15 31 29 09
  22699163.149     3969596.826 8   3086090.53846  22699162.587    22699170.7904
  22146232.077     3124148.091 8   2387756.58446  22146231.742    22146239.6304
  20810049.452     -863293.750 9   -608210.78447  20810048.933    20810055.4904
  24207381.813     6783015.641 7   5274326.08645  24207381.218    24207394.4674
  19847184.292    -2676028.277 9  -2058546.79548  19847183.581    19847189.8964
  22411244.366    -1688005.567 8  -1291644.15846  22411243.919    22411251.5894
  20244986.183    -2917935.170 9  -2232870.27248  20244986.078    20244991.7074
  23660961.110      694637.057 8    547414.51045  23660960.898    23660969.7874
 00  8 22 18 35  0.0000000  0  8 23 03 21 17 15 31 29 09
  22710416.079     4028731.243 8   3132169.25446  22710415.536    22710423.7554
  22157989.024     3185930.883 8   2435898.95046  22157988.683    22157996.5744
  20809500.560     -866178.083 9   -610458.31847  20809500.033    20809506.6054
  24226885.332     6885506.085 7   5354188.53645  24226884.767    24226898.0084
  19843568.769    -2695027.937 9  -2073351.72048  19843568.064    19843574.3894
  22411278.833    -1687824.525 8  -1291503.09046  22411278.325    22411286.0244
  20241203.299    -2937814.248 9  -2248360.44348  20241203.187    20241208.8084
  23667145.943      727138.172 8    572740.09145  23667145.676    23667154.4254
 00  8 22 18 35 30.0000000  0  8 23 03 21 17 15 31 29 09
  22721684.913     4087949.179 8   3178313.04446  22721684.375    22721692.6214
  22169825.254     3248130.450 8   2484366.07246  22169824.910    22169832.8764
  20808988.842     -868867.271 9   -612553.79547  20808988.347    20808994.9004
  24246425.516     6988189.364 7   5434201.25145  24246424.899    24246438.1524
  19840042.741    -2713557.300 9  -2087790.17648  19840042.035    19840048.3484
  22411424.317    -1687060.002 8  -1290907.35346  22411423.805    22411431.5154
  20237515.014    -2957196.342 9  -2263463.35248  20237514.900    20237520.5154
  23673439.001      760208.250 8    598509.01745  23673438.710    23673447.4254
 00  8 22 18 36  0.0000000  0  8 23 03 21 17 15 31 29 09
  22732969.648     4147250.535 8   3224521.83746  22732969.113    22732977.3614
  22181740.263     3310744.086 8   2533155.84546  22181739.921    22181747.9494
  20808514.379     -871360.689 9   -614496.72747  20808513.876    20808520.4064
  24266002.138     7091064.225 7   5514363.22145  24266001.587    24266014.8764
  19836606.491    -2731614.951 9  -2101861.06748  19836605.774    19836612.1064
  22411680.596    -1685713.315 8  -1289857.99346  22411680.077    22411687.8104
  20233921.212    -2976081.800 9  -2278179.27848  20233921.098    20233926.6894
  23679840.054      793846.172 8    624720.41045  23679839.739    23679848.5344
 00  8 22 18 36 30.0000000  0  8 23 03 21 17 15 31 29 09
  22744270.351     4206635.651 8   3270795.89446  22744269.790    22744278.0504
  22193733.719     3373769.957 8   2582266.83546  22193733.388    22193741.4734
  20808077.234     -873657.972 9   -616286.82647  20808076.728    20808083.2664
  24285615.063     7194129.769 7   5594673.79345  24285614.509    24285627.8734
  19833260.411    -2749198.707 9  -2115562.68648  19833259.680    19833266.0144
  22412047.756    -1683783.795 8  -1288354.47546  22412047.212    22412054.9544
  20230422.015    -2994470.217 9  -2292507.89848  20230421.900    20230427.4894
  23686349.061      828051.709 8    651374.09945  23686348.772    23686357.5734
 00  8 22 18 37  0.0000000  0  8 23 03 21 17 15 31 29 09
  22755586.841     4266104.014 8   3317134.80946  22755586.256    22755594.5404
  22205805.098     3437205.234 8   2631696.84546  22205804.771    22205812.9144
  20807677.322     -875759.502 9   -617924.39047  20807676.805    20807683.3674
  24305263.965     7297384.446 7   5675131.73445  24305263.385    24305276.8324
  19830004.716    -2766307.345 9  -2128894.08448  19830004.004    19830010.3384
  22412525.742    -1681272.031 8  -1286397.25946  22412525.212    22412532.9274
  20227017.236    -3012362.289 9  -2306449.75648  20227017.127    20227022.7074
  23692965.917      862823.838 8    678469.29145  23692965.631    23692974.3804
 00  8 22 18 37 30.0000000  0  8 23 03 21 17 15 31 29 09
  22766919.144     4325655.288 8   3363538.33946  22766918.541    22766926.8464
  22217953.910     3501047.288 8   2681443.81946  22217953.561    22217961.6824
  20807314.631     -877665.410 9   -619409.52247  20807314.106    20807320.6664
  24324948.585     7400826.607 7   5755735.76245  24324948.088    24324961.5344
  19826839.694    -2782939.637 9  -2141854.30248  19826838.965    19826845.3154
  22413114.348    -1678178.798 8  -1283986.95746  22413113.824    22413121.5114
  20223706.884    -3029758.317 9  -2320005.08648  20223706.769    20223712.3724
  23699690.447      898161.574 8    706005.20345  23699690.155    23699698.9504
 00  8 22 18 38  0.0000000  0  8 23 03 21 17 15 31 29 09
  22778267.148     4385289.366 8   3410006.38246  22778266.554    22778274.8854
  22230179.623     3565293.299 8   2731505.58146  22230179.277    22230187.3434
  20806989.255     -879375.463 9   -620742.03747  20806988.731    20806995.2824
  24344668.528     7504454.738 7   5836484.69645  24344668.036    24344681.6984
  19823765.545    -2799094.479 9  -2154442.48348  19823764.823    19823771.1674
  22413813.494    -1674504.714 8  -1281124.04946  22413812.970    22413820.6574
  20220490.825    -3046658.824 9  -2333174.28948  20220490.706    20220496.2914
  23706522.355      934063.687 8    733980.89445  23706522.166    23706530.8634
 00  8 22 18 38 30.0000000  0  8 23 03 21 17 15 31 29 09
  22789630.926     4445006.024 8   3456538.77246  22789630.327    22789638.6774
  22242481.665     3629940.605 8   2781880.02146  22242481.320    22242489.3774
  20806701.096     -880889.810 9   -621922.05847  20806700.561    20806707.1004
  24364423.649     7608267.373 7   5917377.41345  24364423.121    24364436.8844
  19820782.536    -2814770.357 9  -2166657.44548  19820781.798    19820788.1404
  22414623.078    -1670250.535 8  -1277809.12046  22414622.530    22414630.2604
  20217369.008    -3063063.950 9  -2345957.49248  20217368.897    20217374.4714
  23713461.578      970529.340 8    762395.71045  23713461.542    23713469.9674
 00  8 22 18 39  0.0000000  0  8 23 03 21 17 15 31 29 09
  22801010.351     4504805.207 8   3503135.47146  22801009.809    22801018.1564
  22254859.630     3694986.941 8   2832565.40246  22254859.311    22254867.3854
  20806450.274     -882207.990 9   -622949.22147  20806449.735    20806456.2804
  24384213.569     7712263.206 7   5998412.85145  24384212.861    24384226.9364
  19817890.961    -2829965.612 9  -2178497.89448  19817890.220    19817896.5724
  22415542.973    -1665416.330 8  -1274042.21146  22415542.443    22415550.1744
  20214341.433    -3078974.016 9  -2358354.92748  20214341.313    20214346.8924
  23720507.916     1007557.664 8    791248.96145  23720507.784    23720516.1244
 00  8 22 18 39 30.0000000  0  8 23 03 21 17 15 31 29 09
  22812405.427     4564686.412 8   3549796.08746  22812404.900    22812413.2784
  22267312.887     3760429.053 8   2883559.16646  22267312.550    22267320.6534
  20806236.691     -883330.451 9   -623823.88147  20806236.162    20806242.6794
  24404038.068     7816440.633 7   6079589.80545  24404037.316    24404051.3624
  19815091.038    -2844679.234 9  -2189963.04848  19815090.309    19815096.6714
  22416573.099    -1660003.214 8  -1269824.21046  22416572.570    22416580.2564
  20211407.942    -3094389.423 9  -2370366.91948  20211407.834    20211413.3974
  23727660.979     1045147.618 8    820539.85145  23727660.762    23727669.1294
 00  8 22 18 40  0.0000000  0  8 23 03 21 17 15 31 29 09
  22823816.207     4624650.051 8   3596520.94446  22823815.671    22823824.0574
  22279841.105     3826264.741 8   2934859.63246  22279840.737    22279848.8784
  20806060.502     -884256.235 9   -624545.28047  20806059.974    20806066.5194
  24423896.898     7920798.758 7   6160907.56045  24423896.038    24423910.2504
  19812383.138    -2858909.346 9  -2201051.43948  19812382.393    19812388.7564
  22417713.366    -1654011.011 8  -1265154.98546  22417712.820    22417720.5194
  20208568.615    -3109310.166 9  -2381993.45848  20208568.499    20208574.0574
  23734920.851     1083298.630 8    850267.92545  23734920.646    23734929.0334
 00  8 22 18 40 30.0000000  0  8 23 03 21 17 15 31 29 09
  22835242.565     4684695.578 8   3643309.61346  22835241.981    22835250.3724
  22292443.637     3892491.181 8   2986464.57846  22292443.253    22292451.4304
  20805921.561     -884986.407 9   -625114.25847  20805921.021    20805927.5874
  24443789.842     8025335.597 7   6242364.59645  24443789.195    24443803.3234
  19809767.371    -2872655.218 9  -2211762.50048  19809766.644    19809772.9974
  22418963.616    -1647441.225 8  -1260035.68046  22418963.045    22418970.7474
  20205823.257    -3123737.053 9  -2393235.17248  20205823.140    20205828.6954
  23742287.258     1122009.051 8    880431.90045  23742287.086    23742295.3614
 00  8 22 18 41  0.0000000  0  8 23 03 21 17 15 31 29 09
  22846684.459     4744822.860 8   3690161.96946  22846683.860    22846692.2704
  22305120.013     3959105.765 8   3038371.96446  22305119.647    22305127.8124
  20805819.992     -885520.298 9   -625530.29047  20805819.461    20805826.0194
  24463716.544     8130050.116 7   6323960.06845  24463715.852    24463730.0364
  19807244.088    -2885915.215 9  -2222094.96148  19807243.361    19807249.6974
  22420323.653    -1640294.188 8  -1254466.57046  22420323.103    22420330.7954
  20203171.854    -3137670.331 9  -2404092.26248  20203171.725    20203177.2804
  23749759.885     1161277.974 8    911031.07045  23749759.644    23749767.9564
 00  8 22 18 41 30.0000000  0  7 23 03 21 15 31 29 09
  22858143.163     4805038.554 8   3737083.22246  22858142.547    22858150.9894
  22317871.070     4026112.778 8   3090585.13846  22317870.730    22317878.8934
  20805756.992     -885851.390 9   -625788.29447  20805756.454    20805763.0204
  19804814.811    -2898681.232 9  -2232042.49848  19804814.073    19804820.4174
  22421794.734    -1632564.032 8  -1248443.08246  22421794.165    22421801.8164
  20200615.563    -3151103.692 9  -2414559.80348  20200615.445    20200620.9834
  23757339.838     1201111.268 8    942070.00245  23757339.546    23757348.0864
 00  8 22 18 42  0.0000000  0  8 11 23 03 21 15 31 29 09
  24561481.110    -1861435.253 7  -1431769.44445  24561480.401    24561492.4324
  22869616.229     4865329.885 8   3784063.41146  22869615.645    22869624.0994
  22330693.813     4093496.462 8   3143091.82546  22330693.482    22330701.6434
  20805730.234     -885992.192 9   -625898.02447  20805729.683    20805736.2344
  19802477.354    -2910964.626 9  -2241613.96548  19802476.631    19802482.9574
  22423374.191    -1624263.952 8  -1241975.50546  22423373.642    22423381.2604
  20198151.916    -3164050.332 9  -2424648.08448  20198151.781    20198157.3304
  23765024.601     1241495.139 8    973537.96345  23765024.316    23765032.7964
 00  8 22 18 42 30.0000000  0  8 11 23 03 21 15 31 29 09
  24541973.214    -1963948.786 7  -1511649.93045  24541972.646    24541984.6534
  22881104.590     4925701.547 8   3831106.20246  22881104.031    22881112.5314
  22343588.616     4161258.734 8   3195893.51646  22343588.296    22343596.4544
  20805740.642     -885937.590 9   -625855.48547  20805740.086    20805746.6464
  19800232.940    -2922759.132 9  -2250804.48248  19800232.224    19800238.5304
  22425062.869    -1615390.134 8  -1235060.86946  22425062.302    22425069.9264
  20195781.678    -3176505.846 9  -2434353.66648  20195781.551    20195787.0994
  23772814.771     1282433.129 8   1005437.70145  23772814.523    23772823.0084
 00  8 22 18 43  0.0000000  0  8 11 23 03 21 15 31 29 09
  24522472.651    -2066423.762 7  -1591500.39745  24522472.196    24522484.1924
  22892608.507     4986154.878 8   3878212.62746  22892607.947    22892616.4714
  22356555.257     4229398.485 8   3248989.33946  22356554.929    22356563.1374
  20805788.472     -885686.215 9   -625659.61747  20805787.923    20805794.5114
  19798082.035    -2934062.110 9  -2259611.99348  19798081.313    19798087.6254
  22426860.819    -1605941.947 8  -1227698.67546  22426860.228    22426867.8524
  20193505.131    -3188469.161 9  -2443675.72248  20193504.997    20193510.5524
  23780710.523     1323925.538 7   1037769.43945  23780710.287    23780718.8194
 00  8 22 18 43 30.0000000  0  8 11 23 03 21 15 31 29 09
  24502979.601    -2168858.544 7  -1671319.50845  24502979.240    24502991.1864
  22904127.934     5046689.582 8   3925382.48146  22904127.363    22904135.8564
  22369593.151     4297912.870 8   3302377.08946  22369592.843    22369601.0644
  20805873.711     -885238.321 9   -625310.61047  20805873.164    20805879.7524
  19796024.878    -2944872.499 9  -2268035.66748  19796024.158    19796030.4434
  22428767.893    -1595920.436 8  -1219889.74346  22428767.288    22428774.8894
  20191322.090    -3199941.122 9  -2452614.90248  20191321.959    20191327.5254
  23788711.525     1365971.067 8   1070532.20845  23788711.327    23788719.8374
 00  8 22 18 44  0.0000000  0  8 11 23 03 21 15 31 29 09
  24483494.809    -2271251.376 8  -1751105.93945  24483494.480    24483506.3114
  22915662.737     5107305.370 8   3972615.50146  22915662.227    22915670.7054
  22382701.773     4366798.798 8   3356054.35146  22382701.438    22382709.6904
  20805996.295     -884594.088 9   -624808.61847  20805995.749    20806002.3474
  19794061.698    -2955189.174 9  -2276074.62948  19794060.957    19794067.2614
  22430783.801    -1585326.637 8  -1211634.85946  22430783.241    22430790.8434
  20189232.432    -3210922.225 9  -2461171.59548  20189232.305    20189237.8604
  23796817.642     1408568.492 8   1103725.00545  23796817.386    23796825.9384
 00  8 22 18 44 30.0000000  0  8 11 23 03 21 15 31 29 09
  24464018.312    -2373600.774 7  -1830858.53645  24464018.003    24464029.4814
  22927212.970     5168001.740 8   4019911.31546  22927212.411    22927220.9144
  22395880.629     4436053.621 8   3410019.05346  22395880.255    22395888.6204
  20806156.348     -883753.075 9   -624153.28647  20806155.808    20806162.3974
  19792192.606    -2965011.109 9  -2283728.08148  19792191.881    19792198.1784
  22432908.452    -1574161.624 8  -1202934.87346  22432907.921    22432915.5044
  20187236.089    -3221413.143 9  -2469346.32948  20187235.957    20187241.5024
  23805028.413     1451716.221 8   1137346.62145  23805028.072    23805036.6244
 00  8 22 18 45  0.0000000  0  8 11 23 03 21 15 31 29 09
  24444550.347    -2475904.343 7  -1910575.40745  24444550.130    24444561.7204
  22938778.609     5228779.146 8   4067270.26646  22938778.034    22938786.5164
  22409129.178     4505674.777 8   3464269.22946  22409128.793    22409137.1224
  20806353.902     -882715.034 9   -623344.43447  20806353.361    20806359.9534
  19790418.023    -2974336.740 9  -2290994.80648  19790417.289    19790423.5994
  22435141.718    -1562425.911 8  -1193790.18346  22435141.165    22435148.7964
  20185332.937    -3231414.180 9  -2477139.33848  20185332.805    20185338.3444
  23813343.781     1495413.377 8   1171396.37145  23813343.416    23813351.8854
 00  8 22 18 45 30.0000000  0  8 11 23 03 21 15 31 29 09
  24425091.591    -2578160.206 7  -1990255.13045  24425091.381    24425103.0734
  22950359.649     5289637.548 8   4114692.34246  22950359.077    22950367.6144
  22422446.889     4575659.770 8   3518802.91146  22422446.593    22422454.8824
  20806588.914     -881480.083 9   -622382.14047  20806588.359    20806594.9504
  19788738.105    -2983164.743 9  -2297873.76348  19788737.382    19788743.6594
  22437483.454    -1550119.998 8  -1184201.17346  22437482.894    22437490.5524
  20183522.959    -3240925.712 9  -2484550.91148  20183522.828    20183528.3604
  23821763.417     1539658.985 8   1205873.47345  23821762.997    23821771.4344
 00  8 22 18 46  0.0000000  0  8 11 23 03 21 15 31 29 09
  24405642.115    -2680367.104 7  -2069896.67045  24405641.887    24405653.5474
  22961955.993     5350576.434 8   4162177.12646  22961955.459    22961964.0264
  22435833.193     4646005.178 8   3573617.41746  22435832.926    22435841.3094
  20806861.417     -880048.176 9   -621266.38247  20806860.880    20806867.4524
  19787153.028    -2991494.366 9  -2304364.37948  19787152.290    19787158.5964
  22439933.401    -1537245.554 8  -1174169.15746  22439932.808    22439940.4424
  20181805.875    -3249948.963 9  -2491582.01048  20181805.757    20181811.2554
  23830287.091     1584451.160 8   1240776.48445  23830286.686    23830295.0164
 00  8 22 18 46 30.0000000  0  8 11 23 03 21 15 31 29 09
  24386202.219    -2782522.510 7  -2149498.08745  24386201.984    24386213.7434
  22973567.707     5411596.070 8   4209724.83646  22973567.161    22973575.7444
  22449287.656     4716708.512 8   3628710.84046  22449287.381    22449295.7364
  20807171.408     -878419.221 9   -619997.07847  20807170.875    20807177.4284
  19785663.102    -2999323.940 9  -2310465.33948  19785662.381    19785668.6604
  22442491.467    -1523803.023 8  -1163694.47846  22442490.887    22442498.5044
  20180181.720    -3258483.985 9  -2498232.66748  20180181.601    20180187.0994
  23838914.552     1629788.940 8   1276104.62945  23838914.123    23838922.5354
 00  8 22 18 47  0.0000000  0  8 11 23 03 21 15 31 29 09
  24366772.823    -2884624.962 7  -2229058.27445  24366772.385    24366784.1784
  22985194.643     5472696.007 8   4257335.12046  22985194.091    22985202.7154
  22462809.663     4787766.916 8   3684080.94346  22462809.410    22462817.7644
  20807518.868     -876593.266 9   -618574.26747  20807518.345    20807524.8864
  19784268.463    -3006652.763 9  -2316176.10948  19784267.746    19784274.0274
  22445157.342    -1509793.869 8  -1152778.28246  22445156.751    22445164.3904
  20178650.290    -3266531.706 9  -2504503.60748  20178650.151    20178655.6374
  23847645.582     1675670.648 8   1311856.63645  23847645.239    23847653.6314
 00  8 22 18 47 30.0000000  0  8 11 23 03 21 15 31 29 09
  24347353.716    -2986672.439 7  -2308575.55645  24347353.198    24347365.0904
  22996836.930     5533876.389 8   4305008.09146  22996836.332    22996844.9784
  22476398.774     4859177.553 8   3739725.49646  22476398.463    22476406.9324
  20807903.908     -874569.806 9   -616997.55847  20807903.388    20807909.9374
  19782969.388    -3013479.509 9  -2321495.65148  19782968.666    19782974.9544
  22447930.902    -1495219.102 8  -1141421.34646  22447930.291    22447937.8934
  20177211.472    -3274092.766 9  -2510395.32848  20177211.347    20177216.8184
  23856479.844     1722095.205 8   1348031.63945  23856479.623    23856487.8624
 00  8 22 18 48  0.0000000  0  8 11 23 03 21 15 31 29 09
  24327945.399    -3088663.001 7  -2388048.51345  24327944.974    24327956.6104
  23008494.513     5595137.081 8   4352743.64046  23008493.911    23008502.5364
  22490054.373     4930937.467 8   3795642.24946  22490054.000    22490062.4044
  20808326.580     -872348.642 9   -615266.79347  20808326.076    20808332.6254
  19781766.106    -3019802.737 9  -2326422.84248  19781765.389    19781771.6724
  22450811.820    -1480079.852 8  -1129624.55746  22450811.227    22450818.8184
  20175865.225    -3281167.441 9  -2515908.05048  20175865.099    20175870.5504
  23865417.049     1769061.141 7   1384628.50145  23865416.826    23865425.2774
 00  8 22 18 48 30.0000000  0  8 11 23 03 21 15 31 29 09
  24308548.377    -3190594.532 7  -2467475.50145  24308547.983    24308559.4344
  23020167.348     5656478.222 8   4400541.88146  23020166.770    23020175.4174
  22503775.852     5003043.918 8   3851829.00446  22503775.511    22503783.8924
  20808786.920     -869929.623 9   -613381.85847  20808786.407    20808792.9804
  19780658.857    -3025621.536 9  -2330956.96848  19780658.125    19780664.4194
  22453800.068    -1464376.732 8  -1117388.38446  22453799.478    22453807.0644
  20174611.311    -3287756.666 9  -2521042.49748  20174611.187    20174616.6484
  23874457.214     1816567.369 7   1421646.35345  23874456.938    23874465.4194
 00  8 22 18 49  0.0000000  0  8 11 23 03 21 15 31 29 09
  24289162.816    -3292465.336 7  -2546855.12145  24289162.294    24289173.7914
  23031855.502     5717899.584 8   4448402.62846  23031854.929    23031863.6434
  22517562.740     5075494.325 8   3908283.76046  22517562.435    22517570.9494
  20809284.870     -867312.904 9   -611342.86847  20809284.362    20809290.9404
  19779647.726    -3030934.976 9  -2335097.32048  19779646.985    19779653.3014
  22456895.296    -1448111.130 8  -1104713.91946  22456894.725    22456902.3434
  20173449.690    -3293861.022 9  -2525799.13048  20173449.581    20173455.0414
  23883599.848     1864612.238 8   1459083.94145  23883599.558    23883608.0884
 00  8 22 18 49 30.0000000  0  8 11 23 03 21 15 31 29 09
  24269789.182    -3394273.552 7  -2626185.97345  24269788.605    24269800.1504
  23043558.939     5779401.038 8   4496325.78846  23043558.357    23043567.0594
  22531414.478     5148285.548 8   3965004.11346  22531414.166    22531422.5964
  20809820.408     -864498.663 9   -609149.96347  20809819.871    20809826.4794
  19778733.008    -3035741.831 9  -2338842.92148  19778732.269    19778738.5974
  22460097.388    -1431284.072 8  -1091601.94446  22460096.809    22460104.4324
  20172380.212    -3299481.112 9  -2530178.40548  20172380.082    20172385.5504
  23892844.683     1913194.301 7   1496940.12345  23892844.318    23892852.8734
 00  8 22 18 50  0.0000000  0  8 11 23 03 21 15 31 29 09
  24250427.810    -3496017.139 7  -2705466.49045  24250427.339    24250438.8344
  23055277.495     5840982.271 8   4544311.13246  23055276.904    23055285.6004
  22545330.579     5221414.789 8   4021987.82746  22545330.242    22545338.7794
  20810393.540     -861486.857 9   -606803.11347  20810393.005    20810399.6254
  19777914.888    -3040041.098 9  -2342193.00448  19777914.155    19777920.4804
  22463406.083    -1413896.589 8  -1078053.28246  22463405.548    22463413.2194
  20171402.684    -3304618.025 9  -2534181.17948  20171402.549    20171408.0144
  23902191.457     1962311.790 7   1535213.50745  23902191.168    23902199.5744
 00  8 22 18 50 30.0000000  0  8 11 23 03 21 15 31 29 09
  24231079.101    -3597694.421 7  -2784695.34645  24231078.574    24231090.0034
  23067011.239     5902643.216 8   4592358.57346  23067010.651    23067019.3654
  22559310.433     5294878.776 8   4079232.40446  22559310.004    22559318.6254
  20811004.315     -858277.287 9   -604302.16647  20811003.782    20811010.4264
  19777193.564    -3043831.760 9  -2345146.77448  19777192.834    19777199.1664
  22466821.212    -1395950.350 8  -1064069.21846  22466820.674    22466828.3254
  20170516.998    -3309272.200 9  -2537807.80048  20170516.882    20170522.3434
  23911639.801     2011963.293 7   1573902.99845  23911639.507    23911647.9134
 00  8 22 18 51  0.0000000  0  8 11 23 03 21 15 31 29 09
  24211743.551    -3699302.752 7  -2863870.43245  24211743.039    24211754.5394
  23078760.235     5964384.449 8   4640468.57746  23078759.598    23078768.4074
  22573353.573     5368675.312 8   4136736.12646  22573353.153    22573361.6534
  20811652.957     -854868.613 9   -601646.06947  20811652.433    20811659.0824
  19776569.330    -3047112.175 9  -2347702.94548  19776568.596    19776574.9304
  22470342.576    -1377445.710 8  -1049650.03446  22470341.996    22470349.6324
  20169723.121    -3313444.075 9  -2541058.60148  20169722.991    20169728.4744
  23921189.569     2062148.110 7   1613008.06945  23921189.295    23921197.7424
 00  8 22 18 51 30.0000000  0  8 11 23 03 21 15 31 29 09
  24192421.322    -3800840.868 7  -2942990.85545  24192420.776    24192432.2834
  23090524.420     6026205.338 8   4688640.65146  23090523.813    23090532.5524
  22587459.249     5442801.029 8   4194496.32746  22587458.928    22587467.5114
  20812339.304     -851261.982 9   -598835.72347  20812338.768    20812345.4294
  19776042.281    -3049881.735 9  -2349861.05348  19776041.541    19776047.8764
  22473969.822    -1358384.400 8  -1034797.09446  22473969.265    22473976.8924
  20169020.808    -3317134.771 9  -2543934.46148  20169020.698    20169026.1534
  23930840.526     2112864.047 7   1652526.99545  23930840.253    23930848.5674
 00  8 22 18 52  0.0000000  0  8 11 23 03 21 15 31 29 09
  24173112.942    -3902306.312 7  -3022054.64945  24173112.462    24173123.8124
  23102303.812     6088106.273 8   4736875.10746  23102303.208    23102311.8694
  22601627.060     5517253.404 8   4252511.07046  22601626.789    22601635.3784
  20813063.398     -847456.892 9   -595870.73647  20813062.866    20813069.5274
  19775612.673    -3052139.304 9  -2351620.20548  19775611.949    19775618.2824
  22477702.780    -1338767.610 8  -1019511.31446  22477702.221    22477709.8444
  20168409.953    -3320344.854 9  -2546435.81748  20168409.810    20168415.2624
  23940592.360     2164109.856 7   1692458.80645  23940592.173    23940600.3584
 00  8 22 18 52 30.0000000  0  8 11 23 03 21 15 31 29 09
  24153818.730    -4003697.474 8  -3101060.53545  24153818.240    24153829.5894
  23114098.365     6150087.038 8   4785171.75346  23114097.783    23114106.4974
  22615856.497     5592029.442 8   4310778.00246  22615856.188    22615864.7964
  20813825.408     -843452.725 9   -592750.62247  20813824.869    20813831.5234
  19775280.691    -3053883.955 9  -2352979.68048  19775279.959    19775286.2874
  22481541.129    -1318596.822 8  -1003793.84146  22481540.583    22481548.2724
  20167890.336    -3323075.416 9  -2548563.52548  20167890.190    20167895.6344
  23950444.661     2215883.833 7   1732802.16545  23950444.423    23950452.5544
 00  8 22 18 53  0.0000000  0  8 11 23 03 21 15 31 29 09
  24134538.930    -4105012.463 7  -3180007.08845  24134538.447    24134549.6224
  23125908.042     6212147.487 8   4833530.49746  23125907.527    23125916.2974
  22630147.061     5667126.418 8   4369295.01446  22630146.675    22630155.5114
  20814625.221     -839249.735 9   -589475.57847  20814624.675    20814631.3534
  19775046.523    -3055114.725 9  -2353938.73448  19775045.781    19775052.1124
  22485484.752    -1297872.957 8   -987645.39746  22485484.223    22485491.9144
  20167461.864    -3325327.093 9  -2550318.07848  20167461.727    20167467.1634
  23960397.141     2268184.379 7   1773555.85345  23960396.892    23960405.1164
 00  8 22 18 53 30.0000000  0  8 11 23 03 21 15 31 29 09
  24115274.163    -4206248.810 7  -3258892.37945  24115273.884    24115284.8174
  23137732.934     6274287.656 8   4881951.36646  23137732.371    23137741.2624
  22644498.180     5742541.285 8   4428059.76646  22644497.731    22644506.5224
  20815462.933     -834847.586 9   -586045.34447  20815462.385    20815469.0684
  19774910.250    -3055830.774 9  -2354496.70148  19774909.525    19774915.8614
  22489533.425    -1276597.407 8   -971067.07646  22489532.880    22489540.5944
  20167124.338    -3327100.686 9  -2551700.09848  20167124.200    20167129.6544
  23970449.361     2321009.731 7   1814718.46445  23970449.014    23970457.3264
 00  8 22 18 54  0.0000000  0  8 11 23 03 21 15 31 29 09
  24096024.601    -4307405.041 8  -3337715.22645  24096024.330    24096035.3094
  23149572.954     6336507.317 8   4930434.16646  23149572.374    23149581.2574
  22658909.110     5818270.783 8   4487069.67946  22658908.734    22658917.3994
  20816338.585     -830246.041 9   -582459.73347  20816338.029    20816344.7134
  19774872.120    -3056031.184 9  -2354652.87648  19774871.401    19774877.7384
  22493686.806    -1254771.419 8   -954059.83846  22493686.205    22493693.9584
  20166877.635    -3328397.197 9  -2552710.36648  20166877.511    20166882.9384
  23980601.164     2374358.215 7   1856288.71845  23980600.835    23980609.1244
 00  8 22 18 54 30.0000000  0  8 11 23 03 21 15 31 29 09
  24076790.843    -4408478.546 8  -3416473.62745  24076790.545    24076801.4764
  23161428.159     6398806.661 8   4978979.05646  23161427.517    23161436.4634
  22673379.398     5894312.315 8   4546322.70846  22673379.076    22673387.8084
  20817252.204     -825445.019 9   -578718.68647  20817251.637    20817258.3204
  19774932.360    -3055714.649 9  -2354406.23248  19774931.630    19774937.9794
  22497944.643    -1232396.468 8   -936624.83946  22497944.008    22497951.7964
  20166721.560    -3329217.209 9  -2553349.33948  20166721.419    20166726.8754
  23990852.280     2428228.462 7   1898265.54645  23990852.038    23990860.3084
 00  8 22 18 55  0.0000000  0  8 11 23 03 21 15 31 29 09
  24057573.133    -4509467.679 7  -3495166.28245  24057572.859    24057583.6804
  23173298.547     6461185.628 8   5027586.00246  23173297.890    23173306.8774
  22687908.484     5970662.967 8   4605816.62546  22687908.158    22687916.8254
  20818203.816     -820444.418 9   -574822.12747  20818203.258    20818209.9404
  19775091.126    -3054880.311 9  -2353756.11048  19775090.400    19775096.7304
  22502306.598    -1209474.240 8   -918763.39346  22502306.018    22502313.8174
  20166656.027    -3329561.612 9  -2553617.71448  20166655.895    20166661.3564
  24001202.359     2482618.674 7   1940647.54245  24001202.033    24001210.4704
 00  8 22 18 55 30.0000000  0  8 11 23 03 21 15 31 29 09
  24038371.880    -4610370.280 7  -3573791.51445  24038371.572    24038382.3364
  23185184.054     6523644.350 8   5076255.09346  23185183.422    23185192.3944
  22702495.895     6047319.668 8   4665549.01146  22702495.529    22702504.2614
  20819193.421     -815244.024 9   -570769.87847  20819192.863    20819199.5444
  19775348.589    -3053527.451 9  -2352701.94248  19775347.872    19775354.1884
  22506772.534    -1186005.748 8   -900476.28646  22506771.926    22506779.7264
  20166680.844    -3329431.260 9  -2553516.14948  20166680.708    20166686.1624
  24011651.128     2537527.374 7   1983433.54845  24011650.810    24011659.3874
 00  8 22 18 56  0.0000000  0  8 11 23 03 21 15 31 29 09
  24019187.556    -4711184.304 8  -3652347.73645  24019187.123    24019197.8214
  23197084.779     6586182.776 8   5124986.28746  23197084.182    23197093.0974
  22717140.941     6124279.401 8   4725517.51346  22717140.571    22717149.3414
  20820221.138     -809843.314 9   -566561.54247  20820220.581    20820227.2614
  19775704.893    -3051655.089 9  -2351242.97348  19775704.145    19775710.4784
  22511342.111    -1161992.498 8   -881764.69946  22511341.523    22511349.3574
  20166795.820    -3328826.942 9  -2553045.26248  20166795.678    20166801.1274
  24022198.185     2592952.822 7   2026622.21745  24022197.898    24022206.4234
 00  8 22 18 56 30.0000000  0  8 11 23 03 21 15 31 29 09
  24000020.453    -4811907.826 8  -3730833.42545  24000020.022    24000030.6844
  23209000.599     6648800.616 8   5173779.35546  23209000.084    23209009.0304
  22731843.083     6201539.445 8   4785720.02746  22731842.732    22731851.4654
  20821287.006     -804242.213 9   -562197.06247  20821286.453    20821293.1154
  19776160.178    -3049262.604 9  -2349378.70948  19776159.430    19776165.7674
  22516015.072    -1137435.790 8   -862629.62746  22516014.527    22516022.3764
  20167000.790    -3327749.856 9  -2552205.97948  20167000.656    20167006.1184
  24032843.232     2648893.111 7   2070212.05545  24032842.949    24032851.4654
 00  8 22 18 57  0.0000000  0  8 11 23 03 21 15 31 29 09
  23980870.852    -4912538.486 8  -3809246.75245  23980870.489    23980881.1314
  23220931.592     6711498.287 8   5222634.63246  23220931.064    23220940.0174
  22746601.881     6279097.110 8   4846154.45146  22746601.575    22746610.4234
  20822391.022     -798440.791 9   -557676.48847  20822390.449    20822397.1184
  19776714.729    -3046348.541 9  -2347108.02748  19776713.996    19776720.3514
  22520791.255    -1112336.929 8   -843072.10546  22520790.681    22520798.5704
  20167295.597    -3326200.602 9  -2550998.77448  20167295.482    20167300.9174
  24043585.984     2705346.831 7   2114201.97045  24043585.822    24043594.2914
 00  8 22 18 57 30.0000000  0  8 11 23 03 21 15 31 29 09
  23961739.426    -5013074.567 8  -3887586.38745  23961739.003    23961749.6134
  23232877.734     6774275.325 8   5271551.74746  23232877.144    23232886.1474
  22761416.660     6356948.886 8   4906818.06346  22761416.370    22761425.2244
  20823533.092     -792439.059 9   -552999.83347  20823532.519    20823539.2024
  19777368.559    -3042912.604 9  -2344430.68448  19777367.833    19777374.1854
  22525670.187    -1086698.025 8   -823093.77946  22525669.604    22525677.5174
  20167680.022    -3324180.507 9  -2549424.68348  20167679.906    20167685.3364
  24054426.124     2762311.838 7   2158590.28945  24054425.957    24054434.3924
 00  8 22 18 58  0.0000000  0  8 11 23 03 21 15 31 29 09
  23942626.246    -5113514.139 8  -3965850.80145  23942625.896    23942636.3764
  23244838.961     6837131.706 8   5320530.68446  23244838.383    23244847.3794
  22776286.828     6435091.825 8   4967708.54446  22776286.544    22776295.4254
  20824713.419     -786236.363 9   -548166.57847  20824712.871    20824719.5454
  19778121.903    -3038953.729 9  -2341345.85748  19778121.192    19778127.5274
  22530651.661    -1060520.443 8   -802695.69446  22530651.075    22530658.9864
  20168153.914    -3321690.250 9  -2547484.22648  20168153.798    20168159.2254
  24065363.231     2819786.484 7   2203375.74045  24065362.946    24065371.4224
 00  8 22 18 58 30.0000000  0  8 11 23 03 21 15 31 29 09
  23923531.942    -5213854.524 7  -4044037.92545  23923531.534    23923542.1444
  23256815.378     6900067.846 8   5369571.77746  23256814.812    23256823.7504
  22791211.946     6513523.421 8   5028823.93846  22791211.662    22791220.5784
  20825932.135     -779832.189 9   -543176.33147  20825931.578    20825938.2404
  19778974.977    -3034471.021 9  -2337852.85148  19778974.271    19778980.5974
  22535735.350    -1033805.490 8   -781878.87846  22535734.805    22535742.7124
  20168717.072    -3318730.797 9  -2545178.16348  20168716.948    20168722.3984
  24076396.981     2877769.294 7   2248557.15445  24076396.668    24076405.0414
 00  8 22 18 59  0.0000000  0  8 11 23 03 21 15 31 29 09
  23904456.886    -5314094.217 8  -4122146.60745  23904456.419    23904466.9894
  23268806.924     6963083.457 8   5418674.79746  23268806.261    23268815.2654
  22806191.380     6592240.292 8   5090161.64746  22806191.032    22806199.9574
  20827189.130     -773226.679 9   -538029.19447  20827188.577    20827195.2264
  19779927.790    -3029463.950 9  -2333951.24848  19779927.061    19779933.4044
  22540920.990    -1006554.998 8   -760644.76946  22540920.485    22540928.3864
  20169369.290    -3315303.359 9  -2542507.43648  20169369.176    20169374.6344
  24087527.044     2936257.987 7   2294132.78245  24087526.762    24087535.2184
 00  8 22 18 59 30.0000000  0  8 11 23 03 21 15 31 29 09
  23885401.265    -5414231.185 8  -4200175.22145  23885400.701    23885411.3764
  23280813.583     7026178.446 8   5467839.67946  23280812.939    23280821.8764
  22821224.570     6671239.462 8   5151719.33246  22821224.226    22821233.1164
  20828484.462     -766419.809 9   -532725.15047  20828483.911    20828490.5464
  19780980.550    -3023931.730 9  -2329640.44048  19780979.823    19780986.1474
  22546208.264     -978770.508 8   -738994.55646  22546207.725    22546215.6134
  20170110.433    -3311408.743 9  -2539472.67348  20170110.313    20170115.7904
  24098753.054     2995250.859 7   2340101.26345  24098752.720    24098761.2564
 00  8 22 19  0  0.0000000  0  8 11 23 03 21 15 31 29 09
  23866365.760    -5514262.555 8  -4278121.57345  23866365.220    23866375.8344
  23292835.398     7089353.587 8   5517067.01946  23292834.826    23292843.6714
  22836310.907     6750518.653 8   5213495.21546  22836310.641    22836319.6274
  20829818.218     -759410.985 9   -527263.73947  20829817.667    20829824.2994
  19782133.482    -3017873.064 9  -2324919.41048  19782132.764    19782139.0854
  22551596.976     -950452.919 8   -716928.94146  22551596.395    22551604.3494
  20170940.383    -3307047.354 9  -2536074.18948  20170940.239    20170945.7334
  24110074.742     3054746.775 8   2386461.73845  24110074.413    24110083.0204
 00  8 22 19  0 30.0000000  0  8 11 23 03 21 15 31 29 09
  23847350.758    -5614186.602 8  -4355984.30045  23847350.193    23847360.6424
  23304872.398     7152608.304 8   5566356.36246  23304871.803    23304880.6544
  22851449.956     6830074.579 8   5275486.73246  22851449.640    22851458.6954
  20831190.354     -752200.519 9   -521645.20447  20831189.797    20831196.4344
  19783386.659    -3011287.678 9  -2319787.94948  19783385.927    19783392.2564
  22557086.651     -921604.224 8   -694449.47846  22557086.124    22557094.1044
  20171858.820    -3302220.825 9  -2532313.25748  20171858.683    20171864.1674
  24121491.611     3114742.957 7   2433212.00045  24121491.309    24121499.7964
 00  8 22 19  1  0.0000000  0  8 11 23 03 21 15 31 29 09
  23828356.434    -5714001.611 8  -4433762.04745  23828356.013    23828366.3554
  23316924.542     7215942.418 8   5615707.57746  23316923.959    23316932.7724
  22866641.072     6909903.868 8   5337691.24746  22866640.734    22866649.8644
  20832600.972     -744787.694 9   -515868.99147  20832600.431    20832607.0594
  19784740.121    -3004175.211 9  -2314245.77248  19784739.400    19784745.7344
  22562677.106     -892226.392 8   -671557.70846  22562676.584    22562684.5484
  20172865.518    -3296930.586 9  -2528190.99548  20172865.386    20172870.8794
  24133003.354     3175237.552 7   2480350.66445  24133003.100    24133011.4774
 00  8 22 19  1 30.0000000  0  8 11 23 03 21 15 31 29 09
  23809383.267    -5813705.733 8  -4511453.40045  23809382.818    23809393.1474
  23328991.736     7279355.743 8   5665120.51746  23328991.165    23329000.0264
  22881883.570     6990003.055 8   5400106.09146  22881883.242    22881892.4204
  20834050.054     -737172.801 9   -509935.31747  20834049.518    20834056.1644
  19786193.988    -2996535.172 9  -2308292.50448  19786193.244    19786199.5944
  22568367.860     -862321.456 8   -648255.20346  22568367.304    22568375.3044
  20173960.267    -3291177.725 9  -2523708.24348  20173960.138    20173965.6274
  24144609.528     3236228.448 7   2527876.03645  24144609.275    24144617.6814
 00  8 22 19  2  0.0000000  0  9 11 23 03 21 15 31 29 09 25
  23790431.161    -5913299.264 8  -4589058.58045  23790430.719    23790440.9084
  23341073.612     7342846.090 8   5714593.47746  23341073.051    23341081.8634
  22897176.382     7070366.838 8   5462727.11946  22897176.105    22897185.1644
  20835537.139     -729358.098 9   -503845.95347  20835536.598    20835543.2474
  19787747.917    -2988369.172 9  -2301929.39648  19787747.178    19787753.5284
  22574158.181     -831893.350 8   -624545.04246  22574157.615    22574165.6234
  20175142.406    -3284965.567 9  -2518867.60448  20175142.270    20175147.7684
  24156309.339     3297711.426 7   2575784.85345  24156309.005    24156317.5594
  24675634.693    -4934323.963 8  -3823203.45044  24675634.706    24675648.6344
 00  8 22 19  2 30.0000000  0  9 11 23 03 21 15 31 29 09 25
  23771500.067    -6012782.092 8  -4666577.48945  23771499.634    23771509.8804
  23353169.657     7406411.156 8   5764124.66346  23353169.067    23353177.8844
  22912518.585     7150990.211 8   5525550.40146  22912518.284    22912527.5374
  20837061.953     -721345.208 9   -497602.15847  20837061.393    20837068.0684
  19789401.689    -2979678.593 9  -2295157.52648  19789400.973    19789407.3114
  22580047.218     -800946.216 8   -600430.43346  22580046.689    22580054.6984
  20176411.313    -3278297.450 9  -2513671.67248  20176411.171    20176416.6424
  24168102.005     3359682.186 7   2624073.75545  24168101.692    24168110.2174
  24656470.442    -5035032.454 8  -3901677.64145  24656470.151    24656484.2844
 00  8 22 19  3  0.0000000  0  9 11 23 03 21 15 31 29 09 25
  23752592.186    -6112143.161 8  -4744001.54345  23752591.734    23752601.9694
  23365281.660     7470059.893 8   5813721.03145  23365281.033    23365289.8884
  22927911.268     7231878.873 8   5588580.41846  22927910.957    22927920.0844
  20838626.232     -713124.883 9   -491196.73147  20838625.670    20838632.3554
  19791157.086    -2970453.984 9  -2287969.53348  19791156.367    19791162.7174
  22586036.526     -769472.507 8   -575905.51446  22586035.973    22586043.9884
  20177768.509    -3271165.464 9  -2508114.28248  20177768.362    20177773.8434
  24179988.811     3422147.872 7   2672748.30745  24179988.512    24179996.9874
  24637297.743    -5135784.643 7  -3980185.50145  24637297.465    24637311.5984
 00  8 22 19  3 30.0000000  0  9 11 23 03 21 15 31 29 09 25
  23733707.494    -6211382.048 8  -4821330.38945  23733707.047    23733717.2074
  23377409.300     7533790.826 8   5863381.45345  23377408.707    23377417.5174
  22943353.676     7313028.592 8   5651813.85946  22943353.347    22943362.5584
  20840229.693     -704698.765 9   -484630.93847  20840229.140    20840235.8084
  19793013.961    -2960696.144 9  -2280366.03348  19793013.232    19793019.5974
  22592125.384     -737475.614 8   -550972.91146  22592124.828    22592132.8134
  20179213.401    -3263572.464 9  -2502197.66048  20179213.251    20179218.7554
  24191969.131     3485104.920 7   2721805.74945  24191968.759    24191977.3904
  24618116.769    -5236579.377 8  -4058726.44945  24618116.563    24618131.0094
 00  8 22 19  4  0.0000000  0  9 11 23 03 21 15 31 29 09 25
  23714846.340    -6310497.602 8  -4898563.10845  23714845.884    23714856.1004
  23389552.322     7597602.673 8   5913104.92745  23389551.720    23389560.6244
  22958844.853     7394434.847 8   5715247.21146  22958844.593    22958853.7374
  20841872.069     -696068.049 9   -477905.72147  20841871.523    20841878.1864
  19794972.152    -2950405.853 9  -2272347.63748  19794971.436    19794977.7924
  22598313.216     -704958.444 8   -525634.89346  22598312.654    22598320.6634
  20180745.595    -3255520.688 9  -2495923.55448  20180745.461    20180750.9564
  24204042.311     3548550.033 7   2771243.49645  24204041.950    24204050.4884
  24598928.475    -5337415.025 8  -4137299.62345  24598928.318    24598942.7744
 00  8 22 19  4 30.0000000  0  9 11 23 03 21 15 31 29 09 25
  23696008.876    -6409488.304 8  -4975698.56645  23696008.465    23696018.5314
  23401710.653     7661495.031 8   5962891.13545  23401710.083    23401718.9434
  22974384.148     7476093.950 8   5778877.56246  22974383.855    22974393.0054
  20843553.364     -687232.765 9   -471021.10547  20843552.809    20843559.4784
  19797031.688    -2939582.990 9  -2263914.25048  19797030.951    19797037.3144
  22604599.627     -671923.410 8   -499893.35546  22604599.082    22604607.1054
  20182364.810    -3247011.792 9  -2489293.25148  20182364.660    20182370.1774
  24216207.918     3612480.684 7   2821059.58045  24216207.588    24216216.2084
  24579732.401    -5438290.219 6  -4215903.72744  24579732.090    24579746.2864
 00  8 22 19  5  0.0000000  0  9 11 23 03 21 15 31 29 09 25
  23677195.590    -6508351.964 8  -5052734.99245  23677195.229    23677205.2454
  23413884.289     7725467.912 8   6012740.07945  23413883.705    23413892.6994
  22989970.963     7558002.970 8   5842702.65546  22989970.674    22989980.0054
  20845273.692     -678192.377 9   -463976.66547  20845273.128    20845279.8174
  19799192.669    -2928227.008 9  -2255065.44748  19799191.925    19799198.3034
  22610984.257     -638372.314 8   -473749.69546  22610983.671    22610991.6884
  20184070.758    -3238046.907 9  -2482307.63048  20184070.629    20184076.1354
  24228465.586     3676894.931 7   2871252.48545  24228465.342    24228473.9064
  24560529.177    -5539201.966 7  -4294535.71645  24560528.669    24560543.1844
 00  8 22 19  5 30.0000000  0  9 11 23 03 21 15 31 29 09 25
  23658406.869    -6607086.843 8  -5129671.08445  23658406.486    23658416.4734
  23426073.177     7789520.794 8   6062651.36045  23426072.597    23426081.5824
  23005604.737     7640158.696 8   5906719.99246  23005604.432    23005613.7374
  20847033.010     -668947.323 9   -456772.74047  20847032.450    20847039.1524
  19801455.104    -2916337.874 9  -2245801.20448  19801454.348    19801460.7454
  22617466.599     -604307.644 8   -447205.84446  22617466.014    22617474.0004
  20185863.186    -3228627.683 9  -2474967.98148  20185863.038    20185868.5534
  24240814.886     3741790.337 7   2921820.33445  24240814.624    24240823.1704
  24541319.770    -5640148.470 7  -4373195.21345  24541319.278    24541333.8774
 00  8 22 19  6  0.0000000  0  9 11 23 03 21 15 31 29 09 25
  23639643.086    -6705690.814 8  -5206505.17145  23639642.606    23639652.6314
  23438277.303     7853653.777 8   6112625.06245  23438276.629    23438285.7544
  23021284.895     7722558.199 8   5970927.26046  23021284.605    23021294.0494
  20848831.355     -659496.895 9   -449408.78247  20848830.795    20848837.5144
  19803819.106    -2903915.002 9  -2236121.06148  19803818.352    19803824.7634
  22624046.376     -569731.219 8   -420263.20946  22624045.760    22624053.7124
  20187741.869    -3218755.208 9  -2467275.15048  20187741.727    20187747.2464
  24253255.216     3807164.684 7   2972761.39145  24253254.901    24253263.3364
  24522103.851    -5741127.442 7  -4451879.98545  24522103.314    24522117.7864
 00  8 22 19  6 30.0000000  0  9 11 23 03 21 15 31 29 09 25
  23620904.579    -6804161.764 8  -5283235.59245  23620904.139    23620914.1294
  23450496.729     7917867.044 8   6162661.32145  23450496.069    23450505.2484
  23037010.907     7805198.064 8   6035321.84846  23037010.490    23037019.9584
  20850668.694     -649841.689 9   -441885.26347  20850668.153    20850674.8554
  19806284.776    -2890957.918 9  -2226024.64748  19806284.025    19806290.4604
  22630723.149     -534644.720 8   -392923.13746  22630722.487    22630730.4574
  20189706.568    -3208430.621 9  -2459230.02448  20189706.437    20189711.9414
  24265786.222     3873015.979 7   3024074.08945  24265785.956    24265794.3864
  24502882.347    -5842135.994 7  -4530587.80545  24502881.867    24502896.3084
 00  8 22 19  7  0.0000000  0  9 11 23 03 21 15 31 29 09 25
  23602191.772    -6902497.461 8  -5359860.64645  23602191.314    23602201.2154
  23462731.325     7982160.478 8   6212760.03845  23462730.660    23462739.8984
  23052782.028     7888075.306 8   6099901.39646  23052781.681    23052791.1074
  20852545.147     -639980.934 9   -434201.56947  20852544.594    20852551.3034
  19808852.192    -2877466.067 9  -2215511.53048  19808851.458    19808857.8874
  22637496.638     -499050.151 8   -365187.14946  22637495.948    22637503.9434
  20191757.071    -3197655.325 9  -2450833.69548  20191756.937    20191762.4454
  24278407.694     3939342.351 7   3075756.96245  24278407.448    24278415.8204
  24483655.867    -5943171.673 7  -4609316.71245  24483655.478    24483669.7634
 00  8 22 19  7 30.0000000  0  9 11 23 03 21 15 31 29 09 25
  23583505.141    -7000695.656 8  -5436378.54245  23583504.680    23583514.5244
  23474981.271     8046533.960 8   6262921.13545  23474980.609    23474989.9104
  23068597.652     7971186.899 8   6164663.55446  23068597.323    23068606.8384
  20854460.793     -629914.261 9   -426357.42247  20854460.248    20854466.9594
  19811521.416    -2863439.245 9  -2204581.55348  19811520.690    19811527.1114
  22644366.419     -462949.500 8   -337056.81646  22644365.731    22644373.7014
  20193893.074    -3186430.544 9  -2442087.11848  20193892.919    20193898.4564
  24291119.031     4006141.263 7   3127808.04945  24291118.769    24291127.1024
  24464424.557    -6044232.109 7  -4688064.89545  24464424.201    24464438.5414
 00  8 22 19  8  0.0000000  0  9 11 23 03 21 15 31 29 09 25
  23564845.031    -7098754.113 8  -5512787.55545  23564844.628    23564854.4794
  23487246.437     8110987.836 8   6313144.88345  23487245.778    23487255.1494
  23084457.379     8054529.911 8   6229606.02746  23084457.092    23084466.6024
  20856415.729     -619641.272 9   -418352.50947  20856415.164    20856421.8854
  19814292.619    -2848876.633 9  -2193234.08048  19814291.901    19814298.3194
  22651332.180     -426344.532 8   -308533.50846  22651331.499    22651339.4404
  20196114.412    -3174757.413 9  -2432991.18048  20196114.261    20196119.7674
  24303919.977     4073410.868 7   3180225.92045  24303919.676    24303928.1734
  24445189.066    -6145314.653 7  -4766830.43445  24445188.769    24445202.9244
 00  8 22 19  8 30.0000000  0  9 11 23 03 21 15 31 29 09 25
  23546211.929    -7196670.971 8  -5589086.22945  23546211.487    23546221.4084
  23499526.927     8175521.992 8   6363431.18045  23499526.296    23499535.6544
  23100360.663     8138101.100 8   6294726.31546  23100360.323    23100369.8524
  20858409.821     -609162.228 9   -410187.03547  20858409.254    20858415.9854
  19817165.765    -2833778.178 9  -2181469.06748  19817165.052    19817171.4664
  22658393.454     -389237.631 8   -279619.10346  22658392.761    22658400.6574
  20198420.800    -3162637.314 9  -2423546.95148  20198420.654    20198426.1524
  24316810.179     4141148.957 7   3233008.83745  24316809.863    24316818.3694
  24425949.778    -6246417.144 8  -4845611.33745  24425949.457    24425963.3924
 00  8 22 19  9  0.0000000  0  9 11 23 03 21 15 31 29 09 25
  23527606.280    -7294443.576 8  -5665272.49745  23527605.838    23527615.7474
  23511822.728     8240136.573 8   6413780.15845  23511822.064    23511831.4514
  23116306.688     8221897.691 8   6360022.22846  23116306.403    23116315.8564
  20860443.232     -598476.546 9   -401860.54547  20860442.656    20860449.4074
  19820141.021    -2818143.184 9  -2169285.97348  19820140.302    19820146.7224
  22665549.899     -351630.459 8   -250314.86046  22665549.207    22665557.1334
  20200812.031    -3150071.268 9  -2413755.24048  20200811.889    20200817.3914
  24329789.109     4209353.252 7   3286155.03945  24329788.778    24329797.2464
  24406707.360    -6347536.452 7  -4924405.41845  24406707.029    24406720.9684
 00  8 22 19  9 30.0000000  0  9 11 23 03 21 15 31 29 09 25
  23509028.443    -7392070.033 8  -5741344.88245  23509027.989    23509037.7834
  23524133.857     8304831.576 8   6464191.78645  23524133.191    23524142.6024
  23132294.988     8305916.218 8   6425491.06946  23132294.635    23132304.2224
  20862516.077     -587583.701 9   -393372.62747  20862515.501    20862522.2794
  19823218.448    -2801971.363 9  -2156684.56948  19823217.722    19823224.1684
  22672801.078     -313525.264 8   -220622.53846  22672800.437    22672808.3744
  20203287.896    -3137060.569 9  -2403617.03548  20203287.755    20203293.2534
  24342856.175     4278021.848 7   3339663.02445  24342855.782    24342864.4004
  24387462.017    -6448670.474 8  -5003210.92845  24387461.681    24387475.6704
 00  8 22 19 10  0.0000000  0  9 11 23 03 21 15 31 29 09 25
  23490478.837    -7489547.782 8  -5817301.41345  23490478.390    23490488.1334
  23536460.348     8369607.394 8   6514666.40646  23536459.708    23536469.0714
  23148325.121     8390154.054 8   6491130.82846  23148324.749    23148334.2824
  20864628.374     -576483.572 9   -384723.19047  20864627.819    20864634.5904
  19826398.038    -2785262.473 9  -2143664.66948  19826397.311    19826403.7534
  22680146.685     -274923.737 8   -190543.48246  22680146.052    22680154.0714
  20205848.179    -3123606.275 9  -2393133.17848  20205848.023    20205853.5204
  24356011.307     4347152.638 7   3393531.16445  24356010.993    24356019.5664
  24368214.571    -6549816.355 8  -5082025.73645  24368214.286    24368228.0284
 00  8 22 19 10 30.0000000  0  9 11 23 03 21 15 31 29 09 25
  23471958.027    -7586874.843 8  -5893140.52245  23471957.573    23471967.1694
  23548802.185     8434463.917 8   6565203.91245  23548801.554    23548810.9294
  23164396.175     8474607.898 8   6556938.87946  23164395.911    23164405.4484
  20866780.116     -565176.068 9   -375912.16047  20866779.549    20866786.3364
  19829679.904    -2768016.220 9  -2130226.04748  19829679.169    19829685.6274
  22687586.341     -235828.003 8   -160079.32246  22687585.761    22687593.8194
  20208492.570    -3109710.076 9  -2382304.97848  20208492.432    20208497.9214
  24369254.020     4416743.236 7   3447757.60945  24369253.597    24369262.4294
  24348965.057    -6650972.071 7  -5160848.17645  24348964.613    24348978.2164
 00  8 22 19 11  0.0000000  0  9 11 23 03 21 15 31 29 09 25
  23453466.239    -7684048.935 8  -5968860.44245  23453465.794    23453475.3014
  23561159.357     8499401.067 8   6615804.24145  23561158.729    23561168.0464
  23180507.912     8559274.883 8   6622913.01946  23180507.618    23180517.1894
  20868971.443     -553660.760 9   -366939.20747  20868970.882    20868977.6694
  19833064.129    -2750231.893 9  -2116368.14448  19833063.406    19833069.8794
  22695119.737     -196239.906 8   -129231.50846  22695119.136    22695127.2344
  20211220.829    -3095372.866 9  -2371133.13248  20211220.703    20211226.2094
  24382583.787     4486791.226 7   3502340.45345  24382583.389    24382592.1984
  24329714.307    -6752134.713 7  -5239675.97645  24329713.890    24329727.4454
 00  8 22 19 11 30.0000000  0  9 11 23 03 21 15 31 29 09 25
  23435004.111    -7781067.738 8  -6044459.35745  23435003.674    23435013.0674
  23573531.855     8564418.785 8   6666467.34445  23573531.264    23573540.5294
  23196659.592     8644151.784 8   6689050.72846  23196659.267    23196668.8014
  20871202.383     -541936.990 9   -357803.81747  20871201.828    20871208.6244
  19836550.836    -2731909.357 9  -2102090.85648  19836550.112    19836556.5844
  22702746.398     -156161.701 8    -98001.79346  22702745.786    22702753.9124
  20214032.694    -3080596.400 9  -2359619.00848  20214032.567    20214038.0764
  24396000.239     4557294.688 7   3557278.21445  24395999.811    24396008.5554
  24310462.725    -6853301.651 7  -5318507.07845  24310462.317    24310476.0694
 00  8 22 19 12  0.0000000  0  9 11 23 03 21 15 31 29 09 25
  23416571.876    -7877928.830 8  -6119935.37545  23416571.475    23416580.8654
  23585919.830     8629517.516 8   6717193.57845  23585919.188    23585928.4954
  23212850.632     8729235.766 8   6755349.81346  23212850.308    23212859.8954
  20873473.063     -530004.588 9   -348505.85647  20873472.516    20873479.2944
  19840139.956    -2713048.311 9  -2087393.95148  19840139.227    19840145.7294
  22710465.887     -115595.484 8    -66391.80646  22710465.322    22710473.4754
  20216928.010    -3065381.446 9  -2347763.20548  20216927.872    20216933.4004
  24409502.836     4628251.471 7   3612569.20445  24409502.464    24409511.1254
  24291210.786    -6954470.320 7  -5397339.64045  24291210.346    24291223.8334
 00  8 22 19 12 30.0000000  0  9 11 23 03 21 15 31 29 09 25
  23398170.156    -7974630.107 8  -6195286.85645  23398169.684    23398179.1064
  23598323.167     8694697.228 8   6767982.91145  23598322.552    23598331.8054
  23229080.475     8814523.727 8   6821807.81046  23229080.073    23229089.7434
  20875783.465     -517863.501 9   -339045.28747  20875782.916    20875789.6994
  19843831.670    -2693648.317 9  -2072277.09148  19843830.932    19843837.4474
  22718277.960      -74543.087 8    -34402.98846  22718277.374    22718285.5504
  20219906.467    -3049729.566 9  -2335566.94448  20219906.330    20219911.8604
  24423091.177     4699659.489 7   3668211.80545  24423091.056    24423099.5974
  24271959.047    -7055637.741 7  -5476171.06945  24271958.702    24271972.2654
 00  8 22 19 13  0.0000000  0  9 11 23 03 21 15 31 29 09 25
  23379799.193    -8071169.510 8  -6270512.22245  23379798.732    23379808.1244
  23610741.893     8759957.784 8   6818835.25345  23610741.263    23610750.4854
  23245348.479     8900012.389 8   6888422.21946  23245348.061    23245357.8034
  20878133.674     -505513.110 9   -329421.62347  20878133.129    20878139.9024
  19847625.983    -2673709.177 9  -2056740.12048  19847625.255    19847631.7634
  22726182.084      -33006.892 8     -2037.18146  22726181.442    22726189.6714
  20222967.805    -3033642.194 9  -2323031.33448  20222967.671    20222973.1924
  24436765.131     4771515.968 7   3724203.87345  24436764.760    24436773.3074
  24252707.921    -7156801.720 7  -5554999.79745  24252707.731    24252721.1554
 00  8 22 19 13 30.0000000  0  9 11 23 03 21 15 31 29 09 25
  23361459.504    -8167544.428 8  -6345609.39345  23361459.009    23361468.4184
  23623176.023     8825299.652 8   6869750.93045  23623175.466    23623184.7144
  23261654.175     8985699.100 8   6955190.94546  23261653.811    23261663.5744
  20880523.783     -492953.050 9   -319634.58447  20880523.225    20880530.0054
  19851522.980    -2653230.464 9  -2040782.69748  19851522.257    19851528.7814
  22734177.885        9011.254 8     30704.17946  22734177.256    22734185.5224
  20226111.802    -3017120.445 9  -2310157.25148  20226111.664    20226117.1944
  24450524.128     4843819.048 7   3780543.92845  24450523.784    24450532.2184
  24233458.043    -7257959.703 7  -5633823.97645  24233457.846    24233471.0574
 00  8 22 19 14  0.0000000  0  9 11 23 03 21 15 31 29 09 25
  23343151.564    -8263752.809 8  -6420576.79845  23343151.093    23343160.5584
  23635625.675     8890722.680 8   6920729.87945  23635625.077    23635634.3574
  23277996.958     9071580.639 8   7022111.48246  23277996.568    23278006.3444
  20882953.836     -480183.038 9   -309683.94447  20882953.282    20882960.0834
  19855522.627    -2632212.198 9  -2024404.84948  19855521.888    19855528.4464
  22742264.944       51509.054 8     63819.30046  22742264.358    22742272.6634
  20229338.130    -3000165.960 9  -2296945.96848  20229337.991    20229343.5224
  24464367.515     4916566.332 7   3837230.11645  24464367.031    24464375.6794
  24214209.671    -7359109.253 7  -5712641.39345  24214209.442    24214222.7384
 00  8 22 19 14 30.0000000  0  9 11 23 03 21 15 31 29 09 25
  23324875.746    -8359792.252 8  -6495412.57645  23324875.245    23324884.7094
  23648090.782     8956227.078 8   6971772.21145  23648090.178    23648099.5194
  23294376.262     9157653.944 8   7089181.44146  23294375.939    23294385.7934
  20885423.912     -467202.780 9   -299569.47147  20885423.382    20885430.1704
  19859624.997    -2610654.220 9  -2007606.44548  19859624.268    19859630.8284
  22750442.930       94484.407 8     97306.54146  22750442.327    22750450.6264
  20232646.609    -2982779.807 9  -2283398.32348  20232646.460    20232651.9944
  24478294.824     4989755.662 7   3894260.74045  24478294.329    24478303.0954
  24194963.515    -7460247.543 8  -5791450.15745  24194963.336    24194976.7024
 00  8 22 19 15  0.0000000  0  9 11 23 03 21 15 31 29 09 25
  23306632.499    -8455660.754 8  -6570115.14345  23306631.925    23306641.3644
  23660571.313     9021812.450 8   7022877.63945  23660570.788    23660580.0754
  23310791.523     9243915.905 8   7156398.40546  23310791.185    23310800.9644
  20887934.088     -454011.751 9   -289290.76847  20887933.535    20887940.3524
  19863830.008    -2588556.751 9  -1990387.65848  19863829.267    19863835.8374
  22758711.214      137934.613 8    131163.79246  22758710.653    22758718.9884
  20236036.941    -2964963.686 9  -2269515.64148  20236036.783    20236042.2994
  24492305.823     5063384.219 7   3951633.62645  24492305.509    24492313.9844
  24175720.005    -7561372.161 7  -5870248.23645  24175719.799    24175732.8884
 00  8 22 19 15 30.0000000  0  8 11 23 03 21 15 31 29 25
  23288422.089    -8551355.947 8  -6644682.66445  23288421.642    23288431.0314
  23673067.204     9087479.034 8   7074046.36645  23673066.677    23673075.8644
  23327242.104     9330363.318 8   7223759.87046  23327241.697    23327251.5704
  20890484.335     -440610.193 9   -278848.00647  20890483.789    20890490.6094
  19868137.813    -2565919.363 9  -1972748.15748  19868137.065    19868143.6104
  22767069.528      181857.622 8    165389.45346  22767068.986    22767077.3384
  20239508.765    -2946719.108 9  -2255299.09248  20239508.610    20239514.1204
  24156479.475    -7662480.820 8  -5949033.85145  24156479.248    24156492.4114
 00  8 22 19 16  0.0000000  0  8 11 23 03 21 15 31 29 25
  23270245.117    -8646876.036 8  -6719113.74845  23270244.655    23270254.0604
  23685578.587     9153226.540 7   7125278.11345  23685577.987    23685587.1664
  23343727.203     9416992.533 8   7291263.00346  23343726.844    23343736.6544
  20893074.611     -426998.252 9   -268241.31747  20893074.076    20893080.8914
  19872548.255    -2542742.433 9  -1954688.23548  19872547.511    19872554.0394
  22775517.351      226250.653 8    199981.37246  22775516.757    22775525.1154
  20243061.759    -2928048.044 9  -2240750.22048  20243061.620    20243067.1074
  24137242.334    -7763571.420 8  -6027805.46245  24137242.215    24137255.0744
 00  8 22 19 16 30.0000000  0  8 11 23 03 21 15 31 29 25
  23252102.310    -8742217.242 8  -6793405.44345  23252101.735    23252111.0794
  23698105.592     9219056.350 7   7176574.04245  23698105.033    23698114.2224
  23360246.564     9503801.864 8   7358906.46246  23360246.168    23360256.1254
  20895705.348     -413173.766 9   -257469.00047  20895704.805    20895711.6284
  19877061.676    -2519024.422 9  -1936206.68948  19877060.927    19877067.4354
  22784054.408      271112.829 8    234938.84546  22784053.808    22784062.1294
  20246695.974    -2908950.268 9  -2225868.84048  20246695.824    20246701.3114
  24118009.384    -7864640.090 8  -6106559.90145  24118009.270    24118022.1984
 00  8 22 19 17  0.0000000  0  8 11 23 03 21 15 31 29 25
  23233993.729    -8837377.724 8  -6867556.31445  23233993.171    23234002.4414
  23710648.215     9284968.296 7   7227933.91145  23710647.560    23710656.9534
  23376799.620     9590787.985 8   7426687.70246  23376799.169    23376809.1634
  20898376.464     -399136.920 9   -246531.20947  20898375.925    20898382.7794
  19881678.021    -2494765.523 9  -1917303.66948  19881677.281    19881683.7854
  22792680.174      316441.637 8    270259.95046  22792679.646    22792687.9614
  20250411.046    -2889427.399 9  -2210656.21948  20250410.902    20250416.3804
  24098781.145    -7965684.152 8  -6185295.23045  24098781.002    24098793.8454
 00  8 22 19 17 30.0000000  0  8 11 23 03 21 15 31 29 25
  23215919.962    -8932355.052 8  -6941564.48445  23215919.483    23215928.6864
  23723206.559     9350962.508 7   7279357.94145  23723205.847    23723215.2564
  23393385.688     9677947.834 8   7494604.30546  23393385.325    23393395.3644
  20901088.113     -384887.232 9   -235427.56947  20901087.558    20901094.4344
  19886397.263    -2469965.754 9  -1897979.19148  19886396.524    19886403.0244
  22801394.339      362234.660 8    305942.76446  22801393.774    22801402.1464
  20254206.748    -2869481.018 9  -2195113.59248  20254206.614    20254212.0814
  24079557.943    -8066701.226 8  -6264009.52845  24079557.770    24079570.5304
 00  8 22 19 18  0.0000000  0  8 11 23 03 21 15 31 29 25
  23197881.535    -9027147.166 8  -7015428.32445  23197881.072    23197890.1324
  23735780.517     9417038.924 7   7330845.98145  23735779.861    23735789.3174
  23410004.170     9765278.157 8   7562653.72646  23410003.751    23410013.8924
  20903840.351     -370424.296 9   -224157.76847  20903839.793    20903846.6674
  19891219.418    -2444625.228 9  -1878233.34548  19891218.686    19891225.1854
  22810196.428      408489.893 8    341985.74346  22810195.880    22810204.2944
  20258082.710    -2849112.707 9  -2179242.18648  20258082.561    20258088.0364
  24060340.500    -8167688.617 8  -6342700.68945  24060340.323    24060353.0254
 00  8 22 19 18 30.0000000  0  8 11 23 03 21 15 31 29 25
  23179878.786    -9121751.852 8  -7089146.10545  23179878.314    23179887.4144
  23748370.095     9483197.442 8   7382398.02545  23748369.456    23748378.8814
  23426654.566     9852775.707 8   7630833.47846  23426654.145    23426664.2724
  20906633.064     -355748.601 9   -212722.17647  20906632.509    20906639.3714
  19896144.430    -2418744.055 9  -1858066.21248  19896143.696    19896150.2324
  22819085.982      455204.682 8    378386.82346  22819085.446    22819093.8524
  20262038.657    -2828324.133 9  -2163043.30348  20262038.503    20262043.9884
  24041128.998    -8268644.286 8  -6421367.16045  24041128.883    24041141.4544
 00  8 22 19 19  0.0000000  0  8 11 23 03 21 15 31 29 25
  23161912.096    -9216166.552 8  -7162715.86045  23161911.672    23161920.6954
  23760975.437     9549438.466 8   7434014.34045  23760974.789    23760984.2394
  23443336.280     9940437.996 8   7699141.61346  23443335.877    23443346.0184
  20909466.393     -340859.344 9   -201120.17747  20909465.858    20909472.7094
  19901172.413    -2392321.990 9  -1837477.60948  19901171.666    19901178.2104
  22828062.679      502376.996 8    415144.40246  22828062.092    22828070.5624
  20266074.384    -2807116.217 9  -2146517.66348  20266074.229    20266079.7254
  24021924.194    -8369564.839 8  -6500006.27945  24021924.119    24021936.5564
 00  8 22 19 19 30.0000000  0  8 11 23 03 21 15 31 29 25
  23143982.025    -9310389.504 8  -7236136.20846  23143981.516    23143990.5384
  23773596.308     9615761.260 8   7485694.40045  23773595.751    23773605.1014
  23460048.474    10028261.084 8   7767575.01246  23460048.117    23460058.4064
  20912340.389     -325756.449 9   -189351.70347  20912339.848    20912346.7064
  19906303.224    -2365359.528 9  -1816467.92148  19906302.464    19906309.0294
  22837125.790      550003.784 8    452256.11546  22837125.237    22837133.6754
  20270189.462    -2785491.446 9  -2129667.19648  20270189.310    20270194.8184
  24002726.437    -8470448.664 7  -6578616.74045  24002726.259    24002738.7754
 00  8 22 19 20  0.0000000  0  8 11 23 03 21 15 31 29 25
  23126088.999    -9404417.568 8  -7309404.68546  23126088.482    23126097.4794
  23786232.931     9682166.688 8   7537438.81445  23786232.294    23786241.7184
  23476791.014    10116242.571 8   7836131.85346  23476790.556    23476800.8854
  20915255.237     -310439.063 9   -177416.09247  20915254.690    20915261.5394
  19911536.979    -2337855.939 9  -1795036.57648  19911536.220    19911542.8034
  22846275.097      598083.463 8    489720.73346  22846274.533    22846283.0174
  20274383.713    -2763450.464 9  -2112492.41348  20274383.566    20274389.0754
  23983536.255    -8571292.506 7  -6657196.13845  23983536.054    23983548.3884
 00  8 22 19 20 30.0000000  0  8 11 23 03 21 15 31 29 25
  23108233.382    -9498249.105 8  -7382520.02646  23108232.824    23108241.7594
  23798885.217     9748654.562 8   7589247.50645  23798884.595    23798893.9454
  23493562.867    10204379.022 8   7904809.44545  23493562.425    23493572.8564
  20918210.881     -294907.128 9   -165313.29147  20918210.324    20918217.1924
  19916873.606    -2309811.848 9  -1773184.06348  19916872.856    19916879.4484
  22855510.061      646612.956 8    527535.86146  22855509.470    22855517.9644
  20278656.852    -2740995.104 9  -2094994.73648  20278656.708    20278662.2014
  23964354.120    -8672093.995 7  -6735742.44045  23964353.913    23964366.3594
 00  8 22 19 21  0.0000000  0  8 11 23 03 21 15 31 29 25
  23090415.664    -9591881.490 8  -7455480.19446  23090415.078    23090423.9854
  23811553.253     9815225.249 8   7641120.69945  23811552.695    23811562.0624
  23510363.785    10292667.874 8   7973605.77745  23510363.275    23510373.8034
  20921207.509     -279159.811 9   -153042.66347  20921206.950    20921213.8034
  19922313.094    -2281227.272 9  -1750910.38848  19922312.360    19922318.9554
  22864830.136      695590.071 8    565699.78946  22864829.518    22864838.0414
  20283008.546    -2718126.837 9  -2077175.31248  20283008.395    20283013.9074
  23945180.701    -8772849.893 8  -6814253.28345  23945180.547    23945192.8044
 00  8 22 19 21 30.0000000  0  8 11 23 03 21 15 31 29 25
  23072636.235    -9685312.201 8  -7528283.20146  23072635.727    23072644.5354
  23824237.079     9881878.688 8   7693058.39145  23824236.524    23824245.9064
  23527193.048    10381105.629 8   8042518.14545  23527192.653    23527203.1114
  20924245.159     -263196.916 9   -140604.05247  20924244.607    20924251.4604
  19927855.442    -2252102.203 9  -1728215.54648  19927854.703    19927861.2824
  22874234.985      745012.465 8    604210.66946  22874234.367    22874242.9274
  20287438.529    -2694847.144 9  -2059035.30048  20287438.389    20287443.8994
  23926016.291    -8873558.461 8  -6892727.27245  23926016.124    23926028.2244
 00  8 22 19 22  0.0000000  0  8 11 23 03 21 15 31 29 25
  23054895.688    -9778539.164 8  -7600927.44646  23054895.148    23054903.9064
  23836936.551     9948614.898 8   7745060.56145  23836935.972    23836945.4724
  23544050.058    10469689.312 8   8111544.21645  23544049.644    23544060.1994
  20927323.839     -247018.364 9   -127997.40347  20927323.296    20927330.1334
  19933500.640    -2222436.579 9  -1705099.49848  19933499.895    19933506.4634
  22883724.120      794877.872 8    643066.77146  22883723.518    22883732.0244
  20291946.534    -2671157.384 9  -2040575.75648  20291946.388    20291951.9334
  23906861.361    -8974216.849 8  -6971162.09845  23906861.184    23906873.3294
 00  8 22 19 22 30.0000000  0  8 11 23 03 21 15 31 29 25
  23037194.372    -9871559.611 8  -7673410.77746  23037193.813    23037202.4784
  23849651.994    10015434.311 8   7797127.57145  23849651.390    23849660.8584
  23560934.329    10558416.282 8   8180681.92745  23560933.874    23560944.5164
  20930443.688     -230623.511 9   -115222.20547  20930443.126    20930449.9624
  19939248.734    -2192230.310 9  -1681562.16748  19939247.986    19939254.5424
  22893297.124      845183.900 8    682266.19046  22893296.511    22893304.9954
  20296532.332    -2647058.855 9  -2021797.69048  20296532.183    20296537.7324
  23887716.806    -9074821.895 8  -7049555.41745  23887716.588    23887728.5984
 00  8 22 19 23  0.0000000  0  8 11 23 03 21 15 31 29 25
  23019532.858    -9964371.251 8  -7745731.40046  23019532.230    23019540.8734
  23862383.119    10082336.793 8   7849259.31045  23862382.557    23862392.1004
  23577845.313    10647283.160 8   8249928.68545  23577844.867    23577855.4544
  20933604.769     -214012.007 9   -102278.19647  20933604.207    20933611.0484
  19945099.604    -2161483.882 9  -1657603.93348  19945098.855    19945105.3984
  22902953.489      895927.954 8    721806.94646  22902952.825    22902961.3164
  20301195.587    -2622553.264 9  -2002702.43848  20301195.445    20301200.9934
  23868582.555    -9175371.473 8  -7127905.49145  23868582.285    23868594.3654
 00  8 22 19 23 30.0000000  0  8 11 23 03 21 15 31 29 25
  23001911.432   -10056971.670 8  -7817887.43046  23001910.879    23001919.5294
  23875130.154    10149322.719 8   7901456.06145  23875129.651    23875139.1294
  23594782.336    10736287.163 8   8319282.26445  23594781.972    23594792.6234
  20936807.124     -197183.519 9    -89165.11047  20936806.560    20936813.3954
  19951053.274    -2130197.256 9  -1633224.76548  19951052.544    19951059.0664
  22912692.746      947107.755 8    761687.23446  22912692.083    22912700.5754
  20305936.026    -2597642.109 9  -1983291.15748  20305935.883    20305941.4314
  23849459.767    -9275862.181 8  -7206209.71845  23849459.463    23849471.4324
 00  8 22 19 24  0.0000000  0  8 11 23 03 21 15 31 29 25
  22984330.658   -10149358.830 8  -7889877.28746  22984330.059    22984338.7084
  23887893.012    10216391.807 8   7953717.63545  23887892.506    23887901.9534
  23611744.778    10825424.926 8   8388740.07845  23611744.409    23611755.0794
  20940050.844     -180137.720 9    -75882.69447  20940050.305    20940057.1054
  19957109.679    -2098370.786 9  -1608424.94748  19957108.951    19957115.4874
  22922514.360      998720.550 8    801904.93046  22922513.714    22922522.2034
  20310753.304    -2572327.249 9  -1963565.30748  20310753.148    20310758.7154
  23830348.412    -9376291.868 8  -7284466.36745  23830348.094    23830360.0574
 00  8 22 19 24 30.0000000  0  8 11 23 03 21 15 31 29 25
  22966790.974   -10241530.063 8  -7961698.88846  22966790.402    22966799.0214
  23900671.834    10283544.574 7   8006044.39145  23900671.300    23900680.8434
  23628732.293    10914693.574 8   8458299.89045  23628731.920    23628742.6184
  20943336.050     -162873.943 9    -62430.41847  20943335.491    20943342.3394
  19963268.797    -2066004.548 9  -1583204.52948  19963268.047    19963274.6024
  22932417.962     1050764.262 8    842458.40246  22932417.348    22932425.8564
  20315647.185    -2546609.734 9  -1943525.69648  20315647.020    20315652.5954
  23811249.273    -9476657.657 8  -7362673.27545  23811249.105    23811260.8314
 00  8 22 19 25  0.0000000  0  8 11 23 03 21 15 31 29 25
  22949292.776   -10333483.103 8  -8033350.47946  22949292.176    22949300.7724
  23913466.496    10350780.910 7   8058436.26745  23913465.932    23913475.5264
  23645743.917    11004090.001 8   8527959.26145  23645743.562    23645754.3054
  20946662.805     -145391.764 9    -48807.96547  20946662.277    20946669.1184
  19969530.526    -2033098.938 9  -1557563.82148  19969529.792    19969536.3594
  22942403.115     1103236.296 8    883345.61746  22942402.525    22942411.0384
  20320617.384    -2520491.314 9  -1923173.69548  20320617.229    20320622.8014
  23792162.636    -9576957.360 8  -7440828.63045  23792162.419    23792174.2034
 00  8 22 19 25 30.0000000  0  8 11 23 03 21 15 31 29 25
  22931836.544   -10425215.549 8  -8104830.17346  22931835.991    22931844.5104
  23926277.092    10418101.030 7   8110893.42245  23926276.483    23926286.0814
  23662779.408    11093611.252 8   8597715.88245  23662778.999    23662789.8444
  20950031.208     -127690.810 9    -35015.03347  20950030.676    20950037.5164
  19975894.907    -1999654.063 9  -1531502.90648  19975894.176    19975900.7624
  22952469.223     1156133.985 8    924564.52646  22952468.637    22952477.1724
  20325663.479    -2493973.758 9  -1902510.67748  20325663.316    20325668.9244
  23773089.344    -9677187.673 7  -7518929.99345  23773089.113    23773100.6694
 00  8 22 19 26  0.0000000  0  8 11 23 03 21 15 31 29 25
  22914422.766   -10516724.886 8  -8176136.02646  22914422.266    22914430.7954
  23939103.733    10485505.335 7   8163416.19445  23939103.094    23939112.8584
  23679838.102    11183254.560 8   8667567.65545  23679837.739    23679848.4494
  20953441.395     -109770.340 9    -21051.04947  20953440.845    20953447.7124
  19982361.875    -1965670.023 9  -1505021.86748  19982361.139    19982367.7464
  22962615.930     1209455.019 8    966113.29946  22962615.302    22962623.8894
  20330785.366    -2467058.238 9  -1881537.56248  20330785.220    20330790.8284
  23754029.475    -9777346.361 8  -7596975.46445  23754029.288    23754041.0244
 00  8 22 19 26 30.0000000  0  8 11 23 03 21 15 31 29 25
  22897051.878   -10608008.900 8  -8247266.29146  22897051.391    22897059.9024
  23951946.323    10552993.355 7   8216004.19145  23951945.713    23951955.5394
  23696919.344    11273016.600 8   8737511.87345  23696918.974    23696929.8464
  20956893.323      -91630.412 9     -6916.05147  20956892.775    20956899.6524
  19988931.333    -1931147.431 9  -1478121.17148  19988930.591    19988937.2064
  22972842.673     1263196.418 8   1007989.64746  22972842.063    22972850.6874
  20335982.608    -2439746.566 9  -1860255.74648  20335982.452    20335988.0734
  23734983.884    -9877431.121 8  -7674963.42045  23734983.704    23734995.2114
 00  8 22 19 27  0.0000000  0  8 11 23 03 21 15 31 29 25
  22879724.358   -10699065.058 8  -8318219.02546  22879723.897    22879732.4114
  23964804.911    10620565.597 7   8268657.82545  23964804.271    23964814.1794
  23714022.684    11362894.205 8   8807546.23145  23714022.343    23714033.1504
  20960387.099      -73270.582 9      7390.29747  20960386.566    20960393.4324
  19995603.253    -1896086.441 9  -1450800.95248  19995602.512    19995609.1264
  22983149.009     1317356.281 8   1050192.05246  22983148.408    22983157.0284
  20341254.949    -2412040.305 9  -1838666.46248  20341254.802    20341260.3954
  23715952.828    -9977438.836 8  -7752891.27945  23715952.638    23715964.2464
 00  8 22 19 27 30.0000000  0  8 11 23 03 21 15 31 29 25
  22862440.672   -10789891.007 8  -8388992.35746  22862440.203    22862448.7034
  23977679.622    10688222.168 7   8321377.17645  23977678.938    23977688.8344
  23731147.365    11452884.500 8   8877668.33945  23731147.138    23731158.0074
  20963922.807      -54690.372 9     21868.36947  20963922.269    20963929.1364
  20002377.532    -1860487.542 9  -1423061.58748  20002376.783    20002383.4424
  22993534.403     1371931.527 8   1092718.13046  22993533.808    22993542.3934
  20346602.088    -2383941.098 9  -1816770.99148  20346601.921    20346607.5294
  23696937.074   -10077366.788 8  -7830757.02445  23696936.942    23696948.4874
 00  8 22 19 28  0.0000000  0  8 11 23 03 21 15 31 29 25
  22845201.178   -10880484.525 8  -8459584.59346  22845200.697    22845209.2364
  23990570.299    10755962.962 7   8374162.13045  23990569.654    23990579.4264
  23748293.066    11542984.386 8   8947875.88645  23748292.759    23748303.5334
  20967500.534      -35889.438 9     36518.42747  20967499.992    20967506.8734
  20009254.120    -1824350.914 9  -1394903.20648  20009253.382    20009260.0474
  23003998.362     1426919.673 8   1135565.95446  23003997.724    23004006.4544
  20352023.712    -2355450.331 9  -1794570.40448  20352023.557    20352029.1524
  23677936.768   -10177212.634 8  -7908558.77845  23677936.705    23677948.1054
 00  8 22 19 28 30.0000000  0  8 11 23 03 21 15 31 29 25
  22828006.435   -10970842.997 8  -8529993.68346  22828005.981    22828014.4574
  24003477.060    10823788.102 8   8427012.83945  24003476.469    24003486.1134
  23765458.891    11633190.723 8   9018166.36245  23765458.594    23765469.4644
  20971120.270      -16867.702 9     51340.53947  20971119.716    20971126.6064
  20016232.955    -1787676.948 9  -1366326.12248  20016232.201    20016238.8894
  23014540.374     1482317.843 8   1178733.28346  23014539.705    23014548.4234
  20357519.472    -2326569.991 9  -1772066.25848  20357519.313    20357524.9094
  23658952.881   -10276973.479 8  -7986294.30045  23658952.828    23658964.1134
 00  8 22 19 29  0.0000000  0  8 11 23 03 21 15 31 29 25
  22810856.885   -11060963.858 8  -8600217.60646  22810856.433    22810864.9574
  24016399.952    10891697.974 7   8479929.55545  24016399.233    24016408.9504
  23782644.439    11723500.934 8   9088537.76445  23782644.118    23782655.0894
  20974782.188        2375.867 9     66335.51047  20974781.661    20974788.5394
  20023314.038    -1750465.751 9  -1337330.41548  20023313.299    20023319.9744
  23025159.979     1538123.891 8   1222218.42946  23025159.323    23025168.0114
  20363089.112    -2297301.399 9  -1749259.57848  20363088.957    20363094.5274
  23639985.582   -10376646.309 8  -8063961.25745  23639985.439    23639996.6834
 00  8 22 19 29 30.0000000  0  8 11 23 03 21 15 31 29 25
  22793753.082   -11150844.688 8  -8670254.51846  22793752.613    22793761.0374
  24029339.035    10959692.821 8   8532912.49945  24029338.395    24029348.0404
  23799849.278    11813911.793 8   9158987.64145  23799848.928    23799859.8274
  20978486.441       21841.781 9     81503.73147  20978485.906    20978492.7784
  20030497.255    -1712717.860 9  -1307916.50848  20030496.516    20030503.1874
  23035856.719     1594335.079 8   1266019.26846  23035856.068    23035864.7154
  20368732.374    -2267645.953 9  -1726151.45848  20368732.220    20368737.7974
  23621035.620   -10476228.594 8  -8141557.65445  23621035.508    23621046.5954
 00  8 22 19 30  0.0000000  0  8 11 23 03 21 15 31 29 25
  22776695.330   -11240483.448 8  -8740102.79146  22776694.832    22776703.2504
  24042294.188    11027772.320 8   8585961.40545  24042293.566    24042303.2404
  23817072.485    11904420.247 8   9229513.50345  23817072.094    23817083.1864
  20982232.983       41529.713 9     96844.96247  20982232.433    20982239.2974
  20037782.409    -1674434.223 9  -1278085.13148  20037781.682    20037788.3494
  23046630.040     1650948.578 8   1310133.61046  23046629.371    23046638.0014
  20374448.839    -2237605.802 9  -1702743.56348  20374448.703    20374454.2684
  23602103.158   -10575718.143 8  -8219081.77245  23602103.075    23602114.2174
 00  8 22 19 30 30.0000000  0  8 11 23 03 21 15 31 29 25
  22759684.173   -11329877.245 8  -8809760.17946  22759683.669    22759692.0184
  24055265.501    11095936.816 8   8639076.54645  24055264.826    24055274.5074
  23834313.846    11995023.419 8   9300113.17045  23834313.389    23834324.6624
  20986021.956       61440.804 9    112360.08047  20986021.400    20986028.2674
  20045169.558    -1635614.602 9  -1247836.10648  20045168.808    20045175.5124
  23057479.406     1707962.176 8   1354559.71046  23057478.779    23057487.3764
  20380238.320    -2207181.956 9  -1679036.69447  20380238.175    20380243.7394
  23583189.107   -10675111.581 8  -8296531.01245  23583188.969    23583200.0734
 00  8 22 19 31  0.0000000  0  8 11 23 03 21 15 31 29 25
  22742720.054   -11419023.634 8  -8879224.80346  22742719.603    22742727.9094
  24068253.037    11164186.616 8   8692258.15945  24068252.375    24068262.1394
  23851572.582    12085718.156 8   9370784.22345  23851572.190    23851583.4224
  20989853.447       81575.445 9    128049.39547  20989852.887    20989859.7654
  20052658.580    -1596259.600 9  -1217169.90448  20052657.834    20052664.5584
  23068404.373     1765373.437 8   1399295.67146  23068403.806    23068412.4684
  20386100.483    -2176376.305 9  -1655032.31047  20386100.306    20386105.8884
  23564293.732   -10774406.682 8  -8373903.63245  23564293.580    23564304.6224
 00  8 22 19 31 30.0000000  0  8 11 23 03 21 15 31 29 25
  22725803.461   -11507920.559 8  -8948495.01446  22725802.974    22725811.3064
  24081256.845    11232521.649 8   8745506.19345  24081256.192    24081265.9364
  23868848.212    12176501.524 8   9441524.27845  23868847.780    23868859.1744
  20993727.584      101934.000 9    143913.18547  20993727.025    20993733.9144
  20060249.384    -1556369.833 9  -1186086.99748  20060248.639    20060255.3774
  23079404.558     1823179.268 8   1444339.09246  23079403.931    23079412.6564
  20392034.942    -2145190.603 9  -1630731.78147  20392034.788    20392040.3634
  23545417.581   -10873601.012 8  -8451197.72845  23545417.387    23545428.4184
 00  8 22 19 32  0.0000000  0  8 11 23 03 21 15 31 29 25
  22708934.783   -11596565.321 8  -9017568.75946  22708934.342    22708942.6534
  24094276.904    11300942.284 8   8798820.92345  24094276.269    24094285.9634
  23886140.329    12267370.967 7   9512331.45145  23886139.940    23886151.2584
  20997644.355      122516.599 9    159951.55447  20997643.784    20997650.6754
  20067941.808    -1515945.887 9  -1154587.84848  20067941.063    20067947.8334
  23090479.328     1881377.062 8   1489687.93846  23090478.714    23090487.3824
  20398041.437    -2113626.377 9  -1606136.29647  20398041.280    20398046.8664
  23526561.125   -10972691.651 8  -8528411.03645  23526560.921    23526571.8574
 00  8 22 19 32 30.0000000  0  8 11 23 03 21 15 31 29 25
  22692114.619   -11684955.413 8  -9086444.04546  22692114.237    22692122.4424
  24107313.248    11369448.557 8   8852202.37145  24107312.635    24107322.2774
  23903447.998    12358322.962 8   9583202.91245  23903447.747    23903459.0954
  21001603.899      143324.138 9    176165.19847  21001603.343    21001610.2474
  20075735.832    -1474988.218 9  -1122672.80948  20075735.088    20075741.8614
  23101628.087     1939963.923 8   1535339.94146  23101627.525    23101636.2504
  20404119.668    -2081685.154 9  -1581247.05047  20404119.502    20404125.0894
  23507724.863   -11071675.711 8  -8605541.28745  23507724.691    23507735.5674
 00  8 22 19 33  0.0000000  0  8 11 23 03 21 15 31 29 25
  22675343.302   -11773089.066 8  -9155119.50346  22675342.876    22675351.0514
  24120365.785    11438040.049 7   8905650.24345  24120365.199    24120374.9404
  23920770.847    12449354.136 8   9654136.09545  23920770.535    23920781.8014
  21005606.258      164356.526 9    192554.04947  21005605.712    21005612.6234
  20083631.271    -1433497.426 9  -1090342.35148  20083630.512    20083637.3074
  23112850.395     1998936.981 8   1581292.88846  23112849.767    23112858.5954
  20410269.249    -2049369.006 9  -1556065.65147  20410269.095    20410274.6724
  23488909.571   -11170550.709 8  -8682586.53546  23488909.376    23488920.1914
 00  8 22 19 33 30.0000000  0  8 11 23 03 21 15 31 29 25
  22658621.418   -11860963.011 8  -9223592.60046  22658620.973    22658629.0914
  24133434.775    11506717.544 7   8959165.12445  24133434.131    24133443.9584
  23938108.347    12540462.225 8   9725129.21645  23938108.002    23938119.2784
  21009651.589      185614.876 9    209118.97547  21009651.031    21009657.9454
  20091628.125    -1391473.838 9  -1057596.72748  20091627.386    20091634.1734
  23124145.791     2058294.184 8   1627545.17346  23124145.188    23124153.9504
  20416489.926    -2016679.204 9  -1530593.09547  20416489.748    20416495.3324
  23470115.225   -11269313.834 8  -8759544.64845  23470115.167    23470125.8834
 00  8 22 19 34  0.0000000  0  8 11 23 03 21 15 31 29 25
  22641949.239   -11948575.140 8  -9291861.68646  22641948.865    22641956.9564
  24146520.001    11575480.993 7   9012746.97545  24146519.263    24146529.2324
  23955459.791    12631643.870 8   9796179.64045  23955459.420    23955470.8064
  21013739.983      207099.332 9    225860.08547  21013739.421    21013746.3404
  20099726.210    -1348918.167 9  -1024436.49848  20099725.470    20099732.2534
  23135513.631     2118032.366 8   1674094.31546  23135513.088    23135521.9094
  20422781.380    -1983617.540 9  -1504830.77547  20422781.213    20422786.8004
  23451342.991   -11367962.467 8  -8836413.49345  23451342.834    23451353.5734
 00  8 22 19 34 30.0000000  0  8 11 23 03 21 15 31 29 25
  22625327.486   -12035922.846 8  -9359924.72746  22625327.121    22625335.1304
  24159621.687    11644330.684 7   9066396.01645  24159621.052    24159630.9164
  23972824.714    12722896.552 8   9867285.43045  23972824.439    23972835.8924
  21017871.522      228810.772 9    242778.05947  21017870.971    21017877.9114
  20107925.474    -1305830.944 9   -990862.07848  20107924.733    20107931.5174
  23146953.540     2178149.242 8   1720938.53146  23146953.038    23146961.8384
  20429143.329    -1950185.293 9  -1478779.69447  20429143.148    20429148.7634
  23432592.975   -11466493.513 8  -8913190.77245  23432592.824    23432603.5514
 00  8 22 19 35  0.0000000  0  8 11 23 03 21 15 31 29 25
  22608756.442   -12123004.049 8  -9427780.09946  22608756.055    22608763.9884
  24172739.795    11713266.400 7   9120112.10245  24172739.081    24172749.0574
  23990202.605    12814217.025 7   9938444.01645  23990202.318    23990213.9194
  21022046.242      250748.927 9    259872.69947  21022045.691    21022052.6454
  20116225.725    -1262212.972 9   -956874.07348  20116224.987    20116231.7734
  23158464.892     2238641.620 8   1768075.35546  23158464.399    23158473.2144
  20435575.355    -1916384.649 9  -1452441.54747  20435575.186    20435580.8274
  23413865.815   -11564904.621 8  -8989874.55345  23413865.639    23413876.2704
 00  8 22 19 35 30.0000000  0  8 11 23 03 21 15 31 29 25
  22592236.655   -12209815.864 8  -9495425.56546  22592236.251    22592244.1394
  24185874.217    11782288.512 7   9173895.49245  24185873.607    24185883.5994
  24007592.852    12905602.398 8  10009653.20045  24007592.569    24007604.0434
  21026264.277      272914.683 9    277144.68847  21026263.710    21026270.6664
  20124626.891    -1218064.731 9   -922472.87348  20124626.151    20124632.9274
  23170047.258     2299506.984 8   1815502.79646  23170046.691    23170055.6874
  20442077.248    -1882217.079 9  -1425817.48247  20442077.094    20442082.7234
  23395161.918   -11663192.987 8  -9066462.65645  23395161.737    23395172.5664
 00  8 22 19 36  0.0000000  0  8 11 23 03 21 15 31 29 25
  22575768.531   -12296356.189 8  -9562859.47146  22575768.131    22575775.9814
  24199025.217    11851396.993 7   9227746.20545  24199024.554    24199034.5904
  24024994.763    12997049.571 8  10080910.50245  24024994.472    24025006.1594
  21030525.646      295308.397 9    294594.30647  21030525.090    21030532.0684
  20133128.774    -1173387.163 9   -887659.21948  20133128.035    20133134.8234
  23181700.029     2360742.319 8   1863218.54946  23181699.444    23181708.4594
  20448648.621    -1847684.371 9  -1398908.89847  20448648.465    20448654.0904
  23376481.973   -11761356.057 8  -9142953.18445  23376481.739    23376492.3564
 00  8 22 19 36 30.0000000  0  8 11 23 03 21 15 31 29 25
  22559352.587   -12382622.225 8  -9630079.65946  22559352.156    22559359.9954
  24212192.665    11920592.163 7   9281664.44545  24212191.969    24212202.0044
  24042407.992    13088555.634 8  10152213.69345  24042407.746    24042419.3904
  21034830.482      317930.392 9    312221.80747  21034829.950    21034836.9184
  20141731.286    -1128180.698 9   -852433.44048  20141730.560    20141737.3464
  23193422.709     2422345.229 8   1911220.72846  23193422.149    23193431.1494
  20455289.164    -1812788.232 9  -1371717.12047  20455288.988    20455294.6384
  23357826.290   -11859391.326 8  -9219344.06245  23357826.114    23357836.7854
 00  8 22 19 37  0.0000000  0  8 11 23 03 21 15 31 29 25
  22542989.224   -12468611.780 8  -9697084.39146  22542988.804    22542996.6194
  24225376.581    11989873.933 7   9335650.17945  24225375.951    24225385.9994
  24059831.835    13180117.750 8  10223560.57345  24059831.485    24059843.2104
  21039178.877      340780.978 9    330027.43747  21039178.310    21039185.2934
  20150434.336    -1082446.113 9   -816796.13548  20150433.595    20150440.3864
  23205214.715     2484312.942 8   1959507.16446  23205214.254    23205223.4014
  20461998.523    -1777530.354 9  -1344243.46447  20461998.363    20462003.9954
  23339195.617   -11957295.900 8  -9295633.15745  23339195.342    23339205.9754
 00  8 22 19 37 30.0000000  0  8 11 23 03 21 15 31 29 25
  22526678.923   -12554322.353 8  -9763871.72446  22526678.505    22526686.2874
  24238577.055    12059242.443 7   9389703.49245  24238576.332    24238586.4364
  24077265.799    13271732.833 8  10294948.72445  24077265.436    24077277.2764
  21043570.890      363861.132 9    348011.95147  21043570.329    21043577.3104
  20159237.709    -1036184.176 9   -780747.90848  20159236.971    20159243.7734
  23217075.658     2546642.354 8   2008075.43046  23217075.143    23217084.2554
  20468776.395    -1741912.374 9  -1316489.20847  20468776.241    20468781.8784
  23320590.148   -12055067.344 8  -9371818.46746  23320589.932    23320600.5374
 00  8 22 19 38  0.0000000  0  8 11 23 03 21 15 31 29 25
  22510422.211   -12639751.561 8  -9830439.83446  22510421.809    22510429.5294
  24251794.115    12128698.087 7   9443824.69845  24251793.432    24251803.3714
  24094709.210    13363398.117 8  10366375.98145  24094708.780    24094720.7824
  21048006.618      387170.815 9    366175.31247  21048006.059    21048012.9984
  20168141.363     -989395.334 9   -744289.11248  20168140.627    20168147.4544
  23229004.983     2609330.754 8   2056923.41046  23229004.385    23229013.6124
  20475622.498    -1705935.941 9  -1288455.64447  20475622.362    20475627.9814
  23302010.647   -12152702.539 8  -9447897.62146  23302010.414    23302020.9604
 00  8 22 19 38 30.0000000  0  8 11 23 03 21 15 31 29 25
  22494219.517   -12724896.842 8  -9896786.69546  22494219.076    22494226.7924
  24265027.698    12198240.784 7   9498013.75245  24265027.141    24265037.0904
  24112161.670    13455110.292 8  10437839.77945  24112161.288    24112173.3404
  21052486.150      410710.705 9    384518.05947  21052485.577    21052492.5094
  20177145.071     -942080.720 9   -707420.62048  20177144.314    20177151.1444
  23241002.130     2672375.356 8   2106048.97646  23241001.549    23241010.6984
  20482536.484    -1669602.786 9  -1260144.11247  20482536.335    20482541.9814
  23283457.592   -12250198.912 8  -9523868.61246  23283457.428    23283467.8414
 00  8 22 19 39  0.0000000  0  8 11 23 03 21 15 31 29 25
  22478071.359   -12809755.409 8  -9962910.14846  22478070.976    22478078.6944
  24278277.914    12267870.982 7   9552270.98145  24278277.318    24278287.3644
  24129622.514    13546866.943 8  10509338.22545  24129622.160    24129634.1974
  21057009.565      434481.181 9    403040.48247  21057008.986    21057015.9024
  20186248.768     -894240.743 9   -670142.74848  20186248.001    20186254.8414
  23253066.444     2735773.487 8   2155450.01946  23253065.887    23253074.9564
  20489518.063    -1632914.400 9  -1231555.77147  20489517.912    20489523.5644
  23264931.443   -12347553.700 8  -9599729.26546  23264931.284    23264941.6094
 00  8 22 19 39 30.0000000  0  8 11 23 03 21 15 31 29 25
  22461978.165   -12894325.307 8 -10028808.66746  22461977.776    22461985.4554
  24291544.760    12337588.511 7   9606596.26145  24291544.134    24291554.2774
  24147091.316    13638664.723 7  10580868.73445  24147090.956    24147103.0014
  21061576.937      458482.807 9    421743.02047  21061576.374    21061583.2974
  20195452.127     -845876.736 9   -632456.54248  20195451.370    20195458.2194
  23265197.461     2799522.016 8   2205124.07046  23265196.859    23265206.0524
  20496566.843    -1595872.780 9  -1202692.18547  20496566.692    20496572.3694
  23246432.692   -12444764.545 8  -9675477.76846  23246432.510    23246442.7604
 00  8 22 19 40  0.0000000  0  8 11 23 03 21 15 31 29 25
  22445940.427   -12978604.038 8 -10094480.30046  22445939.989    22445947.6654
  24304828.268    12407393.339 7   9660989.57045  24304827.638    24304837.6894
  24164567.207    13730500.630 8  10652428.92545  24164566.948    24164579.0384
  21066188.432      482716.477 9    440626.37147  21066187.882    21066194.8114
  20204755.140     -796989.331 9   -594362.49548  20204754.390    20204761.2384
  23277394.703     2863618.265 8   2255069.10646  23277394.105    23277403.2094
  20503682.514    -1558479.815 9  -1173554.82047  20503682.366    20503688.0494
  23227961.893   -12541828.497 8  -9751111.80946  23227961.728    23227971.8424
 00  8 22 19 40 30.0000000  0  8 11 23 03 21 15 31 29 25
  22429958.505   -13062589.077 8 -10159923.09846  22429958.083    22429965.7124
  24318128.363    12477285.594 7   9715450.98945  24318127.780    24318137.8604
  24182049.950    13822371.709 8  10724016.57545  24182049.585    24182061.7464
  21070844.115      507182.069 9    459690.44747  21070843.559    21070850.5154
  20214157.586     -747579.274 9   -555861.18948  20214156.830    20214163.7104
  23289657.514     2928059.335 8   2305282.81146  23289656.936    23289666.0064
  20510864.701    -1520737.134 9  -1144144.95147  20510864.554    20510870.2404
  23209519.497   -12638742.825 8  -9826629.24746  23209519.384    23209529.4674
 00  8 22 19 41  0.0000000  0  8 11 23 03 21 15 31 29 25
  22414033.035   -13146277.732 8 -10225134.93646  22414032.588    22414040.2094
  24331445.236    12547265.940 7   9769981.03845  24331444.631    24331454.8544
  24199538.889    13914275.723 8  10795629.82745  24199538.528    24199550.7644
  21075544.020      531880.297 9    478935.78947  21075543.465    21075550.4394
  20223659.346     -697647.192 9   -516953.11548  20223658.602    20223665.4924
  23301985.480     2992842.810 8   2355763.33046  23301984.901    23301994.1054
  20518113.206    -1482646.063 9  -1114463.61347  20518113.046    20518118.7264
  23191106.155   -12735505.146 8  -9902028.25846  23191105.942    23191115.9604
 00  8 22 19 41 30.0000000  0  8 11 23 03 21 15 31 29 25
  22398164.279   -13229668.035 8 -10290114.30446  22398163.884    22398171.4594
  24344778.861    12617333.977 7   9824579.44345  24344778.251    24344788.3814
  24217033.459    14006209.146 7  10867266.06245  24217033.017    24217045.3264
  21080288.339      556811.735 9    498362.85747  21080287.780    21080294.7684
  20233260.205     -647194.458 9   -477639.33248  20233259.476    20233266.3584
  23314377.968     3057965.291 8   2406508.02446  23314377.312    23314386.5274
  20525427.610    -1444208.715 9  -1084512.44747  20525427.462    20525433.1284
  23172722.198   -12832112.715 8  -9977306.68946  23172721.999    23172731.9494
 00  8 22 19 42  0.0000000  0  8 11 23 03 21 15 31 29 25
  22382352.880   -13312757.221 8 -10354859.02346  22382352.440    22382360.0184
  24358129.172    12687490.183 7   9879246.55545  24358128.428    24358138.5194
  24234532.970    14098169.264 8  10938923.03745  24234532.592    24234545.0214
  21085077.091      581976.735 9    517971.92647  21085076.525    21085083.5294
  20242960.045     -596221.643 9   -437920.29248  20242959.301    20242966.2114
  23326834.530     3123424.203 8   2457514.85946  23326833.899    23326843.0694
  20532807.607    -1405426.702 9  -1054292.71747  20532807.453    20532813.1374
  23154368.262   -12928562.622 8 -10052462.26646  23154368.096    23154377.9124
 00  8 22 19 42 30.0000000  0  8 11 23 03 21 15 31 29 25
  22366599.222   -13395542.992 8 -10419367.31946  22366598.746    22366606.2814
  24371496.259    12757734.500 7   9933982.31445  24371495.544    24371505.6064
  24252037.120    14190152.875 7  11010598.32945  24252036.585    24252049.1814
  21089910.354      607375.528 9    537763.17647  21089909.809    21089916.8104
  20252758.660     -544729.787 9   -397796.80348  20252757.937    20252764.8314
  23339354.432     3189216.493 8   2508781.46946  23339353.861    23339363.0954
  20540252.808    -1366301.793 9  -1023805.78947  20540252.669    20540258.3574
  23136044.748   -13024852.425 8 -10127493.10046  23136044.560    23136054.3054
 00  8 22 19 43  0.0000000  0  8 11 23 03 21 15 31 29 25
  22350903.830   -13478022.511 8 -10483636.98746  22350903.382    22350910.8534
  24384880.191    12828067.302 7   9988787.02945  24384879.359    24384889.5684
  24269545.086    14282157.709 8  11082290.17545  24269544.673    24269557.3034
  21094788.320      633009.316 9    557737.53047  21094787.762    21094794.7544
  20262655.942     -492719.383 9   -357269.25748  20262655.226    20262662.1034
  23351937.406     3255339.828 8   2560306.04246  23351936.770    23351945.9124
  20547763.056    -1326835.221 9   -993052.63347  20547762.900    20547768.6114
  23117752.279   -13120979.059 8 -10202396.77146  23117752.124    23117761.8414
 00  8 22 19 43 30.0000000  0  8 11 23 03 21 15 31 29 25
  22335267.211   -13560193.261 8 -10547666.04446  22335266.757    22335274.2164
  24398281.016    12898488.638 7  10043660.67845  24398280.301    24398290.4924
  24287056.676    14374180.554 7  11153996.01945  24287056.201    24287068.9594
  21099710.991      658877.781 9    577894.74847  21099710.424    21099717.4134
  20272651.736     -440191.413 9   -316338.41048  20272650.986    20272657.8884
  23364582.770     3321790.899 8   2612085.96246  23364582.106    23364591.4124
  20555337.933    -1287029.184 9   -962034.96147  20555337.776    20555343.4824
  23099491.333   -13216940.012 8 -10277171.34446  23099491.165    23099500.8524
 00  8 22 19 44  0.0000000  0  8 11 23 03 21 15 31 29 25
  22319689.785   -13642052.947 8 -10611452.73346  22319689.301    22319696.7194
  24411698.596    12968998.210 7  10098603.13545  24411698.002    24411707.9204
  24304571.024    14466218.434 7  11225713.58745  24304570.635    24304583.3844
  21104678.479      684982.135 9    598235.78247  21104677.905    21104684.9364
  20282745.711     -387147.472 9   -275005.50948  20282744.958    20282751.8664
  23377289.833     3388566.706 8   2664118.94946  23377289.249    23377298.4514
  20562977.062    -1246885.485 9   -930754.17447  20562976.887    20562982.6004
  23081262.468   -13312732.587 8 -10351814.73446  23081262.255    23081271.9594
 00  8 22 19 44 30.0000000  0  8 11 23 03 21 15 31 29 25
  22304172.028   -13723599.115 8 -10674995.11646  22304171.553    22304178.9304
  24425132.997    13039596.322 7  10153614.59445  24425132.462    24425142.3504
  24322087.940    14558268.502 7  11297440.68245  24322087.410    24322100.2684
  21109690.810      711321.892 9    618760.24347  21109690.245    21109697.2754
  20292937.681     -333588.398 9   -233271.20448  20292936.942    20292943.8564
  23390058.202     3455664.247 8   2716402.62346  23390057.560    23390066.9274
  20570680.128    -1206405.737 9   -899211.53047  20570679.955    20570685.6714
  23063066.209   -13408353.887 8 -10426324.64946  23063066.012    23063075.6604
 00  8 22 19 45  0.0000000  0  8 11 23 03 21 15 31 29 25
  22288714.435   -13804829.088 8 -10738291.12146  22288713.974    22288721.2864
  24438584.341    13110283.364 7  10208695.31445  24438583.770    24438593.7704
  24339606.388    14650328.217 8  11369175.22445  24339605.900    24339618.8964
  21114748.178      737898.402 9    639469.18847  21114747.574    21114754.6524
  20303227.559     -279514.939 9   -191136.07948  20303226.818    20303233.7424
  23402887.311     3523081.037 8   2768935.07546  23402886.649    23402896.0784
  20578446.804    -1165591.578 9   -867408.30647  20578446.638    20578452.3524
  23044903.017   -13503801.273 8 -10500699.05546  23044902.816    23044912.4944
 00  8 22 19 45 30.0000000  0  8 11 23 03 21 15 31 29 25
  22273317.313   -13885741.164 8 -10801339.40946  22273316.864    22273324.1624
  24452052.550    13181058.931 7  10263845.01945  24452051.867    24452062.0724
  24357126.287    14742393.979 7  11440914.58745  24357125.762    24357138.5314
  21119850.503      764711.267 9    660362.30147  21119849.932    21119856.9974
  20313615.012     -224928.581 9   -148601.29148  20313614.277    20313621.2114
  23415776.340     3590813.588 8   2821713.55846  23415775.736    23415785.2044
  20586276.713    -1124445.193 9   -835346.20447  20586276.547    20586282.2714
  23026773.357   -13599072.648 8 -10574936.32146  23026773.117    23026782.8264
 00  8 22 19 46  0.0000000  0  8 11 23 03 21 15 31 29 25
  22257981.270   -13966332.002 8 -10864137.39346  22257980.831    22257988.1044
  24465537.829    13251924.062 7  10319064.51245  24465537.191    24465547.2724
  24374646.704    14834463.825 8  11512657.03445  24374646.353    24374659.1914
  21124998.111      791762.008 9    681440.78447  21124997.518    21125004.6214
  20324100.029     -169829.676 9   -105667.11748  20324099.289    20324106.2314
  23428725.187     3658859.792 8   2874736.45646  23428724.541    23428734.1364
  20594169.670    -1082967.565 9   -803025.98747  20594169.503    20594175.2324
  23008677.929   -13694164.138 8 -10649033.41646  23008677.724    23008687.3584
 00  8 22 19 46 30.0000000  0  8 11 23 03 21 15 31 29 25
  22242706.788   -14046599.749 8 -10926683.61446  22242706.325    22242713.5784
  24479040.006    13322877.951 7  10374353.16845  24479039.413    24479049.4724
  24392167.390    14926533.933 8  11584399.74045  24392166.915    24392179.7944
  21130190.816      819049.969 9    702704.11047  21130190.234    21130197.3354
  20334682.157     -114220.265 9    -62335.14648  20334681.423    20334688.3604
  23441733.086     3727216.009 8   2928000.91646  23441732.436    23441742.0054
  20602125.184    -1041161.108 9   -770449.54447  20602125.016    20602130.7524
  22990617.007   -13789074.355 8 -10722989.27446  22990616.837    22990626.4124
 00  8 22 19 47  0.0000000  0  8 11 23 03 21 15 31 29 25
  22227494.157   -14126542.155 8 -10988976.32146  22227493.707    22227500.9844
  24492559.101    13393920.977 7  10429711.28645  24492558.424    24492568.6454
  24409687.462    15018601.859 7  11656140.73245  24409687.005    24409700.0394
  21135428.942      846576.419 9    724153.27147  21135428.357    21135435.4664
  20345361.340      -58101.137 9    -18605.98948  20345360.600    20345367.5154
  23454799.318     3795879.159 8   2981504.53146  23454798.670    23454808.2624
  20610142.927     -999027.630 9   -737618.28247  20610142.765    20610148.4934
  22972591.080   -13883800.556 8 -10796801.73946  22972590.886    22972600.4134
 00  8 22 19 47 30.0000000  0  8 11 23 03 21 15 31 29 25
  22212344.073   -14206156.011 8 -11051013.01846  22212343.625    22212350.8774
  24506095.254    13465053.860 7  10485139.39545  24506094.534    24506105.1724
  24427206.858    15110665.454 8  11727878.33445  24427206.526    24427219.3304
  21140712.629      874342.365 9    745789.04947  21140712.079    21140719.1674
  20356137.429       -1472.589 9     25520.11047  20356136.690    20356143.6064
  23467923.627     3864847.300 8   3035245.80946  23467922.955    23467932.6184
  20618222.703     -956568.149 9   -704532.99547  20618222.541    20618228.2824
  22954600.831   -13978339.352 8 -10870468.19346  22954600.631    22954610.0904
 00  8 22 19 48  0.0000000  0  8 11 23 03 21 15 31 29 25
  22197256.883   -14285439.361 8 -11112792.18146  22197256.449    22197263.7374
  24519648.507    13536276.057 7  10540637.12445  24519647.701    24519658.2714
  24444724.716    15202721.159 7  11799609.80245  24444724.230    24444737.2144
  21146041.880      902347.642 9    767611.31847  21146041.320    21146048.4274
  20367010.129       55663.720 9     70041.87147  20367009.393    20367016.3214
  23481105.278     3934116.845 8   3089221.95846  23481104.669    23481114.2854
  20626364.114     -913784.915 9   -671195.42947  20626363.945    20626369.6874
  22936646.774   -14072688.162 8 -10943986.61146  22936646.560    22936655.9354
 00  8 22 19 48 30.0000000  0  8 11 23 03 21 15 31 29 25
  22182233.049   -14364389.743 8 -11174311.88346  22182232.610    22182239.8914
  24533218.655    13607587.539 7  10596204.38045  24533217.746    24533228.6964
  24462240.394    15294766.019 7  11871332.80045  24462240.063    24462252.9784
  21151416.653      930592.059 9    789619.93547  21151416.089    21151423.1894
  20377979.194      113306.327 9    114958.14447  20377978.449    20377985.3984
  23494343.670     4003684.600 8   3143430.46246  23494343.045    23494352.6804
  20634566.737     -870679.930 9   -637607.15347  20634566.557    20634572.3144
  22918729.304   -14166844.518 8 -11017355.06046  22918729.124    22918738.3774
 00  8 22 19 49  0.0000000  0  8 11 23 03 21 15 31 29 25
  22167273.154   -14443004.325 8 -11235569.92346  22167272.706    22167279.9814
  24546805.977    13678988.905 7  10651841.70945  24546805.220    24546816.0204
  24479753.679    15386797.861 7  11943045.68345  24479753.328    24479766.2964
  21156837.111      959076.811 9    811815.81847  21156836.557    21156843.6614
  20389044.472      171454.627 9    160268.46547  20389043.729    20389050.6964
  23507638.358     4073547.902 8   3197869.26246  23507637.731    23507647.3614
  20642830.356     -827254.470 9   -603769.15547  20642830.176    20642835.9484
  22900849.017   -14260805.430 8 -11090571.22446  22900848.832    22900858.0334
 00  8 22 19 49 30.0000000  0  8 11 23 03 21 15 31 29 25
  22152377.529   -14521280.870 8 -11296564.56646  22152377.079    22152384.3504
  24560410.388    13750480.130 7  10707549.01545  24560409.572    24560420.2934
  24497263.724    15478813.599 7  12014745.92345  24497263.457    24497276.5724
  21162303.459      987802.304 9    834199.29647  21162302.883    21162310.0134
  20400205.631      230106.992 9    205971.56647  20400204.902    20400211.9004
  23520988.723     4143704.002 8   3252536.22945  23520988.108    23520997.7074
  20651154.570     -783510.360 9   -569682.86347  20651154.393    20651160.1784
  22883006.384   -14354568.433 8 -11163633.16346  22883006.195    22883015.3244
 00  8 22 19 50  0.0000000  0  8 11 23 03 21 15 31 29 25
  22137546.682   -14599217.101 8 -11357294.03146  22137546.236    22137553.4844
  24574031.920    13822061.204 7  10763326.35245  24574031.102    24574041.6464
  24514770.257    15570810.271 7  12086431.37245  24514769.977    24514783.1844
  21167815.595     1016768.704 9    856770.49347  21167815.016    21167822.1614
  20411462.536      289262.219 9    252066.50747  20411461.809    20411468.8214
  23534394.263     4214149.699 8   3307428.84845  23534393.618    23534403.2364
  20659539.074     -739449.468 9   -535349.72347  20659538.909    20659544.6954
  22865201.924   -14448131.117 8 -11236539.02446  22865201.750    22865210.8454
 00  8 22 19 50 30.0000000  0  8 11 23 03 21 15 31 29 25
  22122781.044   -14676810.964 8 -11417756.71746  22122780.558    22122787.7874
  24587670.410    13893731.633 7  10819173.31445  24587669.620    24587680.3514
  24532272.571    15662784.387 7  12158099.26545  24532272.171    24532285.4924
  21173373.653     1045976.429 9    879529.73847  21173373.079    21173380.2434
  20422814.831      348918.828 9    298552.13247  20422814.110    20422821.1394
  23547854.170     4284881.592 8   3362544.48045  23547853.500    23547863.1614
  20667983.438     -695074.214 9   -500771.62747  20667983.273    20667989.0644
  22847435.997   -14541491.268 8 -11309287.05646  22847435.790    22847444.8864
 00  8 22 19 51  0.0000000  0  8 11 23 03 21 15 31 29 25
  22108081.144   -14754059.094 8 -11477950.00146  22108080.664    22108087.8814
  24601326.180    13965492.864 7  10875091.01045  24601325.377    24601336.1044
  24549770.226    15754734.549 7  12229748.38045  24549769.887    24549783.2024
  21178977.848     1075426.673 9    902477.96547  21178977.259    21178984.4424
  20434262.532      409076.611 9    345428.28447  20434261.805    20434268.8364
  23561368.234     4355897.702 8   3417881.57945  23561367.575    23561377.1764
  20676487.501     -650385.183 9   -465949.02947  20676487.326    20676493.1144
  22829709.330   -14634645.002 8 -11381874.25046  22829709.142    22829718.1884
 00  8 22 19 51 30.0000000  0  8 11 23 03 21 15 31 29 25
  22093447.509   -14830959.254 8 -11537872.14046  22093447.015    22093454.2184
  24614999.207    14037344.502 7  10931079.16845  24614998.441    24615009.0904
  24567262.863    15846657.429 7  12301376.33645  24567262.548    24567275.7994
  21184628.319     1105119.979 9    925615.59147  21184627.727    21184634.9144
  20445805.221      469733.799 9    392693.58447  20445804.494    20445811.5474
  23574935.560     4427194.451 8   3473437.36545  23574935.002    23574944.6394
  20685050.886     -605384.532 9   -430883.61147  20685050.707    20685056.5084
  22812022.448   -14727589.800 8 -11454298.65746  22812022.266    22812031.2244
 00  8 22 19 52  0.0000000  0  8 11 23 03 21 15 31 29 25
  22078880.366   -14907509.865 8 -11597521.90546  22078879.889    22078887.0774
  24628689.287    14109285.800 7  10987137.22045  24628688.623    24628699.2264
  24584749.512    15938549.513 7  12372980.24045  24584749.043    24584762.5594
  21190324.926     1135055.782 9    948942.17447  21190324.354    21190331.5214
  20457442.616      530888.459 9    440346.52547  20457441.878    20457448.9374
  23588555.704     4498768.448 8   3529209.17445  23588555.143    23588564.8484
  20693673.036     -560074.826 9   -395577.36547  20693672.848    20693678.6604
  22794375.562   -14820324.087 8 -11526558.99846  22794375.393    22794384.3004
 00  8 22 19 52 30.0000000  0  8 11 23 03 21 15 31 29 25
  22064380.387   -14983707.330 8 -11656896.47746  22064379.968    22064387.0834
  24642396.703    14181318.125 7  11043266.15845  24642396.004    24642406.6834
  24602230.128    16030409.109 7  12444558.83045  24602229.611    24602243.3494
  21196067.965     1165235.496 9    972458.81947  21196067.398    21196074.5614
  20469174.626      592540.471 9    488387.01247  20469173.886    20469180.9424
  23602228.287     4570617.773 8   3585195.51145  23602227.777    23602237.4564
  20702353.941     -514456.530 9   -360030.66347  20702353.769    20702359.5734
  22776769.532   -14912843.929 8 -11598652.25246  22776769.370    22776778.2644
 00  8 22 19 53  0.0000000  0  8 11 23 03 21 15 31 29 25
  22049947.952   -15059549.956 8 -11715994.55646  22049947.529    22049954.6424
  24656121.215    14253440.470 7  11099465.25545  24656120.493    24656131.1114
  24619703.838    16122232.706 7  12516109.37545  24619703.424    24619717.0604
  21201857.362     1195658.978 9    996165.40947  21201856.810    21201863.9664
  20481000.846      654687.558 9    536813.26047  20481000.109    20481007.1764
  23615952.451     4642738.213 8   3641393.11245  23615951.936    23615961.6604
  20711093.028     -468532.405 9   -324245.65847  20711092.839    20711098.6664
  22759204.673   -15005147.427 8 -11670576.91746  22759204.531    22759213.4284
 00  8 22 19 53 30.0000000  0  8 11 23 03 21 15 31 29 25
  22035583.570   -15135035.129 8 -11774814.08846  22035583.133    22035590.2484
  24669863.010    14325653.373 7  11155734.94145  24669862.279    24669872.8734
  24637170.186    16214017.952 7  12587630.05345  24637169.832    24637183.5034
  21207693.317     1226327.050 9   1020062.58647  21207692.760    21207699.9264
  20492921.129      717328.767 9    585624.54747  20492920.376    20492927.4664
  23629727.701     4715127.190 8   3697799.97745  23629727.170    23629736.9774
  20719890.048     -422303.865 9   -288223.43847  20719889.859    20719895.6854
  22741681.492   -15097231.806 8 -11742330.84846  22741681.312    22741690.1994
 00  8 22 19 54  0.0000000  0  7 11 03 21 15 31 29 25
  22021287.077   -15210163.381 8 -11833355.50046  22021286.651    22021293.7274
  24654628.355    16305759.215 7  12659116.46345  24654628.036    24654641.5844
  21213575.423     1257237.606 9   1044148.71047  21213574.858    21213582.0394
  20504934.609      780459.935 9    634817.61347  20504933.870    20504940.9734
  23643552.964     4787779.121 8   3754411.72645  23643552.449    23643562.4114
  20728744.085     -375775.642 9   -251967.70947  20728743.899    20728749.7224
  22724199.950   -15189097.390 8 -11813914.29546  22724199.754    22724208.6714
 00  8 22 19 54 30.0000000  0  7 11 03 21 15 31 29 25
  22007059.153   -15284931.122 8 -11891616.00546  22007058.731    22007065.8254
  24672077.594    16397454.848 7  12730567.23445  24672077.196    24672090.9214
  21219503.898     1288391.808 9   1068424.68447  21219503.333    21219510.5044
  20517041.264      844080.575 9    684392.08447  20517040.528    20517047.6154
  23657427.925     4860692.112 8   3811226.90245  23657427.443    23657437.3844
  20737655.056     -328948.278 9   -215478.88147  20737654.860    20737660.7004
  22706760.762   -15280740.432 8 -11885324.32346  22706760.517    22706769.4294
 00  8 22 19 55  0.0000000  0  7 11 03 21 15 31 29 25
  21992901.191   -15359331.578 8 -11949590.31146  21992900.762    21992907.8064
  24689518.512    16489106.128 7  12801983.55045  24689518.121    24689531.8274
  21225479.594     1319794.485 9   1092894.28147  21225479.037    21225486.2204
  20529241.633      908193.630 9    734350.25147  20529240.882    20529247.9714
  23671352.743     4933867.073 8   3868246.20645  23671352.284    23671362.3314
  20746623.437     -281819.240 9   -178754.98947  20746623.241    20746629.0734
  22689365.286   -15372153.783 8 -11956555.38246  22689365.040    22689373.9804
 00  8 22 19 55 30.0000000  0  7 11 03 21 15 31 29 25
  21978813.249   -15433363.922 8 -12007277.78846  21978812.815    21978819.8434
  24706950.164    16580708.694 7  12873361.85045  24706949.804    24706963.7904
  21231502.417     1351444.541 9   1117556.64247  21231501.877    21231509.0464
  20541535.113      972796.204 9    784689.87047  20541534.382    20541541.4844
  23685326.637     5007299.715 8   3925466.31145  23685326.199    23685336.1574
  20755648.593     -234391.716 9   -141798.50747  20755648.413    20755654.2404
  22672013.656   -15463336.590 8 -12027606.79646  22672013.422    22672022.3154
 00  8 22 19 56  0.0000000  0  6 11 21 15 31 29 25
  21964795.834   -15507025.568 8 -12064676.40446  21964795.389    21964802.4304
  21237572.526     1383342.797 9   1142412.40847  21237571.965    21237579.1344
  20553921.533     1037887.176 9    835410.05247  20553920.797    20553927.9214
  23699349.095     5080987.332 8   3982885.10145  23699348.582    23699358.6444
  20764730.276     -186667.336 9   -104610.71047  20764730.096    20764735.9294
  22654706.555   -15554285.686 8 -12098476.10346  22654706.323    22654715.1514
 00  8 22 19 56 30.0000000  0  6 11 21 15 31 29 25
  21950850.726   -15580307.004 8 -12121778.75046  21950850.333    21950857.3244
  21243691.245     1415496.994 9   1167467.60947  21243690.699    21243697.8764
  20566401.991     1103472.099 9    886515.13147  20566401.227    20566408.3804
  23713420.770     5154933.702 8   4040505.50845  23713420.250    23713430.3384
  20773869.426     -138640.955 9    -67187.58647  20773869.249    20773875.0884
  22637445.688   -15644991.591 8 -12169155.90846  22637445.513    22637454.2874
 00  8 22 19 57  0.0000000  0  6 11 21 15 31 29 25
  21936976.220   -15653217.904 8 -12178592.36346  21936975.808    21936982.7664
  21249856.513     1447895.484 9   1192713.16447  21249855.951    21249863.1434
  20578973.908     1169537.613 9    937994.69447  20578973.153    20578980.2964
  23727538.825     5229123.800 8   4098315.83445  23727538.247    23727548.3614
  20783063.438      -90326.221 9    -29539.77247  20783063.265    20783069.1104
  22620229.340   -15735463.460 8 -12239653.34646  22620229.162    22620237.9044
 00  8 22 19 57 30.0000000  0  6 11 21 15 31 29 25
  21923173.052   -15725753.806 8 -12235113.76946  21923172.594    21923179.5594
  21256068.667     1480540.422 9   1218150.75247  21256068.110    21256075.3094
  20591637.337     1236084.043 9    989848.99747  20591636.567    20591643.7154
  23741702.995     5303556.526 8   4156315.21745  23741702.431    23741712.5444
  20792312.328      -41723.003 9      8332.83547  20792312.162    20792318.0064
  22603058.405   -15825696.924 8 -12309965.01646  22603058.229    22603066.9214
 00  8 22 19 58  0.0000000  0  6 11 21 15 31 29 25
  21909441.741   -15797912.095 8 -12291340.92746  21909441.310    21909448.2344
  21262327.905     1513432.932 9   1243781.25847  21262327.357    21262334.5494
  20604392.083     1303110.602 9   1042077.42847  20604391.337    20604398.4704
  23755912.832     5378229.133 8   4214501.53145  23755912.274    23755922.4224
  20801615.882        7167.360 9     46429.19047  20801615.721    20801621.5884
  22585933.376   -15915688.925 8 -12380088.53546  22585933.184    22585941.8894
 00  8 22 19 58 30.0000000  0  6 11 21 15 31 29 25
  21895783.065   -15869688.695 8 -12347270.66547  21895782.605    21895789.5044
  21268634.595     1546574.775 9   1269606.04647  21268634.041    21268641.2364
  20617238.212     1370617.326 9   1094680.01347  20617237.473    20617244.6324
  23770167.989     5453140.360 8   4272873.74745  23770167.406    23770177.6394
  20810974.043       56344.754 9     84749.21147  20810973.882    20810979.7514
  22568855.130   -16005435.364 8 -12450020.71246  22568854.917    22568863.6114
 00  8 22 19 59  0.0000000  0  6 11 21 15 31 29 25
  21882197.419   -15941081.498 8 -12402901.35747  21882196.980    21882203.8114
  21274988.819     1579966.174 9   1295625.29347  21274988.252    21274995.4514
  20630175.383     1438602.352 9   1147655.29947  20630174.637    20630181.8364
  23784468.048     5528287.157 8   4331429.56545  23784467.495    23784477.7634
  20820386.409      105806.867 9    123291.09447  20820386.247    20820392.1124
  22551824.018   -16094933.912 8 -12519759.73246  22551823.787    22551832.4894
 00  8 22 19 59 30.0000000  0  6 11 21 15 31 29 25
  21868685.231   -16012088.303 8 -12458231.27247  21868684.785    21868691.5944
  21281390.654     1613607.910 9   1321839.61047  21281390.090    21281397.2754
  20643203.207     1507063.833 9   1201001.84647  20643202.458    20643209.6694
  23798812.205     5603666.175 8   4390166.30345  23798811.675    23798822.0474
  20829852.612      155552.120 9    162053.60347  20829852.453    20829858.3334
  22534840.676   -16184181.642 8 -12589303.30546  22534840.455    22534849.0944
 00  8 22 20  0  0.0000000  0  6 11 21 15 31 29 25
  21855246.848   -16082707.095 8 -12513258.83547  21855246.398    21855253.2154
  21287840.108     1647499.978 9   1348248.98847  21287839.565    21287846.7414
  20656321.375     1575999.984 9   1254718.26647  20656320.617    20656327.8224
  23813200.020     5679274.134 8   4449081.42345  23813199.505    23813209.9364
  20839372.318      205578.427 9    201035.12047  20839372.173    20839378.0394
  22517905.479   -16273176.417 8 -12658649.77046  22517905.229    22517913.8694
 00  8 22 20  0 30.0000000  0  6 11 21 15 31 29 25
  21841882.870   -16152934.999 8 -12567981.81147  21841882.449    21841889.2374
  21294337.352     1681643.050 9   1374853.95747  21294336.797    21294343.9744
  20669529.635     1645409.684 9   1308803.68647  20669528.893    20669536.1144
  23827630.846     5755108.072 8   4508172.66345  23827630.255    23827640.8074
  20848945.262      255884.334 9    240234.50547  20848945.096    20848950.9984
  22501018.916   -16361915.267 8 -12727796.81646  22501018.659    22501027.2764
 00  8 22 20  1  0.0000000  0  6 11 21 15 31 29 25
  21828593.781   -16222769.434 8 -12622398.19447  21828593.369    21828600.1274
  21300882.465     1716037.833 9   1401655.06647  21300881.896    21300889.0644
  20682827.803     1715291.841 9   1363257.25547  20682827.057    20682834.2934
  23842104.089     5831165.322 8   4567437.89645  23842103.584    23842114.1964
  20858571.060      306468.328 9    279650.58347  20858570.882    20858576.8094
  22484181.539   -16450395.790 8 -12796742.56546  22484181.286    22484189.8924
 00  8 22 20  1 30.0000000  0  6 11 21 15 31 29 25
  21815380.016   -16292207.867 8 -12676505.99947  21815379.607    21815386.3524
  21307475.656     1750685.102 9   1428652.91247  21307475.082    21307482.2574
  20696215.563     1785644.726 9   1418077.61847  20696214.809    20696222.0564
  23856619.407     5907443.061 8   4626874.93645  23856618.896    23856629.4464
  20868249.545      357328.994 9    319282.24947  20868249.371    20868255.3154
  22467393.886   -16538615.014 8 -12865484.70046  22467393.638    22467402.2074
 00  8 22 20  2  0.0000000  0  6 11 21 15 31 29 25
  21802241.963   -16361248.579 8 -12730303.89047  21802241.562    21802248.2984
  21314116.930     1785585.053 9   1455847.65747  21314116.354    21314123.5314
  20709692.500     1856466.265 9   1473263.16747  20709691.739    20709699.0094
  23871176.029     5983937.797 8   4686481.06245  23871175.499    23871186.0684
  20877980.158      408463.710 9    359127.45847  20877980.005    20877985.9484
  22450656.406   -16626570.632 8 -12934021.42946  22450656.174    22450664.7174
 00  8 22 20  2 30.0000000  0  6 11 21 15 31 29 25
  21789180.043   -16429889.270 8 -12783790.08047  21789179.645    21789186.3594
  21320806.202     1820737.395 9   1483239.07547  21320805.633    21320812.8344
  20723258.254     1927754.607 9   1528812.45547  20723257.527    20723264.7864
  23885773.331     6060646.471 8   4746253.89845  23885772.763    23885783.3264
  20887762.653      459871.031 9    399185.09047  20887762.503    20887768.4534
  22433969.504   -16714260.342 8 -13002350.94946  22433969.277    22433977.7504
 00  8 22 20  3  0.0000000  0  6 11 21 15 31 29 25
  21776194.790   -16498127.080 8 -12836962.33947  21776194.354    21776201.0944
  21327543.750     1856143.512 9   1510828.22747  21327543.199    21327550.4084
  20736912.696     1999508.933 9   1584724.84947  20736911.984    20736919.2584
  23900410.811     6137566.385 8   4806191.32745  23900410.290    23900420.8284
  20897596.792      511549.610 9    439454.09247  20897596.625    20897602.5824
  22417333.825   -16801681.104 8 -13070470.91146  22417333.583    22417342.0164
 00  8 22 20  3 30.0000000  0  6 11 21 15 31 29 25
  21763286.584   -16565959.761 8 -12889818.92347  21763286.131    21763292.9034
  21334329.701     1891803.822 9   1538615.45547  21334329.171    21334336.3914
  20750655.472     2071727.312 9   1640998.84047  20750654.740    20750662.0304
  23915087.883     6214694.542 8   4866291.01445  23915087.379    23915097.9904
  20907482.211      563497.645 9    479933.06647  20907482.041    20907487.9904
  22400749.836   -16888829.986 8 -13138379.01046  22400749.644    22400758.0114
 00  8 22 20  4  0.0000000  0  6 11 21 15 31 29 25
  21750455.894   -16633385.102 8 -12942358.09847  21750455.443    21750462.2714
  21341164.089     1927718.688 9   1566601.04147  21341163.540    21341170.7734
  20764486.195     2144407.940 9   1697633.02947  20764485.456    20764492.7444
  23929804.005     6292027.564 8   4926550.35045  23929803.572    23929814.2254
  20917418.479      615713.010 9    520620.34647  20917418.313    20917424.2554
  22384217.991   -16975704.874 8 -13206073.59346  22384217.819    22384226.1924
 00  8 22 20  4 30.0000000  0  6 11 21 15 31 29 25
  21737703.195   -16700400.706 8 -12994577.99647  21737702.752    21737709.5884
  21348046.949     1963888.256 9   1594785.09047  21348046.375    21348053.6234
  20778404.566     2217549.236 9   1754626.17247  20778403.830    20778411.1364
  23944558.628     6369562.480 8   4986967.00445  23944558.167    23944568.8154
  20927405.357      668194.243 9    561514.79947  20927405.179    20927411.1354
  22367738.737   -17062303.383 8 -13273552.82046  22367738.537    22367746.8904
 00  8 22 20  5  0.0000000  0  6 11 21 15 31 29 25
  21725028.792   -16767004.906 8 -13046477.32247  21725028.336    21725035.1684
  21354978.373     2000313.063 9   1623168.04247  21354977.816    21354985.0394
  20792410.179     2291148.834 9   1811976.44247  20792409.434    20792416.7514
  23959350.943     6447295.595 8   5047538.11045  23959350.466    23959361.0484
  20937442.397      720939.073 9    602614.64947  20937442.210    20937448.1624
  22351312.515   -17148623.198 8 -13340814.87946  22351312.319    22351320.6554
 00  8 22 20  5 30.0000000  0  6 11 21 15 31 29 25
  21712433.263   -16833194.595 8 -13098053.64847  21712432.815    21712439.6184
  21361958.455     2036993.603 9   1651750.24847  21361957.914    21361965.1434
  20806502.786     2365205.677 9   1869683.00247  20806502.038    20806509.3494
  23974180.505     6525224.711 8   5108261.93745  23974180.040    23974190.6004
  20947529.391      773946.363 9    643919.00847  20947529.197    20947535.1604
  22334939.846   -17234661.426 8 -13407857.50946  22334939.663    22334948.0064
 00  8 22 20  6  0.0000000  0  6 11 21 15 31 29 25
  21699917.103   -16898967.317 8 -13149305.06547  21699916.680    21699923.4244
  21368987.372     2073930.728 9   1680532.39447  21368986.818    21368994.0624
  20820682.194     2439718.530 9   1927744.88847  20820681.422    20820688.7504
  23989046.829     6603347.041 8   5169136.32245  23989046.349    23989057.0604
  20957666.002      827214.660 9    685426.75047  20957665.830    20957671.7844
  22318621.422   -17320414.780 8 -13474678.17046  22318621.240    22318629.5524
 00  8 22 20  6 30.0000000  0  6 11 21 15 31 29 25
  21687480.598   -16964321.539 8 -13200230.37847  21687480.120    21687486.8674
  21376065.127     2111124.297 9   1709514.37247  21376064.548    21376071.8144
  20834947.828     2514684.686 9   1986160.00147  20834947.076    20834954.4134
  24003949.196     6681658.763 8   5230158.28845  24003948.612    24003959.4184
  20967851.834      880741.346 9    727135.83147  20967851.658    20967857.6234
  22302357.529   -17405881.682 8 -13541275.61846  22302357.360    22302365.6164
 00  8 22 20  7  0.0000000  0  6 11 21 15 31 29 25
  21675124.205   -17029254.696 8 -13250827.58747  21675123.714    21675130.4504
  21383191.805     2148575.127 9   1738696.80947  21383191.245    21383198.5044
  20849299.449     2590102.688 9   2044927.20147  20849298.681    20849306.0794
  24018887.006     6760157.081 8   5291325.64145  24018886.461    24018897.3404
  20978086.584      934525.245 9    769045.33147  20978086.423    20978092.3874
  22286148.697   -17491059.358 8 -13607647.70546  22286148.511    22286156.7234
 00  8 22 20  7 30.0000000  0  6 11 21 15 31 29 25
  21662848.279   -17093764.891 8 -13301095.22447  21662847.803    21662854.5284
  21390367.496     2186283.610 9   1768080.01247  21390366.957    21390374.2364
  20863736.580     2665970.192 9   2104044.65747  20863735.816    20863743.2424
  24033859.754     6838838.325 8   5352635.54645  24033859.105    24033870.0634
  20988369.831      988563.992 9    811153.42147  20988369.684    20988375.6494
  22269995.332   -17575945.292 8 -13673792.45346  22269995.143    22270003.3494
 00  8 22 20  8  0.0000000  0  6 11 21 15 31 29 25
  21650653.186   -17157850.330 8 -13351031.88347  21650652.685    21650659.4124
  21397592.146     2224249.196 9   1797663.55747  21397591.585    21397598.8904
  20878258.944     2742285.332 9   2163510.92247  20878258.163    20878265.6094
  24048866.641     6917699.552 8   5414085.68345  24048865.996    24048876.9854
  20998701.238     1042855.751 9    853458.66547  20998701.072    20998707.0544
  22253897.831   -17660537.703 8 -13739708.49447  22253897.658    22253905.8034
 00  8 22 20  8 30.0000000  0  6 11 21 15 31 29 25
  21638539.494   -17221507.916 9 -13400635.15247  21638539.031    21638545.7464
  21404865.900     2262472.911 8   1827448.23847  21404865.350    21404872.6644
  20892866.249     2819046.992 9   2223325.12647  20892865.460    20892872.9354
  24063907.368     6996738.133 8   5475674.03445  24063906.674    24063917.7404
  21009080.554     1097399.420 9    895960.20147  21009080.386    21009086.3634
  22237856.821   -17744833.311 8 -13805393.26047  22237856.662    22237864.7494
 00  8 22 20  9  0.0000000  0  6 11 21 15 31 29 25
  21626507.716   -17284735.144 9 -13449903.07147  21626507.261    21626513.9434
  21412189.014     2300956.053 9   1857435.07647  21412188.490    21412195.7904
  20907558.200     2896253.440 9   2283485.91747  20907557.439    20907564.9204
  24078981.221     7075951.111 8   5537398.27145  24078980.568    24078991.6004
  21019507.554     1152193.540 9    938656.89747  21019507.388    21019513.3644
  22221872.799   -17828829.693 8 -13870844.87347  22221872.618    22221880.6324
 00  8 22 20  9 30.0000000  0  6 11 21 15 31 29 25
  21614558.273   -17347529.787 9 -13498833.91347  21614557.833    21614564.4864
  21419561.520     2339698.803 8   1887624.20847  21419560.987    21419568.2834
  20922334.466     2973902.846 9   2343991.87647  20922333.710    20922341.1964
  24094087.635     7155335.391 8   5599255.96145  24094086.941    24094098.1414
  21029981.811     1207236.067 9    981547.15647  21029981.637    21029987.6234
  22205946.182   -17912523.982 8 -13936061.08447  22205946.004    22205953.9784
 00  8 22 20 10  0.0000000  0  6 11 21 15 31 29 25
  21602691.497   -17409890.040 9 -13547426.26947  21602691.038    21602697.6654
  21426983.488     2378701.518 9   1918015.90447  21426982.958    21426990.2724
  20937194.635     3051993.174 9   2404841.40547  20937193.872    20937201.3774
  24109226.008     7234887.595 8   5661244.53845  24109225.420    24109236.5894
  21040503.007     1262525.242 9   1024629.60747  21040502.843    21040508.8414
  22190077.499   -17995914.003 8 -14001040.21147  22190077.329    22190085.2754
 00  8 22 20 10 30.0000000  0  6 11 21 15 31 29 25
  21590907.891   -17471813.266 9 -13595678.08547  21590907.406    21590914.0154
  21434454.972     2417964.292 8   1948610.24747  21434454.456    21434461.7614
  20952138.371     3130522.606 9   2466033.09847  20952137.597    20952145.1404
  24124395.905     7314605.275 8   5723362.02245  24124395.328    24124406.5734
  21051070.895     1318059.769 9   1067903.24247  21051070.737    21051076.7604
  22174267.268   -18078997.080 8 -14065780.16547  22174267.065    22174274.9834
 00  8 22 20 11  0.0000000  0  6 11 21 15 31 29 25
  21579207.749   -17533297.718 9 -13643587.99947  21579207.286    21579213.8514
  21441975.966     2457487.249 8   1979407.32047  21441975.419    21441982.7594
  20967165.257     3209489.095 9   2527565.35047  20967164.464    20967172.0364
  24139596.594     7394484.866 8   5785605.70845  24139595.975    24139607.2254
  21061685.061     1373837.566 9   1111366.43747  21061684.909    21061690.9434
  22158515.800   -18161771.094 8 -14130279.29047  22158515.579    22158523.5124
 00  8 22 20 11 30.0000000  0  6 11 21 15 31 29 25
  21567591.666   -17594340.420 9 -13691153.69747  21567591.218    21567597.7664
  21449546.749     2497272.007 8   2010408.40047  21449546.208    21449553.5714
  20982275.048     3288891.465 9   2589437.24947  20982274.284    20982281.8654
  24154827.561     7474523.998 8   5847973.67745  24154827.011    24154838.4234
  21072345.271     1429857.338 9   1155018.18347  21072345.109    21072351.1644
  22142823.737   -18244232.865 8 -14194535.12347  22142823.543    22142831.4404
 00  8 22 20 12  0.0000000  0  6 11 21 15 31 29 25
  21556059.875   -17654940.385 9 -13738374.41047  21556059.421    21556065.9484
  21457167.285     2537317.981 8   2041613.02047  21457166.703    21457174.1204
  20997467.233     3368726.692 9   2651646.44247  20997466.476    20997474.0724
  24170088.200     7554718.793 8   5910462.96845  24170087.586    24170099.1064
  21083051.088     1486116.499 9   1198856.46747  21083050.908    21083056.9894
  22127191.410   -18326380.948 8 -14258546.53047  22127191.214    22127199.1004
 00  8 22 20 12 30.0000000  0  6 11 21 15 31 29 25
  21544612.772   -17715095.168 9 -13785248.21947  21544612.325    21544618.8084
  21464837.667     2577626.093 8   2073021.90147  21464837.122    21464844.5374
  21012741.480     3448993.237 9   2714191.72547  21012740.722    21012748.3694
  24185377.836     7635066.190 8   5973071.12045  24185377.202    24185388.8334
  21093802.146     1542613.718 9   1242880.24947  21093801.965    21093808.0684
  22111619.287   -18408212.654 8 -14322311.40547  22111619.115    22111626.9404
 00  8 22 20 13  0.0000000  0  6 11 21 15 31 29 25
  21533250.739   -17774802.813 9 -13831773.61647  21533250.311    21533256.7774
  21472557.880     2618195.934 8   2104634.73547  21472557.328    21472564.7804
  21028097.410     3529688.844 9   2777071.34847  21028096.641    21028104.3074
  24200696.024     7715562.998 8   6035795.74945  24200695.357    24200706.8984
  21104598.125     1599346.951 9   1287087.94147  21104597.941    21104604.0624
  22096107.798   -18489725.670 8 -14385827.95347  22096107.643    22096115.4354
 00  8 22 20 13 30.0000000  0  6 11 21 15 31 29 25
  21521974.365   -17834060.466 9 -13877948.36247  21521973.928    21521980.3804
  21480327.992     2659028.036 8   2136451.92647  21480327.439    21480334.9134
  21043534.655     3610812.038 9   2840284.15047  21043533.904    21043541.5804
  24216042.192     7796206.487 8   6098634.67945  24216041.582    24216053.1014
  21115438.806     1656314.944 9   1331478.55947  21115438.616    21115444.7434
  22080657.489   -18570917.350 8 -14449094.11947  22080657.329    22080665.0894
 00  8 22 20 14  0.0000000  0  6 11 21 15 31 29 25
  21510783.876   -17892866.606 9 -13923771.27747  21510783.445    21510789.8884
  21488148.159     2700123.081 8   2168474.01047  21488147.625    21488155.0454
  21059052.801     3692360.203 9   2903828.10247  21059052.081    21059059.7694
  24231415.592     7876993.447 8   6161585.37645  24231415.061    24231426.5864
  21126323.755     1713515.566 9   1376050.45047  21126323.580    21126329.6884
  22065268.696   -18651785.652 8 -14512108.30247  22065268.522    22065276.2434
 00  8 22 20 14 30.0000000  0  6 11 21 15 31 29 25
  21499679.802   -17951218.611 9 -13969240.32947  21499679.372    21499685.7984
  21496018.437     2741481.492 8   2200701.31747  21496017.906    21496025.3024
  21074651.572     3774331.911 9   2967702.08647  21074650.843    21074658.5394
  24246815.713     7957920.825 8   6224645.49845  24246815.129    24246826.6804
  21137252.733     1770947.621 9   1420802.67547  21137252.564    21137258.6464
  22049941.980   -18732327.690 8 -14574868.25047  22049941.813    22049949.5224
 00  8 22 20 15  0.0000000  0  6 11 21 15 31 29 25
  21488662.565   -18009114.545 9 -14014354.00047  21488662.149    21488668.5324
  21503938.979     2783104.154 9   2233134.53147  21503938.463    21503945.8464
  21090330.618     3856725.314 9   3031904.66147  21090329.828    21090337.5604
  24262241.963     8038985.813 8   6287812.84045  24262241.370    24262252.9334
  21148225.422     1828609.343 9   1465733.86947  21148225.248    21148231.3244
  22034677.772   -18812541.154 8 -14637372.16947  22034677.600    22034685.3134
 00  8 22 20 15 30.0000000  0  6 11 21 15 31 29 25
  21477732.538   -18066552.115 9 -14059110.50547  21477732.116    21477738.5004
  21511909.804     2824990.842 8   2265773.49247  21511909.275    21511916.6214
  21106089.408     3939538.079 9   3096434.01147  21106088.639    21106096.3854
  24277694.006     8120185.503 8   6351085.15445  24277693.342    24277704.8554
  21159241.499     1886499.117 9   1510842.75847  21159241.342    21159247.3994
  22019476.524   -18892423.650 8 -14699618.19247  22019476.384    22019484.0834
 00  8 22 20 16  0.0000000  0  6 11 21 15 31 29 25
  21466890.082   -18123529.492 9 -14103508.42747  21466889.652    21466896.0394
  21519930.887     2867141.616 8   2298618.22147  21519930.332    21519937.6954
  21121927.658     4022768.449 9   3161288.77147  21121926.894    21121934.6734
  24293170.884     8201516.442 8   6414459.71245  24293170.198    24293181.7734
  21170300.591     1944615.070 9   1556127.89147  21170300.446    21170306.5114
  22004338.818   -18971972.630 8 -14761604.32947  22004338.634    22004346.3454
 00  8 22 20 16 30.0000000  0  6 11 21 15 31 29 25
  21456135.701   -18180044.028 9 -14147545.68647  21456135.247    21456141.6334
  21528002.426     2909557.840 8   2331669.79347  21528001.864    21528009.2594
  21137845.125     4106414.828 9   3226467.69847  21137844.355    21137852.1244
  24308672.439     8282976.404 8   6477934.84145  24308671.617    24308683.3744
  21181402.582     2002956.214 9   1601588.49847  21181402.430    21181408.5114
  21989265.138   -19051185.056 8 -14823328.21147  21989264.939    21989272.6404
 00  8 22 20 17  0.0000000  0  6 11 21 15 31 29 25
  21445469.726   -18236093.913 9 -14191220.87947  21445469.271    21445475.6544
  21536124.532     2952239.743 8   2364928.39147  21536123.982    21536131.3814
  21153841.268     4190474.635 9   3291968.77547  21153840.491    21153848.2634
  24324197.696     8364561.606 8   6541507.54445  24324196.899    24324208.7234
  21192546.951     2061520.242 9   1647222.77947  21192546.815    21192552.8784
  21974255.836   -19130059.044 8 -14884788.37747  21974255.640    21974263.3404
 00  8 22 20 17 30.0000000  0  6 11 21 15 31 29 25
  21434892.561   -18291677.041 9 -14234532.36747  21434892.103    21434898.4794
  21544297.303     2995187.631 8   2398394.25747  21544296.734    21544304.1514
  21169915.633     4274945.855 9   3357790.43447  21169914.873    21169922.6694
  24339746.259     8446269.245 8   6605175.64945  24339745.524    24339757.3914
  21203733.519     2120305.833 9   1693029.71147  21203733.351    21203739.4544
  21959311.363   -19208592.394 8 -14945983.10547  21959311.185    21959318.8664
 00  8 22 20 18  0.0000000  0  6 11 21 15 31 29 25
  21424404.620   -18346791.321 9 -14277478.52147  21424404.154    21424410.5544
  21552520.674     3038401.729 8   2432067.55347  21552520.101    21552527.5254
  21186067.907     4359826.527 9   3423931.14547  21186067.161    21186074.9844
  24355317.499     8528096.134 8   6668936.65345  24355316.854    24355328.7664
  21214961.854     2179311.203 9   1739007.89247  21214961.718    21214967.8034
  21944432.189   -19286782.688 8 -15006910.51547  21944432.026    21944439.6774
 00  8 22 20 18 30.0000000  0  6 11 21 15 31 29 25
  21414006.244   -18401435.076 9 -14320058.03247  21414005.772    21414012.1624
  21560794.848     3081882.607 8   2465948.72847  21560794.283    21560801.7174
  21202297.716     4445114.344 9   3490389.11247  21202296.975    21202304.8274
  24370910.975     8610039.196 7   6732788.20245  24370910.289    24370922.1544
  21226231.708     2238534.474 9   1785155.87147  21226231.566    21226237.6634
  21929618.770   -19364627.413 8 -15067568.64547  21929618.591    21929626.2354
 00  8 22 20 19  0.0000000  0  6 11 21 15 31 29 25
  21403697.886   -18455605.828 9 -14362268.97047  21403697.409    21403703.7854
  21569119.830     3125630.604 8   2500038.04647  21569119.269    21569126.7074
  21218604.662     4530807.559 9   3557162.97147  21218603.916    21218611.7704
  24386525.805     8692095.694 7   6796728.12045  24386525.180    24386537.1924
  21237542.735     2297974.294 9   1831472.59347  21237542.605    21237548.7104
  21914871.533   -19442124.402 8 -15127955.80747  21914871.350    21914878.9884
 00  8 22 20 19 30.0000000  0  6 11 21 15 31 29 25
  21393479.853   -18509301.664 9 -14404109.85247  21393479.382    21393485.7544
  21577495.688     3169645.796 8   2534335.56747  21577495.111    21577502.5854
  21234988.247     4616903.723 9   3624250.81947  21234987.494    21234995.3814
  24402161.854     8774262.475 7   6860753.99645  24402161.195    24402173.2754
  21248894.667     2357628.947 9   1877956.71347  21248894.506    21248900.6524
  21900190.877   -19519271.316 8 -15188070.18347  21900190.724    21900198.3534
 00  8 22 20 20  0.0000000  0  6 11 21 15 31 29 25
  21383352.480   -18562520.979 9 -14445579.41047  21383352.033    21383358.4154
  21585922.425     3213928.476 8   2568841.50747  21585921.837    21585929.3264
  21251448.106     4703400.543 9   3691650.86347  21251447.369    21251455.2514
  24417818.091     8856536.293 7   6924863.25045  24417817.466    24417829.6674
  21260287.104     2417496.521 9   1924606.74847  21260286.940    21260293.0914
  21885577.263   -19596065.979 8 -15247910.07747  21885577.100    21885584.7444
 00  8 22 20 20 30.0000000  0  6 11 21 15 31 29 25
  21373316.270   -18615261.462 9 -14486675.85447  21373315.831    21373322.1874
  21594400.209     3258479.453 8   2603556.51447  21594399.598    21594407.1044
  21267983.836     4790296.226 9   3759361.71447  21267983.102    21267990.9984
  24433494.208     8938914.079 7   6989053.53745  24433493.435    24433505.7824
  21271719.798     2477575.551 9   1971421.55647  21271719.605    21271725.7764
  21871031.152   -19672505.975 9 -15307473.59647  21871030.980    21871038.5984
 00  8 22 20 21  0.0000000  0  6 11 21 15 31 29 25
  21363371.604   -18667521.016 9 -14527397.54247  21363371.156    21363377.4924
  21602929.079     3303298.960 8   2638480.76647  21602928.523    21602935.9864
  21284595.151     4877588.860 9   3827381.87847  21284594.392    21284602.3094
  24449189.570     9021393.189 7   7053322.75845  24449188.908    24449201.1374
  21283192.452     2537864.659 9   2018400.06047  21283192.263    21283198.4434
  21856553.027   -19748588.729 9 -15366758.75447  21856552.863    21856560.4484
 00  8 22 20 21 30.0000000  0  6 11 21 15 31 29 25
  21353518.748   -18719297.834 9 -14567743.06747  21353518.307    21353524.6464
  21611509.099     3348387.069 8   2673614.32247  21611508.564    21611515.9824
  21301281.527     4965276.041 9   3895709.48147  21301280.780    21301288.7244
  24464903.633     9103970.322 7   7117668.37845  24464902.850    24464915.1884
  21294704.719     2598361.930 9   2065540.76947  21294704.523    21294710.7394
  21842143.201   -19824312.470 9 -15425764.15447  21842143.039    21842150.5584
 00  8 22 20 22  0.0000000  0  6 11 21 15 31 29 25
  21343758.103   -18770590.221 9 -14607711.12247  21343757.674    21343763.9834
  21620140.310     3393744.113 8   2708957.43547  21620139.759    21620147.1644
  21318042.506     5053355.361 9   3964342.64047  21318041.727    21318049.7104
  24480635.710     9186642.607 7   7182088.11845  24480635.028    24480647.4834
  21306256.246     2659065.658 9   2112842.35147  21306256.066    21306262.2994
  21827802.180   -19899674.845 9 -15484487.98247  21827802.007    21827809.4624
 00  8 22 20 22 30.0000000  0  6 11 21 15 31 29 25
  21334089.985   -18821396.416 9 -14647300.32547  21334089.557    21334095.8534
  21628822.766     3439370.393 8   2744510.33647  21628822.198    21628829.6014
  21334877.667     5141824.486 9   4033279.53847  21334876.882    21334884.9224
  24496385.427     9269406.537 7   7246579.29645  24496384.656    24496397.2164
  21317846.716     2719973.862 9   2160303.26247  21317846.522    21317852.7684
  21813530.307   -19974673.793 9 -15542928.61047  21813530.117    21813537.5224
 00  8 22 20 23  0.0000000  0  6 11 21 15 31 29 25
  21324514.835   -18871713.979 9 -14686508.78047  21324514.396    21324520.7004
  21637556.544     3485266.399 8   2780273.40547  21637555.952    21637563.3884
  21351786.661     5230681.618 8   4102518.77447  21351785.896    21351793.9454
  24512151.858     9352259.172 7   7311139.59845  24512151.160    24512163.6954
  21329475.854     2781085.312 9   2207922.54747  21329475.681    21329481.9234
  21799328.069   -20049306.661 9 -15601083.98847  21799327.880    21799335.2414
 00  8 22 20 23 30.0000000  0  6 11 21 15 31 29 25
  21315033.053   -18921541.021 9 -14725335.01347  21315032.620    21315038.9064
  21646341.737     3531432.820 8   2816247.18447  21646341.130    21646348.6234
  21368769.141     5319924.728 9   4172058.78047  21368768.369    21368776.4264
  24527934.879     9435198.092 7   7375767.13045  24527934.114    24527946.7144
  21341143.403     2842398.708 9   2255699.19347  21341143.214    21341149.4734
  21785195.901   -20123571.164 9 -15658952.32747  21785195.733    21785203.0744
 00  8 22 20 24  0.0000000  0  6 11 21 15 31 29 25
  21305644.873   -18970876.050 9 -14763777.85647  21305644.409    21305650.7224
  21655178.197     3577868.843 8   2852431.04647  21655177.622    21655185.1334
  21385824.562     5409551.117 8   4241897.44647  21385823.792    21385831.8404
  24543733.493     9518219.574 7   7440459.00945  24543732.727    24543745.3344
  21352848.958     2903911.771 9   2303631.42847  21352848.790    21352855.0404
  21771134.187   -20197465.617 9 -15716532.31247  21771134.018    21771141.3274
 00  8 22 20 24 30.0000000  0  6 11 21 15 31 29 25
  21296350.818   -19019716.551 9 -14801835.35747  21296350.364    21296356.6594
  21664066.347     3624576.306 8   2888826.42147  21664065.809    21664073.3274
  21402952.603     5499559.249 8   4312033.57147  21402951.835    21402959.9154
  24559547.390     9601321.421 7   7505213.49645  24559546.649    24559559.2624
  21364592.390     2965623.751 9   2351718.65547  21364592.210    21364598.4574
  21757143.422   -20270987.098 9 -15773821.67447  21757143.253    21757150.5524
 00  8 22 20 25  0.0000000  0  6 11 21 15 31 29 25
  21287151.139   -19068061.069 9 -14839506.37247  21287150.672    21287156.9584
  21673006.029     3671554.408 8   2925432.68947  21673005.490    21673012.9814
  21420152.737     5589946.407 8   4382465.04147  21420151.997    21420160.0984
  24575375.911     9684500.076 7   7570027.83645  24575375.191    24575387.7134
  21376373.268     3027532.461 9   2399959.18247  21376373.085    21376379.3514
  21743224.011   -20344133.472 9 -15830818.74247  21743223.850    21743231.1424
 00  8 22 20 25 30.0000000  0  6 11 21 15 31 29 25
  21278046.212   -19115907.580 9 -14876789.34147  21278045.755    21278052.0664
  21681997.413     3718804.394 8   2962250.80447  21681996.866    21682004.3814
  21437424.676     5680710.660 8   4453190.34547  21437423.920    21437432.0694
  24591218.600     9767752.865 7   7634899.95245  24591217.954    24591230.2944
  21388191.333     3089636.698 9   2448352.06947  21388191.133    21388197.4094
  21729376.393   -20416902.558 9 -15887521.83047  21729376.236    21729383.5214
 00  8 22 20 26  0.0000000  0  6 11 21 15 31 29 25
  21269036.314   -19163254.562 9 -14913683.05647  21269035.863    21269042.1954
  21691040.514     3766325.830 8   2999280.45047  21691039.945    21691047.5074
  21454767.791     5771849.276 8   4524207.36547  21454767.054    21454775.2404
  24607074.595     9851076.168 7   7699826.98845  24607073.886    24607086.4324
  21400046.176     3151934.282 9   2496895.61947  21400046.006    21400052.2674
  21715600.977   -20489292.519 9 -15943929.49447  21715600.803    21715608.0704
 00  8 22 20 26 30.0000000  0  6 11 21 15 31 29 25
  21260122.096   -19210099.032 9 -14950185.21547  21260121.654    21260127.9864
  21700135.465     3814119.769 8   3036522.42847  21700134.859    21700142.4644
  21472181.904     5863360.897 8   4595515.03347  21472181.178    21472189.4134
  24622943.647     9934468.207 7   7764807.60545  24622942.941    24622955.7374
  21411937.757     3214424.822 9   2545589.51347  21411937.584    21411943.8404
  21701898.274   -20561300.365 9 -16000039.41047  21701898.099    21701905.3454
 00  8 22 20 27  0.0000000  0  6 11 21 15 31 29 25
  21251303.636   -19256440.341 9 -14986295.30347  21251303.179    21251309.5014
  21709282.194     3862186.203 8   3073976.74347  21709281.607    21709289.2384
  21489666.418     5955242.322 8   4667110.86147  21489665.714    21489673.9654
  24638825.084    10017924.950 7   7829838.64045  24638824.357    24638837.3324
  21423865.556     3277105.608 9   2594431.66447  21423865.377    21423871.6144
  21688268.502   -20632924.913 9 -16055850.65447  21688268.324    21688275.5504
 00  8 22 20 27 30.0000000  0  7 11 21 20 15 31 29 25
  21242580.910   -19302278.444 9 -15022013.27747  21242580.458    21242586.7714
  21718480.487     3910523.156 8   3111641.85747  21718479.869    21718487.5154
  24711172.269    -6282206.454 7  -4882021.83845  24711171.692    24711183.0564
  21507220.558     6047489.524 8   4738991.71147  21507219.851    21507228.1354
  24654717.975    10101441.658 7   7894916.38345  24654717.254    24654730.1604
  21435828.926     3339973.414 9   2643419.53747  21435828.725    21435834.9764
  21674711.771   -20704165.549 9 -16111362.74747  21674711.570    21674718.7704
 00  8 22 20 28  0.0000000  0  7 11 21 20 15 31 29 25
  21233954.251   -19347611.753 9 -15057337.90547  21233953.800    21233960.1104
  21727730.319     3959131.226 8   3149518.22147  21727729.706    21727737.3694
  24694084.935    -6372000.344 7  -4951990.99245  24694084.382    24694095.8774
  21524843.869     6140100.282 8   4811155.85447  21524843.151    21524851.4344
  24670621.651    10185015.474 7   7960038.65345  24670620.885    24670633.8834
  21447827.583     3403026.726 9   2692551.96147  21447827.378    21447833.6414
  21661228.542   -20775020.052 9 -16166573.96247  21661228.344    21661235.5194
 00  8 22 20 28 30.0000000  0  7 11 21 20 15 31 29 25
  21225424.795   -19392434.245 9 -15092264.49347  21225424.344    21225430.6424
  21737032.557     4008014.625 8   3187609.12647  21737031.976    21737039.6314
  24676994.100    -6461812.952 7  -5021974.71945  24676993.583    24677004.9764
  21542536.712     6233076.220 8   4883604.54647  21542535.992    21542544.2724
  24686536.539    10268647.446 7   8025206.24845  24686535.816    24686548.6414
  21459862.016     3466267.917 8   2741830.78047  21459861.827    21459868.0974
  21647819.963   -20845482.260 9 -16221479.49947  21647819.776    21647826.9324
 00  8 22 20 29  0.0000000  0  7 11 21 20 15 31 29 25
  21216992.579   -19436745.674 9 -15126792.84947  21216992.112    21216998.4064
  21746386.964     4057172.288 8   3225913.74347  21746386.360    21746394.0744
  24659899.486    -6551645.169 7  -5091973.71945  24659898.917    24659910.3774
  21560298.336     6326413.730 8   4956334.98647  21560297.596    21560305.8714
  24702461.637    10352333.303 7   8090415.81645  24702460.981    24702473.7894
  21471931.632     3529694.070 9   2791253.72947  21471931.451    21471937.7054
  21634486.149   -20915551.624 9 -16276078.92047  21634485.957    21634493.1124
 00  8 22 20 29 30.0000000  0  7 11 21 20 15 31 29 25
  21208658.063   -19480543.927 9 -15160921.32447  21208657.582    21208663.8424
  21755793.538     4106604.061 8   3264431.95347  21755792.968    21755800.6994
  24642801.370    -6641495.872 7  -5161987.13845  24642800.844    24642812.3294
  21578128.325     6420110.425 8   5029345.30547  21578127.593    21578135.8424
  24718396.317    10436069.932 7   8155664.93245  24718395.721    24718408.4424
  21484036.169     3593303.785 8   2840819.70547  21484036.001    21484042.2514
  21621227.518   -20985225.788 9 -16330370.39547  21621227.346    21621234.4644
 00  8 22 20 30  0.0000000  0  7 11 21 20 15 31 29 25
  21200421.279   -19523828.344 9 -15194649.40347  21200420.814    21200427.0724
  21765252.218     4156309.599 8   3303163.48447  21765251.630    21765259.3884
  24625699.726    -6731365.506 7  -5232015.28545  24625699.034    24625710.5564
  21596026.062     6514163.387 8   5102633.24347  21596025.333    21596033.5524
  24734339.992    10519853.323 7   8220950.48445  24734339.353    24734352.2394
  21496175.209     3657094.570 8   2890526.78847  21496175.028    21496181.2904
  21608044.295   -21054503.813 9 -16384353.19647  21608044.112    21608051.2174
 00  8 22 20 30 30.0000000  0  7 11 21 20 15 31 29 25
  21192282.786   -19566596.296 9 -15227975.04447  21192282.338    21192288.6034
  21774763.295     4206290.284 8   3342109.42147  21774762.695    21774770.4924
  24608594.694    -6821252.434 7  -5302056.90145  24608594.025    24608605.5344
  21613991.348     6608571.158 8   5176197.65047  21613990.615    21613998.8274
  24750292.136    10603682.029 7   8286271.32945  24750291.509    24750304.5644
  21508348.596     3721066.039 8   2940374.65047  21508348.420    21508354.6954
  21594937.100   -21123382.360 9 -16438024.71547  21594936.896    21594943.9804
 00  8 22 20 31  0.0000000  0  7 11 21 20 15 31 29 25
  21184242.650   -19608847.328 9 -15260897.89147  21184242.214    21184248.4614
  21784326.556     4256545.349 8   3381269.14447  21784325.964    21784333.7564
  24591486.135    -6911157.479 7  -5372112.61445  24591485.449    24591496.9984
  21632023.446     6703330.077 8   5250035.67347  21632022.712    21632030.9374
  24766252.104    10687551.516 7   8351623.95245  24766251.441    24766264.5964
  21520555.769     3785215.095 8   2990360.89047  21520555.599    21520561.8924
  21581906.057   -21191860.648 9 -16491384.34547  21581905.868    21581912.9284
 00  8 22 20 31 30.0000000  0  7 11 21 20 15 31 29 25
  21176301.326   -19650579.258 9 -15293416.24647  21176300.882    21176307.1444
  21793942.122     4307075.239 8   3420643.02547  21793941.518    21793949.3264
  24574374.510    -7001079.083 7  -5442181.22045  24574373.945    24574385.4524
  21650122.047     6798438.553 8   5324146.08247  21650121.283    21650129.5704
  24782219.401    10771459.532 7   8417006.60445  24782218.707    24782231.9644
  21532796.630     3849541.143 8   3040485.05047  21532796.475    21532802.7534
  21568951.699   -21259935.964 9 -16544429.97447  21568951.516    21568958.5524
 00  8 22 20 32  0.0000000  0  7 11 21 20 15 31 29 25
  21168459.016   -19691790.782 9 -15325529.08647  21168458.551    21168464.8044
  21803609.991     4357880.027 8   3460231.10647  21803609.405    21803617.2274
  24557259.876    -7091016.952 7  -5512262.50145  24557259.213    24557270.6154
  21668286.622     6893893.787 8   5398526.68347  21668285.848    21668294.1784
  24798193.449    10855402.779 7   8482416.70645  24798192.887    24798205.9764
  21545070.747     3914042.129 8   3090745.52547  21545070.598    21545076.9034
  21556074.305   -21327606.738 9 -16597160.37647  21556074.121    21556081.1544
 00  8 22 20 32 30.0000000  0  7 11 21 20 15 31 29 25
  21160716.073   -19732480.014 9 -15357234.95147  21160715.631    21160721.8564
  21813330.259     4408960.030 8   3500033.64647  21813329.656    21813337.5204
  24540142.107    -7180970.459 7  -5582355.94545  24540141.504    24540152.7604
  21686516.763     6989693.435 8   5473175.66247  21686515.997    21686524.3684
  24814173.668    10939378.354 7   8547852.00045  24814173.035    24814186.1074
  21557377.912     3978716.584 8   3141141.17147  21557377.758    21557384.0754
  21543274.313   -21394870.821 9 -16649573.87547  21543274.122    21543281.1434
 00  8 22 20 33  0.0000000  0  7 11 21 20 15 31 29 25
  21153072.867   -19772645.203 9 -15388532.46947  21153072.423    21153078.6304
  21823102.922     4460315.585 8   3540050.89947  21823102.331    21823110.1884
  24523021.609    -7270938.672 7  -5652460.86145  24523021.007    24523032.4344
  21704812.020     7085835.247 8   5548091.25547  21704811.232    21704819.6504
  24830159.542    11023383.664 7   8613310.45645  24830158.938    24830171.9984
  21569717.883     4043563.259 8   3191671.00747  21569717.725    21569724.0404
  21530552.151   -21461725.997 9 -16701668.74747  21530551.969    21530558.9464
 00  8 22 20 33 30.0000000  0  7 11 21 20 15 31 29 25
  21145529.671   -19812284.975 9 -15419420.56947  21145529.215    21145535.4254
  21832928.066     4511946.776 8   3580282.93946  21832927.479    21832935.3334
  24505898.408    -7360921.239 8  -5722576.96445  24505897.750    24505909.1704
  21723171.880     7182316.779 8   5623271.56647  21723171.142    21723179.6004
  24846150.486    11107415.530 7   8678789.61845  24846149.869    24846163.0084
  21582090.299     4108580.641 8   3242333.87047  21582090.140    21582096.4654
  21517908.175   -21528170.251 9 -16753443.42947  21517908.022    21517914.9374
 00  8 22 20 34  0.0000000  0  7 11 21 20 15 31 29 25
  21138086.742   -19851397.613 9 -15449897.92047  21138086.288    21138092.4964
  21842805.663     4563853.850 8   3620729.95446  21842805.091    21842812.9594
  24488772.623    -7450917.344 7  -5792703.62645  24488772.046    24488783.1484
  21741595.930     7279135.527 8   5698714.63447  21741595.216    21741603.7424
  24862145.798    11191470.614 7   8744286.88245  24862145.204    24862158.3044
  21594494.853     4173766.970 8   3293128.37347  21594494.672    21594501.0184
  21505342.721   -21594201.902 9 -16804896.59647  21505342.551    21505349.4544
 00  8 22 20 34 30.0000000  0  7 11 21 20 15 31 29 25
  21130744.462   -19889981.324 9 -15479963.12447  21130744.020    21130750.2154
  21852735.991     4616037.819 8   3661392.73046  21852735.436    21852743.2514
  24471644.367    -7540925.922 7  -5862839.95645  24471643.755    24471654.8964
  21760083.784     7376289.711 8   5774419.08146  21760083.088    21760091.6584
  24878145.151    11275546.759 7   8809800.54245  24878144.568    24878157.8294
  21606931.435     4239121.372 8   3344053.84747  21606931.263    21606937.5824
  21492856.278   -21659818.426 9 -16856026.29147  21492856.105    21492862.9974
 00  8 22 20 35  0.0000000  0  7 11 21 20 15 31 29 25
  21123503.013   -19928035.367 9 -15509615.59647  21123502.563    21123508.7594
  21862718.850     4668497.770 8   3702270.56546  21862718.305    21862726.1014
  24454513.792    -7630946.820 7  -5932985.89045  24454513.013    24454524.2494
  21778634.854     7473775.953 8   5850382.27946  21778634.145    21778642.7814
  24894147.748    11359640.401 7   8875327.83045  24894147.230    24894160.5564
  21619399.545     4304641.594 8   3395108.52747  21619399.351    21619405.6644
  21480449.115   -21725018.273 9 -16906831.29747  21480448.945    21480455.8114
 00  8 22 20 35 30.0000000  0  7 11 21 20 15 31 29 25
  21116362.762   -19965557.530 9 -15538853.62047  21116362.327    21116368.4994
  21872754.417     4721234.713 8   3743364.22646  21872753.877    21872761.7064
  24437381.221    -7720978.645 8  -6003140.36345  24437380.464    24437391.6044
  21797248.851     7571592.521 8   5926602.86946  21797248.109    21797256.7424
  24910153.281    11443749.109 7   8940866.84545  24910152.659    24910166.1184
  21631899.053     4370326.747 8   3446291.73447  21631898.858    21631905.1884
  21468121.695   -21789799.201 9 -16957309.87847  21468121.509    21468128.3484
 00  8 22 20 36  0.0000000  0  6 11 21 20 15 29 25
  21109325.097   -20002540.576 9 -15567671.55647  21109324.679    21109330.8204
  21882843.732     4774254.126 8   3784678.00246  21882843.173    21882851.0184
  24420247.695    -7811015.314 7  -6073298.59645  24420246.895    24420258.0454
  21815926.322     7669742.706 8   6003083.42546  21815925.559    21815934.1864
  21644430.709     4436180.939 8   3497606.65047  21644430.532    21644436.8534
  21455875.411   -21854153.637 9 -17007456.12947  21455875.207    21455882.0344
 00  8 22 20 36 30.0000000  0  6 11 21 20 15 29 25
  21102389.266   -20038988.455 9 -15596072.48047  21102388.850    21102394.9934
  21892985.803     4827550.905 8   3826207.90246  21892985.241    21892993.1224
  24403112.290    -7901061.530 7  -6143464.24745  24403111.319    24403122.6964
  21834665.772     7768218.479 8   6079817.67946  21834664.996    21834673.5834
  21656993.240     4502197.328 8   3549047.97347  21656993.046    21656999.3744
  21443709.542   -21918085.372 9 -17057272.99947  21443709.329    21443716.1554
 00  8 22 20 37  0.0000000  0  6 11 21 20 15 29 25
  21095555.001   -20074902.643 9 -15624057.54447  21095554.572    21095560.7144
  21903180.152     4881122.324 8   3867951.80246  21903179.564    21903187.4794
  24385974.624    -7991119.660 7  -6213639.22645  24385973.822    24385985.1494
  21853466.125     7867014.515 8   6156801.48646  21853465.360    21853473.9094
  21669585.768     4568371.352 8   3600612.11047  21669585.598    21669591.9074
  21431623.998   -21981595.100 9 -17106761.04047  21431623.786    21431630.6144
 00  8 22 20 37 30.0000000  0  6 11 21 20 15 29 25
  21088822.773   -20110280.823 9 -15651624.93647  21088822.332    21088828.4534
  21913426.976     4934969.689 8   3909910.72946  21913426.430    21913434.3434
  24368835.166    -8081187.705 7  -6283821.92745  24368834.277    24368845.4924
  21872327.122     7966129.197 8   6234033.59546  21872326.353    21872334.9524
  21682208.197     4634702.679 8   3652298.84047  21682208.000    21682214.3324
  21419619.229   -22044680.291 9 -17155918.26947  21419619.037    21419625.8484
 00  8 22 20 38  0.0000000  0  6 11 21 20 15 29 25
  21082192.904   -20145120.778 9 -15678772.93347  21082192.492    21082198.6004
  21923726.521     4989093.979 8   3952085.44246  21923725.980    21923733.9044
  24351693.993    -8171264.080 7  -6354011.08945  24351693.193    24351704.3174
  21891248.455     8065560.964 8   6311512.77946  21891247.664    21891256.2834
  21694860.414     4701190.532 8   3704107.52547  21694860.241    21694866.6104
  21407695.814   -22107337.906 9 -17204742.31947  21407695.631    21407702.4374
 00  8 22 20 38 30.0000000  0  6 11 21 20 15 29 25
  21075665.797   -20179420.760 9 -15705500.17447  21075665.371    21075671.5004
  21934078.826     5043495.467 8   3994476.15346  21934078.254    21934086.2104
  24334551.339    -8261348.116 7  -6424206.23845  24334550.602    24334561.7804
  21910229.719     8165307.389 8   6389237.15046  21910228.904    21910237.5224
  21707542.225     4767833.802 8   3756037.32047  21707542.071    21707548.4404
  21395854.192   -22169565.758 9 -17253231.48647  21395854.009    21395860.8114
 00  8 22 20 39  0.0000000  0  6 11 21 20 15 29 25
  21069241.885   -20213178.630 9 -15731804.99147  21069241.458    21069247.5784
  21944484.009     5098174.761 8   4037083.33746  21944483.450    21944491.3704
  24317407.571    -8351438.265 7  -6494406.16845  24317406.860    24317418.0044
  21929270.501     8265366.866 8   6467205.45746  21929269.702    21929278.3254
  21720253.484     4834631.816 8   3808087.68947  21720253.331    21720259.7024
  21384094.809   -22231361.394 9 -17301383.86747  21384094.620    21384101.3804
 00  8 22 20 39 30.0000000  0  6 11 21 20 15 29 25
  21062921.302   -20246393.457 9 -15757686.65347  21062920.863    21062926.9894
  21954942.122     5153132.075 8   4079907.16046  21954941.540    21954949.4814
  24300262.776    -8441534.026 7  -6564610.47645  24300261.999    24300273.1484
  21948370.371     8365736.824 8   6545415.69146  21948369.600    21948378.2204
  21732993.826     4901582.588 8   3860257.09647  21732993.652    21733000.0484
  21372417.977   -22292723.398 9 -17349198.34947  21372417.793    21372424.4924
 00  8 22 20 40  0.0000000  0  6 11 21 20 15 29 25
  21056704.388   -20279063.628 9 -15783143.91447  21056703.957    21056710.0504
  21965453.118     5208367.411 8   4122947.62246  21965452.533    21965460.4614
  24283117.139    -8531634.169 7  -6634818.19545  24283116.399    24283127.3264
  21967528.856     8466415.038 8   6623866.11646  21967528.066    21967536.7614
  21745763.058     4968685.175 8   3912544.79247  21745762.901    21745769.2674
  21360824.092   -22353649.734 9 -17396673.35547  21360823.889    21360830.5504
 00  8 22 20 40 30.0000000  0  6 11 21 20 15 29 25
  21050591.359   -20311187.648 9 -15808175.60447  21050590.909    21050596.9994
  21976017.071     5263881.078 8   4166204.97046  21976016.510    21976024.3814
  24265970.814    -8621738.090 7  -6705028.84545  24265970.208    24265980.9234
  21986745.460     8567398.824 8   6702554.65046  21986744.683    21986753.4604
  21758560.879     5035938.024 8   3964949.58247  21758560.722    21758567.0744
  21349313.429   -22414138.466 9 -17443807.36647  21349313.218    21349319.8774
 00  8 22 20 41  0.0000000  0  6 11 21 20 15 29 25
  21044582.437   -20342764.806 9 -15832781.16747  21044581.969    21044588.0524
  21986633.978     5319672.986 8   4209679.12046  21986633.410    21986641.3114
  24248823.922    -8711845.170 7  -6775241.98045  24248823.279    24248833.8534
  22006019.669     8668685.032 8   6781478.83746  22006018.890    22006027.7034
  21771386.998     5103339.480 8   4017470.16647  21771386.823    21771393.1774
  21337886.226   -22474188.459 9 -17490599.49747  21337886.039    21337892.6714
 00  8 22 20 41 30.0000000  0  6 11 21 20 15 29 25
  21038677.862   -20373793.477 9 -15856959.33847  21038677.397    21038683.4974
  21997303.886     5375743.603 8   4253370.44646  21997303.354    21997311.2614
  24231676.573    -8801954.670 7  -6845457.00945  24231675.919    24231686.4774
  22025351.042     8770271.645 8   6860637.10546  22025350.267    22025359.1114
  21784241.155     5170888.360 8   4070105.62647  21784240.964    21784247.3444
  21326542.975   -22533797.304 9 -17537047.87847  21326542.772    21326549.4124
 00  8 22 20 42  0.0000000  0  6 11 21 20 15 29 25
  21032877.893   -20404272.345 9 -15880709.08947  21032877.412    21032883.5404
  22008026.862     5432093.088 8   4297279.07746  22008026.320    22008034.2844
  24214528.896    -8892065.753 7  -6915673.27145  24214528.261    24214538.7854
  22044739.098     8872156.067 8   6940027.43146  22044738.335    22044747.1754
  21797123.085     5238583.117 8   4122854.75447  21797122.906    21797129.2634
  21315284.043   -22592963.242 9 -17583151.13947  21315283.826    21315290.4524
 00  8 22 20 42 30.0000000  0  6 11 21 20 15 29 25
  21027182.836   -20434199.902 9 -15904029.25447  21027182.374    21027188.4744
  22018802.888     5488721.330 8   4341404.91046  22018802.320    22018810.3394
  24197381.219    -8982177.099 7  -6985889.73645  24197380.603    24197390.9144
  22064183.433     8974336.060 8   7019648.07446  22064182.634    22064191.4704
  21810032.580     5306422.788 8   4175716.79347  21810032.389    21810038.7544
  21304109.721   -22651684.367 9 -17628907.79447  21304109.512    21304116.1024
 00  8 22 20 43  0.0000000  0  6 11 21 20 15 29 25
  21021592.952   -20463574.959 9 -15926918.89747  21021592.484    21021598.6014
  22029632.042     5545628.700 8   4385748.24746  22029631.453    22029639.5524
  24180233.549    -9072288.143 8  -7056105.97845  24180232.844    24180243.2664
  22083683.489     9076808.998 8   7099496.98046  22083682.715    22083691.5464
  21822969.352     5374405.844 8   4228690.57047  21822969.183    21822975.5714
  21293020.313   -22709959.284 9 -17674316.74947  21293020.099    21293026.6914
 00  8 22 20 43 30.0000000  0  6 11 21 20 15 29 25
  21016108.406   -20492396.324 9 -15949377.09147  21016107.951    21016114.0624
  22040514.408     5602815.442 8   4430309.28146  22040513.800    22040521.8754
  24163086.026    -9162398.082 7  -7126321.36145  24163085.324    24163095.8004
  22103238.830     9179572.363 8   7179572.19746  22103238.067    22103246.9074
  21835933.164     5442530.912 8   4281775.00547  21835932.998    21835939.3814
  21282016.184   -22767786.245 9 -17719376.65547  21282015.977    21282022.5364
 00  8 22 20 44  0.0000000  0  6 11 21 20 15 29 25
  21010729.479   -20520662.745 9 -15971402.86347  21010729.035    21010735.1294
  22051449.959     5660281.750 8   4475088.15646  22051449.369    22051457.3884
  24145938.920    -9252505.903 8  -7196535.08945  24145938.175    24145948.6874
  22122848.947     9282623.740 8   7259871.82946  22122848.180    22122857.0374
  21848923.776     5510796.750 8   4334969.12947  21848923.605    21848929.9944
  21271097.642   -22825163.252 9 -17764085.94547  21271097.446    21271103.9574
 00  8 22 20 44 30.0000000  0  6 11 21 20 15 29 25
  21005456.406   -20548372.938 9 -15992995.21147  21005455.945    21005462.0524
  22062438.622     5718027.399 8   4520084.70446  22062438.052    22062446.1214
  24128792.434    -9342610.560 8  -7266746.36345  24128791.725    24128802.1724
  22142513.429     9385960.789 8   7340394.05846  22142512.687    22142521.6104
  21861940.892     5579202.032 8   4388271.91547  21861940.733    21861947.1144
  21260265.068   -22882088.499 9 -17808443.21447  21260264.875    21260271.3774
 00  8 22 20 45  0.0000000  0  6 11 21 20 15 29 25
  21000289.333   -20575526.050 9 -16014153.46647  21000288.882    21000294.9724
  22073480.529     5776052.639 8   4565299.11146  22073479.978    22073487.9934
  24111646.667    -9432711.639 7  -7336954.85945  24111646.025    24111656.2964
  22162231.656     9489580.635 8   7421136.65046  22162230.937    22162239.9754
  21874984.220     5647745.055 8   4441682.02247  21874984.064    21874990.4654
  21249518.676   -22938560.891 9 -17852447.61547  21249518.465    21249524.9704
 00  8 22 20 45 30.0000000  0  6 11 21 20 15 29 25
  20995228.449   -20602120.931 9 -16034876.73447  20995228.006    20995234.1054
  22084575.619     5834357.433 8   4610731.34346  22084575.096    22084583.1264
  24094501.655    -9522808.269 8  -7407159.86745  24094501.074    24094511.3824
  22182003.267     9593480.637 8   7502097.53146  22182002.549    22182011.6794
  21888053.537     5716424.737 8   4495198.62747  21888053.406    21888059.7844
  21238858.834   -22994578.465 9 -17896097.61147  21238858.614    21238865.1214
 00  8 22 20 46  0.0000000  0  6 11 21 20 15 29 25
  20990274.022   -20628156.671 9 -16055164.30647  20990273.576    20990279.6574
  22095723.809     5892941.410 8   4656381.13146  22095723.239    22095731.3364
  24077357.718    -9612899.716 8  -7477360.84445  24077357.123    24077367.3764
  22201827.605     9697657.894 8   7583274.46946  22201826.915    22201836.0544
  21901148.560     5785239.275 8   4548820.30047  21901148.420    21901154.8024
  21228285.730   -23050140.130 9 -17939392.35247  21228285.514    21228292.0264
 00  8 22 20 46 30.0000000  0  6 11 21 20 15 29 25
  20985426.319   -20653631.510 9 -16075014.81447  20985425.852    20985431.9334
  22106925.264     5951805.286 8   4702249.01446  22106924.714    22106932.8444
  24060214.993    -9702984.626 7  -7547556.72445  24060214.381    24060224.5594
  22221704.443     9802110.705 8   7664666.11546  22221703.754    22221712.9234
  21914269.084     5854188.044 8   4602546.59347  21914268.947    21914275.3214
  21217799.904   -23105243.301 9 -17982329.83047  21217799.713    21217806.1914
 00  8 22 20 47  0.0000000  0  6 11 21 20 15 29 25
  20980685.480   -20678544.880 9 -16094427.81747  20980685.044    20980691.1064
  22118179.982     6010948.962 8   4748334.92946  22118179.413    22118187.5534
  24043073.677    -9793062.227 8  -7617746.90145  24043072.997    24043083.2314
  22241633.123     9906836.090 8   7746270.16646  22241632.448    22241641.6084
  21927414.847     5923269.277 8   4656376.08947  21927414.647    21927421.0434
  21207401.582   -23159886.626 9 -18024908.98947  21207401.382    21207407.8494
 00  8 22 20 47 30.0000000  0  6 11 21 20 15 29 25
  20976051.686   -20702895.636 9 -16113402.41847  20976051.222    20976057.2814
  22129488.006     6070372.701 8   4794639.07546  22129487.455    22129495.5514
  24025933.905    -9883131.831 8  -7687930.84945  24025933.243    24025943.4954
  22261613.266    10011831.425 8   7828084.56946  22261612.536    22261621.7474
  21940585.523     5992481.656 8   4710307.77947  21940585.369    21940591.7584
  21197090.993   -23214068.911 9 -18067128.89647  21197090.790    21197097.2354
 00  8 22 20 48  0.0000000  0  6 11 21 20 15 29 25
  20971525.204   -20726682.600 9 -16131937.69847  20971524.736    20971530.7734
  22140849.175     6130075.863 8   4841160.95746  22140848.610    22140856.7314
  24008795.890    -9973192.367 7  -7758107.73745  24008795.218    24008805.3704
  22281644.237    10117094.250 8   7910107.39746  22281643.499    22281652.7274
  21953780.933     6061823.936 8   4764340.69147  21953780.784    21953787.1814
  21186868.493   -23267788.352 9 -18108988.14547  21186868.306    21186874.7124
 00  8 22 20 48 30.0000000  0  6 11 21 20 15 29 25
  20967106.175   -20749904.734 9 -16150032.86247  20967105.705    20967111.7174
  22152263.566     6190058.590 8   4887900.68046  22152262.988    22152271.1204
  23991659.680   -10063242.911 7  -7828276.83845  23991658.991    23991669.2074
  22301725.622    10222621.977 8   7992336.63846  22301724.877    22301734.1514
  21967000.850     6131294.984 8   4818473.93846  21967000.692    21967007.1194
  21176734.366   -23321043.495 9 -18150485.60447  21176734.152    21176740.5554
 00  8 22 20 49  0.0000000  0  6 11 21 20 15 29 25
  20962794.787   -20772560.979 9 -16167687.06647  20962794.339    20962800.3504
  22163731.328     6250321.705 8   4934858.87846  22163730.759    22163738.9234
  23974525.542   -10153282.364 8  -7898437.28245  23974525.002    23974535.0604
  22321856.934    10328412.137 8   8074770.37246  22321856.171    22321865.5144
  21980245.014     6200893.594 8   4872706.58746  21980244.873    21980251.3224
  21166688.924   -23373832.376 9 -18191619.73547  21166688.726    21166695.1034
 00  8 22 20 49 30.0000000  0  6 11 21 20 15 29 25
  20958591.300   -20794650.468 9 -16184899.64647  20958590.840    20958596.8514
  22175252.347     6310864.996 8   4982035.39546  22175251.802    22175259.9824
  23957393.861   -10243309.759 8  -7968588.32845  23957393.262    23957403.3314
  22342037.634    10434461.826 8   8157406.32446  22342036.840    22342046.2394
  21993513.218     6270618.436 8   4927037.59546  21993513.078    21993519.5914
  21156732.425   -23426153.870 9 -18232389.67847  21156732.239    21156738.5704
 00  8 22 20 50  0.0000000  0  6 11 21 20 15 29 25
  20954495.812   -20816172.433 9 -16201670.00047  20954495.355    20954501.3524
  22186826.694     6371688.256 8   5029430.05946  22186826.140    22186834.3654
  23940264.444   -10333324.635 8  -8038729.63845  23940263.801    23940273.8194
  22362267.194    10540768.490 8   8240242.51546  22362266.445    22362275.9034
  22006805.137     6340467.857 8   4981465.68246  22006804.976    22006811.4924
  21146865.169   -23478006.449 9 -18272794.23147  21146864.960    21146871.2884
 00  8 22 20 50 30.0000000  0  6 11 21 20 15 29 25
  20950508.589   -20837125.476 9 -16217997.03547  20950508.095    20950514.1084
  22198454.439     6432792.099 8   5077043.37846  22198453.860    22198462.1074
  23923137.741   -10423325.385 8  -8108859.94045  23923137.107    23923147.0434
  22382545.349    10647330.271 8   8323277.51046  22382544.587    22382554.1234
  22020120.655     6410441.224 8   5035990.35446  22020120.468    22020127.0044
  21137087.488   -23529388.306 9 -18312831.98647  21137087.289    21137093.5994
 00  8 22 20 51  0.0000000  0  6 11 21 20 15 29 25
  20946629.699   -20857509.337 9 -16233880.55947  20946629.170    20946635.1934
  22210135.235     6494174.979 8   5124874.12946  22210134.664    22210142.9724
  23906013.836   -10513311.826 8  -8178979.08845  23906013.152    23906023.1054
  22402871.391    10754143.692 8   8406508.56946  22402870.605    22402880.2164
  22033459.354     6480536.497 8   5090610.00846  22033459.194    22033465.7184
  21127399.485   -23580298.885 9 -18352502.50747  21127399.266    21127405.5864
 00  8 22 20 51 30.0000000  0  6 11 21 20 15 29 25
  20942859.327   -20877322.728 9 -16249319.56447  20942858.820    20942864.8444
  22221869.338     6555837.769 8   5172922.98746  22221868.770    22221877.1064
  23888892.875   -10603282.586 8  -8249086.02045  23888892.214    23888902.1114
  22423244.934    10861206.492 8   8489933.96346  22423244.141    22423253.7724
  22046821.108     6550752.685 8   5145323.88546  22046820.924    22046827.4344
  21117801.642   -23630735.744 9 -18391803.90547  21117801.420    21117807.7534
 00  8 22 20 52  0.0000000  0  6 11 21 20 15 29 25
  20939197.581   -20896565.238 9 -16264313.72147  20939197.056    20939203.0844
  22233656.726     6617780.613 8   5221190.07646  22233656.150    22233664.4674
  23871775.062   -10693236.931 8  -8319180.17945  23871774.435    23871784.2134
  22443665.304    10968515.772 8   8573551.41546  22443664.574    22443674.1614
  22060205.585     6621088.509 8   5200130.98546  22060205.407    22060211.9104
  21108294.070   -23680698.039 9 -18430735.50747  21108293.852    21108300.1784
 00  8 22 20 52 30.0000000  0  6 11 21 20 15 29 25
  20935644.741   -20915235.419 9 -16278861.91147  20935644.225    20935650.2754
  22245497.390     6680003.519 8   5269675.36946  22245496.853    22245505.2344
  23854660.614   -10783173.430 8  -8389260.42045  23854660.023    23854669.6954
  22464132.192    11076069.230 8   8657359.12346  22464131.416    22464141.1114
  22073612.695     6691543.037 8   5255030.58146  22073612.536    22073619.0184
  21098877.166   -23730183.968 9 -18469295.91547  21098876.952    21098883.2544
 00  8 22 20 53  0.0000000  0  6 11 21 20 15 29 25
  20932200.948   -20933332.756 9 -16292963.72647  20932200.449    20932206.4864
  22257391.329     6742506.379 8   5318378.82746  22257390.758    22257399.1784
  23837549.706   -10873091.152 8  -8459326.01345  23837549.178    23837558.6744
  22484645.088    11183864.356 8   8741355.16046  22484644.274    22484653.9374
  22087042.122     6762114.927 8   5310021.63046  22087041.939    22087048.4224
  21089551.174   -23779192.113 9 -18507484.02547  21089550.958    21089557.2624
 00  8 22 20 53 30.0000000  0  6 11 21 20 15 29 25
  20928866.248   -20950856.500 9 -16306618.58247  20928865.788    20928871.8134
  22269338.531     6805289.207 8   5367300.43046  22269337.958    22269346.4184
  23820442.543   -10962989.180 8  -8529376.27445  23820441.991    23820451.4874
  22505203.330    11291898.077 8   8825537.10846  22505202.532    22505212.1654
  22100493.633     6832802.914 8   5365103.14346  22100493.446    22100499.9674
  21080316.375   -23827721.200 9 -18545298.84347  21080316.171    21080322.4534
 00  8 22 20 54  0.0000000  0  6 11 21 20 15 29 25
  20925640.885   -20967805.926 9 -16319825.92647  20925640.401    20925646.4464
  22281339.012     6868351.995 8   5416440.19146  22281338.450    22281346.9294
  23803339.275   -11052866.777 8  -8599410.61245  23803338.662    23803348.2294
  22525806.488    11400167.855 8   8909902.99146  22525805.719    22525815.3644
  22113966.983     6903605.554 8   5420274.00346  22113966.759    22113973.3394
  21071172.910   -23875770.078 9 -18582739.47547  21071172.731    21071179.0034
 00  8 22 20 54 30.0000000  0  6 11 21 20 15 29 25
  20922524.997   -20984179.934 9 -16332584.88947  20922524.518    20922530.5624
  22293392.871     6931695.021 8   5465798.32146  22293392.295    22293400.7584
  23786240.175   -11142722.636 8  -8669428.02445  23786239.480    23786249.0824
  22546454.146    11508671.375 8   8994451.00646  22546453.345    22546463.0324
  22127461.912     6974521.951 8   5475533.49946  22127461.707    22127468.3114
  21062121.116   -23923337.315 9 -18619804.80147  21062120.937    21062127.1864
 00  8 22 20 55  0.0000000  0  6 11 21 20 15 29 25
  20919518.744   -20999977.847 9 -16344894.94847  20919518.299    20919524.3164
  22305499.941     6995317.735 8   5515374.38246  22305499.354    22305507.8014
  23769145.313   -11232555.682 8  -8739427.64845  23769144.634    23769154.2604
  22567145.829    11617406.215 8   9079179.26546  22567145.020    22567154.7874
  22140978.342     7045550.988 8   5530880.78346  22140978.110    22140984.7574
  21053161.330   -23970421.198 9 -18656493.48847  21053161.120    21053167.3714
 00  8 22 20 55 30.0000000  0  6 11 21 20 15 29 25
  20916622.203   -21015199.179 9 -16356755.72547  20916621.764    20916627.8004
  22317660.249     7059220.272 8   5565168.49546  22317659.675    22317668.0834
  23752055.086   -11322364.923 8  -8809408.74045  23752054.455    23752063.9784
  22587880.918    11726369.368 8   9164085.43046  22587880.156    22587889.9364
  22154515.874     7116691.235 8   5586314.71346  22154515.678    22154522.3124
  21044293.711   -24017020.644 9 -18692804.68847  21044293.509    21044299.7444
 00  8 22 20 56  0.0000000  0  6 11 21 20 15 29 25
  20913835.579   -21029842.986 9 -16368166.48747  20913835.123    20913841.1384
  22329873.806     7123402.674 8   5615180.68346  22329873.220    22329881.6284
  23734969.564   -11412149.099 8  -8879370.29645  23734968.893    23734978.5124
  22608659.042    11835558.350 8   9249167.56546  22608658.281    22608668.1324
  22168074.367     7187941.678 8   5641834.50846  22168074.162    22168080.8364
  21035518.529   -24063134.169 9 -18728737.25447  21035518.334    21035524.5664
 00  8 22 20 56 30.0000000  0  6 11 21 20 15 29 25
  20911158.863   -21043909.195 9 -16379127.17547  20911158.406    20911164.4594
  22342140.541     7187864.232 8   5665410.39646  22342139.958    22342148.4004
  23717888.912   -11501907.918 8  -8949312.09145  23717888.148    23717897.8314
  22629479.610    11944970.140 8   9334423.32046  22629478.827    22629488.7264
  22181653.576     7259300.606 8   5697438.84746  22181653.360    22181660.0654
  21026835.980   -24108761.117 9 -18764290.66747  21026835.785    21026842.0124
 00  8 22 20 57  0.0000000  0  6 11 21 20 15 29 25
  20908592.262   -21057396.600 9 -16389636.84447  20908591.813    20908597.8774
  22354460.400     7252605.443 8   5715858.00646  22354459.859    22354468.2944
  23700813.401   -11591639.771 8  -9019232.85945  23700812.629    23700822.3094
  22650342.127    12054602.536 8   9419850.96546  22650341.355    22650351.3404
  22195253.295     7330767.516 8   5753127.31946  22195253.066    22195259.7844
  21018246.348   -24153899.773 9 -18799463.59347  21018246.161    21018252.3604
 00  8 22 20 57 30.0000000  0  6 11 21 20 15 29 25
  20906135.785   -21070305.290 9 -16399695.57347  20906135.354    20906141.4254
  22366833.487     7317625.873 8   5766523.19046  22366832.953    22366841.3654
  23683743.131   -11681343.965 8  -9089132.07945  23683742.366    23683752.0224
  22671246.039    12164452.447 8   9505448.10146  22671245.253    22671255.2574
  22208873.176     7402340.549 8   5808898.48446  22208872.997    22208879.7054
  21009749.781   -24198549.335 9 -18834255.41147  21009749.573    21009755.7634
 00  8 22 20 58  0.0000000  0  6 11 21 20 15 29 25
  20903789.656   -21082634.286 9 -16409302.58447  20903789.228    20903795.3254
  22379259.649     7382925.514 8   5817405.94546  22379259.091    22379267.5954
  23666678.485   -11771019.031 8  -9159008.61745  23666677.660    23666687.2944
  22692190.895    12274517.512 8   9591212.89646  22692190.103    22692200.1484
  22222513.107     7474018.860 8   5864751.69446  22222512.974    22222519.6994
  21001346.575   -24242708.306 9 -18868664.94347  21001346.381    21001352.5374
 00  8 22 20 58 30.0000000  0  6 11 21 20 15 29 25
  20901553.944   -21094382.804 9 -16418457.27947  20901553.516    20901559.6374
  22391738.926     7448504.300 8   5868506.20246  22391738.412    22391746.9334
  23649619.415   -11860663.868 8  -9228861.60245  23649618.650    23649628.2624
  22713176.189    12384795.346 8   9677143.46446  22713175.425    22713185.5404
  22236172.976     7545801.641 8   5920686.29246  22236172.798    22236179.5264
  20993037.028   -24286375.084 9 -18902690.95147  20993036.853    20993042.9904
 00  8 22 20 59  0.0000000  0  6 11 21 20 15 29 25
  20899428.856   -21105550.242 9 -16427159.18147  20899428.427    20899434.5614
  22404271.362     7514362.237 8   5919823.96546  22404270.806    22404279.3754
  23632566.427   -11950277.371 8  -9298690.16145  23632565.665    23632575.2564
  22734201.442    12495283.144 8   9763237.64446  22734200.660    22734210.8824
  22249852.450     7617687.517 8   5976701.23046  22249852.278    22249858.9944
  20984821.432   -24329548.256 9 -18936332.33447  20984821.231    20984827.3604
 00  8 22 20 59 30.0000000  0  6 11 21 20 15 29 25
  20897414.425   -21116136.305 9 -16435408.06747  20897413.991    20897420.1154
  22416856.853     7580499.216 8   5971359.17146  22416856.333    22416864.9364
  23615519.663   -12039858.524 8  -9368493.54345  23615518.917    23615528.3134
  22755266.173    12605978.280 8   9849493.38846  22755265.387    22755275.6634
  22263551.316     7689675.305 8   6032795.58246  22263551.135    22263557.8364
  20976699.816   -24372227.297 9 -18969588.67447  20976699.623    20976705.7234
 00  8 22 21  0  0.0000000  0  6 11 21 20 15 29 25
  20895510.733   -21126140.454 9 -16443203.51147  20895510.279    20895516.4154
  22429495.377     7646914.880 8   6023111.53246  22429494.864    22429503.5224
  23598479.130   -12129406.301 8  -9438270.89145  23598478.353    23598487.7544
  22776369.810    12716877.982 8   9935908.52846  22776369.047    22776379.3684
  22277269.289     7761763.902 8   6088968.46846  22277269.117    22277275.8174
  20968672.498   -24414410.938 9 -19002458.99047  20968672.310    20968678.3904
 00  8 22 21  0 30.0000000  0  6 11 21 20 15 29 25
  20893717.784   -21135562.220 9 -16450545.15147  20893717.360    20893723.4994
  22442186.987     7713609.361 8   6075081.15646  22442186.437    22442195.1774
  23581445.224   -12218919.485 8  -9508021.29645  23581444.467    23581453.8214
  22797511.892    12827979.768 8  10022481.14346  22797511.141    22797521.4574
  22291006.273     7833952.143 8   6145219.02446  22291006.088    22291012.8384
  20960739.686   -24456097.949 9 -19034942.32148  20960739.512    20960745.5744
 00  8 22 21  1  0.0000000  0  6 11 21 20 15 29 25
  20892035.847   -21144400.926 9 -16457432.46047  20892035.435    20892041.5664
  22454931.641     7780582.729 8   6127268.09446  22454931.105    22454939.8734
  23564418.182   -12308396.737 8  -9577743.68945  23564417.383    23564426.7224
  22818691.951    12939281.056 8  10109209.20546  22818691.218    22818701.6054
  22304762.068     7906239.054 8   6201546.45846  22304761.855    22304768.6504
  20952901.611   -24497287.165 9 -19067037.76248  20952901.418    20952907.4874
 00  8 22 21  1 30.0000000  0  6 11 21 20 15 29 25
  20890464.894   -21152656.549 9 -16463865.41547  20890464.452    20890470.5624
  22467729.227     7847834.001 8   6179671.58346  22467728.675    22467737.4194
  23547398.124   -12397837.298 8  -9647437.50645  23547397.296    23547406.6994
  22839909.421    13050778.852 8  10196090.38246  22839908.670    22839919.1614
  22318536.280     7978623.218 8   6257949.66446  22318536.079    22318542.8984
  20945158.395   -24537977.793 9 -19098744.69948  20945158.219    20945164.2714
 00  8 22 21  2  0.0000000  0  6 11 21 20 15 29 25
  20889004.977   -21160328.593 9 -16469843.63247  20889004.523    20889010.6174
  22480579.666     7915363.277 8   6232291.69746  22480579.119    22480587.9224
  23530385.256   -12487239.808 8  -9717101.68845  23530384.464    23530393.8924
  22861163.911    13162470.814 8  10283122.87146  22861163.126    22861173.6414
  22332328.935     8051104.000 8   6314428.16846  22332328.750    22332335.5594
  20937510.367   -24578168.242 9 -19130061.88148  20937510.173    20937516.2284
 00  8 22 21  2 30.0000000  0  6 11 21 20 15 29 25
  20887656.133   -21167416.795 9 -16475366.90247  20887655.717    20887661.7904
  22493483.054     7983170.496 8   6285128.38946  22493482.526    22493491.2734
  23513379.867   -12576603.386 8  -9786735.51845  23513379.106    23513388.5144
  22882454.696    13274353.852 8  10370304.25146  22882453.946    22882464.4774
  22346139.660     8123679.793 8   6370980.70646  22346139.480    22346146.3104
  20929957.559   -24617858.207 9 -19160989.07648  20929957.382    20929963.4414
 00  8 22 21  3  0.0000000  0  6 11 21 20 15 29 25
  20886418.514   -21173920.753 9 -16480434.91747  20886418.094    20886424.1414
  22506439.355     8051255.688 8   6338181.70046  22506438.757    22506447.5274
  23496382.131   -12665926.691 8  -9856337.96245  23496381.404    23496390.7754
  22903781.400    13386425.444 8  10457632.55046  22903780.612    22903791.1974
  22359968.313     8196349.680 8   6427606.55846  22359968.156    22359974.9654
  20922500.260   -24657046.272 9 -19191525.18148  20922500.075    20922506.1334
 00  8 22 21  3 30.0000000  0  6 11 21 20 15 29 25
  20885292.143   -21179839.834 9 -16485047.18247  20885291.723    20885297.7574
  22519448.428     8119618.453 8   6391451.29346  22519447.850    22519456.6204
  23479392.298   -12755208.344 8  -9925907.96145  23479391.526    23479400.8514
  22925143.496    13498683.115 8  10545105.83946  22925142.684    22925153.3284
  22373814.712     8269112.715 8   6484304.99946  22373814.550    22373821.3644
  20915138.704   -24695731.234 9 -19221669.25648  20915138.531    20915144.5694
 00  8 22 21  4  0.0000000  0  7 11 30 21 20 15 29 25
  20884277.115   -21185174.074 9 -16489203.72547  20884276.676    20884282.6944
  24606970.700    -5363543.509 7  -3989680.40945  24606970.599    24606979.2204
  22532510.392     8188258.848 8   6444937.22846  22532509.818    22532518.5964
  23462410.606   -12844447.319 8  -9995444.70045  23462409.832    23462419.0514
  22946540.430    13611123.891 8  10632721.80646  22946539.651    22946550.2664
  22387678.618     8341967.810 8   6541075.17346  22387678.432    22387685.2324
  20907873.020   -24733912.523 9 -19251420.85848  20907872.841    20907878.8714
 00  8 22 21  4 30.0000000  0  7 11 30 21 20 15 29 25
  20883373.492   -21189922.554 9 -16492903.84047  20883373.072    20883379.0934
  24601092.371    -5394433.886 7  -4013750.74645  24601092.288    24601100.7554
  22545625.106     8257177.067 8   6498639.64546  22545624.569    22545633.2624
  23445437.289   -12933641.962 8 -10064946.89545  23445436.562    23445445.7724
  22967971.835    13723745.858 8  10720478.94946  22967971.074    22967981.8164
  22401559.878     8414914.259 8   6597916.52746  22401559.663    22401566.5164
  20900703.557   -24771588.151 9 -19280778.44148  20900703.374    20900709.4004
 00  8 22 21  5  0.0000000  0  7 11 30 21 20 15 29 25
  20882581.248   -21194085.784 9 -16496147.91447  20882580.840    20882586.8664
  24595298.911    -5424878.578 7  -4037473.80945  24595298.919    24595307.2714
  22558792.600     8326372.015 8   6552557.71246  22558792.034    22558800.7524
  23428472.574   -13022791.735 8 -10134414.13545  23428471.866    23428481.0604
  22989437.059    13836545.568 8  10808374.60546  22989436.294    22989447.1244
  22415458.204     8487950.484 8   6654827.83946  22415458.011    22415464.8874
  20893630.295   -24808758.262 9 -19309742.11948  20893630.111    20893636.1234
 00  8 22 21  5 30.0000000  0  7 11 30 21 20 15 29 25
  20881900.591   -21197662.775 9 -16498935.17947  20881900.151    20881906.1904
  24589590.746    -5454874.922 7  -4060847.53245  24589590.871    24589599.0124
  22572012.707     8395844.155 8   6606691.74946  22572012.181    22572020.9924
  23411516.630   -13111894.837 8 -10203845.00045  23411516.005    23411525.1824
  23010935.672    13949520.963 8  10896407.14346  23010934.911    23010945.8384
  22429373.548     8561076.024 8   6711808.75446  22429373.368    22429380.2354
  20886653.550   -24845421.103 9 -19338310.52048  20886653.351    20886659.3414
 00  8 22 21  6  0.0000000  0  7 11 30 21 20 15 29 25
  20881331.374   -21200654.078 9 -16501266.06647  20881330.945    20881337.0024
  24583968.168    -5484421.490 7  -4083870.76645  24583968.153    24583976.4404
  22585285.438     8465592.523 8   6661041.05246  22585284.952    22585293.7274
  23394569.883   -13200950.484 8 -10273238.89445  23394569.188    23394578.3874
  23032467.203    14062669.037 8  10984574.24845  23032466.525    23032477.3454
  22443305.656     8634289.383 8   6768858.09446  22443305.483    22443312.3294
  20879773.394   -24881576.498 9 -19366483.50948  20879773.194    20879779.1784
 00  8 22 21  6 30.0000000  0  7 11 30 21 20 15 29 25
  20880873.628   -21203059.452 9 -16503140.38647  20880873.202    20880879.2794
  24578431.532    -5513516.557 7  -4106542.15745  24578431.496    24578439.8134
  22598610.875     8535617.509 8   6715605.89446  22598610.328    22598619.1354
  23377632.218   -13289957.556 8 -10342594.92245  23377631.632    23377640.8014
  23054030.999    14175986.909 8  11072873.65145  23054030.337    23054041.2504
  22457254.221     8707589.337 8   6825974.91846  22457254.046    22457260.8434
  20872990.004   -24917223.369 9 -19394260.25148  20872989.820    20872995.7794
 00  8 22 21  7  0.0000000  0  7 11 30 21 20 15 29 25
  20880527.433   -21204878.813 9 -16504558.06947  20880526.992    20880533.0784
  24572981.211    -5542158.047 7  -4128860.13845  24572981.289    24572989.6254
  22611988.723     8605918.274 8   6770385.62646  22611988.156    22611997.0284
  23360704.153   -13378914.755 8 -10411912.10045  23360703.581    23360712.7084
  23075626.656    14289471.705 8  11161303.12845  23075625.936    23075636.8604
  22471219.068     8780974.933 8   6883158.46946  22471218.829    22471225.6974
  20866303.518   -24952360.872 9 -19421640.07848  20866303.329    20866309.2854
 00  8 22 21  7 30.0000000  0  7 11 30 21 20 15 29 25
  20880292.754   -21206111.924 9 -16505518.93047  20880292.324    20880298.4024
  24567617.551    -5570343.963 7  -4150823.14745  24567617.752    24567625.9394
  22625419.030     8676494.721 8   6825380.16346  22625418.389    22625427.3544
  23343785.768   -13467820.795 8 -10481189.40045  23343785.194    23343794.2674
  23097253.633    14403121.219 8  11249860.94545  23097252.914    23097263.9674
  22485199.994     8854445.356 8   6940408.12846  22485199.830    22485206.6264
  20859714.165   -24986987.946 9 -19448622.16848  20859713.981    20859719.9154
 00  8 22 21  8  0.0000000  0  7 11 30 21 20 15 29 25
  20880169.752   -21206758.437 9 -16506022.71147  20880169.310    20880175.4054
  24562340.896    -5598072.479 7  -4172429.70245  24562341.085    24562349.2064
  22638901.756     8747346.801 8   6880589.47046  22638901.165    22638910.1234
  23326877.394   -13556674.468 8 -10550425.92145  23326876.850    23326885.8144
  23118911.503    14516932.924 8  11338545.16345  23118910.761    23118921.8184
  22499196.888     8927999.504 8   6997723.01646  22499196.760    22499203.5534
  20853222.110   -25021103.839 9 -19475205.93848  20853221.915    20853227.8364
 00  8 22 21  8 30.0000000  0  7 11 30 21 20 15 29 25
  20880158.316   -21206818.412 9 -16506069.45047  20880157.877    20880163.9714
  24557151.737    -5625341.805 8  -4193678.47545  24557151.937    24557160.0144
  22652437.042     8818474.495 8   6936013.55346  22652436.434    22652445.3954
  23309979.313   -13645474.172 8 -10619620.36745  23309978.698    23309987.6414
  23140599.687    14630903.899 8  11427353.48745  23140598.906    23140609.9744
  22513209.554     9001636.307 8   7055102.32046  22513209.409    22513216.1934
  20846827.462   -25054707.859 9 -19501390.84448  20846827.262    20846833.1824
 00  8 22 21  9  0.0000000  0  7 11 30 21 20 15 29 25
  20880258.473   -21206292.122 9 -16505659.35847  20880258.038    20880264.1214
  24552050.232    -5652150.306 7  -4214568.14845  24552050.419    24552058.4644
  22666024.544     8889876.913 8   6991651.70046  22666023.918    22666032.9304
  23293091.574   -13734219.308 8 -10688772.29545  23293091.009    23293099.8384
  23162317.565    14745031.250 8  11516283.64645  23162316.821    23162327.9314
  22527237.732     9075354.617 8   7112545.13346  22527237.528    22527244.3544
  20840530.325   -25087799.324 9 -19527176.35448  20840530.121    20840536.0354
 00  8 22 21  9 30.0000000  0  7 11 30 21 20 15 29 25
  20880470.271   -21205179.085 9 -16504792.06047  20880469.822    20880475.9114
  24547036.718    -5678496.026 7  -4235097.23545  24547036.820    24547044.8604
  22679664.217     8961553.854 8   7047503.76046  22679663.666    22679672.7274
  23276214.513   -13822908.123 8 -10757880.33545  23276213.903    23276222.7084
  23184064.822    14859312.555 8  11605333.76245  23184064.026    23184075.2214
  22541281.227     9149153.604 8   7170050.81146  22541281.036    22541287.9084
  20834330.938   -25120377.041 9 -19552561.54348  20834330.743    20834336.6514
 00  8 22 21 10  0.0000000  0  7 11 30 21 20 15 29 25
  20880793.688   -21203479.437 9 -16503467.66447  20880793.258    20880799.3434
  24542111.713    -5704376.955 7  -4255264.14145  24542111.810    24542119.8794
  22693356.171     9033505.260 8   7103569.68346  22693355.586    22693364.7244
  23259348.543   -13911539.305 8 -10826943.46745  23259347.929    23259356.6574
  23205840.796    14973745.178 8  11694501.80145  23205839.911    23205851.1934
  22555339.914     9223032.389 8   7227618.66746  22555339.723    22555346.6074
  20828229.494   -25152440.183 9 -19577545.76448  20828229.297    20828235.1954
 00  8 22 21 10 30.0000000  0  7 11 30 21 20 15 29 25
  20881228.757   -21201193.153 9 -16501686.14847  20881228.326    20881234.4194
  24537275.486    -5729791.498 7  -4275067.63145  24537275.597    24537283.5624
  22707100.284     9105730.992 8   7159849.37346  22707099.692    22707108.9324
  23242493.715   -14000111.553 8 -10895960.67946  23242493.117    23242501.8404
  23227645.067    15088326.328 8  11783785.55745  23227644.226    23227655.4944
  22569413.616     9296990.142 8   7285248.06546  22569413.440    22569420.3034
  20822226.064   -25183988.286 9 -19602128.66048  20822225.873    20822231.7404
 00  8 22 21 11  0.0000000  0  7 11 30 21 20 15 29 25
  20881775.467   -21198320.172 9 -16499447.47347  20881775.048    20881781.1214
  24532528.213    -5754737.848 7  -4294506.27545  24532528.484    24532536.3614
  22720896.622     9178230.635 8   7216342.49546  22720896.031    22720905.2184
  23225650.358   -14088623.704 8 -10964931.06546  23225649.698    23225658.3984
  23249477.015    15203053.352 8  11873182.97045  23249476.202    23249487.6464
  22583502.188     9371025.791 8   7342938.15446  22583502.037    22583508.8854
  20816320.814   -25215020.372 9 -19626309.46348  20816320.611    20816326.4604
 00  8 22 21 11 30.0000000  0  7 11 30 21 20 15 29 25
  20882433.803   -21194860.676 9 -16496751.77047  20882433.382    20882439.4404
  24527870.431    -5779214.213 7  -4313578.69145  24527870.649    24527878.6764
  22734744.931     9251003.465 8   7273048.49146  22734744.364    22734753.5284
  23208818.731   -14177074.248 8 -11033853.44146  23208818.030    23208826.7284
  23271336.259    15317923.669 7  11962692.02745  23271335.470    23271347.0324
  22597605.325     9445138.318 8   7400688.15146  22597605.184    22597612.0234
  20810513.828   -25245536.269 9 -19650088.04248  20810513.621    20810519.4474
 00  8 22 21 12  0.0000000  0  7 11 30 21 20 15 29 25
  20883203.713   -21190814.854 9 -16493599.19047  20883203.269    20883209.3234
  24523302.489    -5803218.798 7  -4332283.53245  24523302.751    24523310.7624
  22748645.201     9324049.527 8   7329967.39346  22748644.651    22748653.8464
  23191999.036   -14265462.078 8 -11102726.95946  23191998.314    23192006.9514
  23293222.241    15432934.418 8  12052310.51845  23293221.398    23293233.0964
  22611722.962     9519326.771 8   7458497.30246  22611722.840    22611729.6334
  20804805.192   -25275535.056 9 -19673463.68048  20804805.003    20804810.8194
 00  8 22 21 12 30.0000000  0  7 11 30 21 20 15 29 25
  20884085.147   -21186182.861 9 -16489989.85547  20884084.709    20884090.7764
  24518824.610    -5826749.992 7  -4350619.48745  24518824.801    24518832.9874
  22762597.376     9397368.231 8   7387098.73846  22762596.812    22762606.0414
  23175191.464   -14353785.780 8 -11171550.49946  23175190.779    23175199.3714
  23315134.546    15548083.063 8  12142036.44245  23315133.659    23315145.4904
  22625854.808     9593590.091 8   7516364.80146  22625854.697    22625861.5194
  20799195.181   -25305015.793 9 -19696435.63948  20799194.977    20799200.7844
 00  8 22 21 13  0.0000000  0  7 11 30 21 20 15 29 25
  20885078.201   -21180964.477 9 -16485923.58947  20885077.742    20885083.8084
  24514437.064    -5849806.395 7  -4368585.48545  24514437.248    24514445.3494
  22776601.414     9470959.684 8   7444442.61246  22776600.867    22776610.1634
  23158396.388   -14442043.901 8 -11240322.95646  23158395.727    23158404.2654
  23337072.518    15663367.068 8  12231867.84545  23337071.611    23337083.6344
  22640000.819     9667927.646 8   7574290.14546  22640000.704    22640007.5104
  20793683.872   -25333977.646 9 -19719003.28048  20793683.672    20793689.4674
 00  8 22 21 13 30.0000000  0  7 11 30 21 20 15 29 25
  20886182.728   -21175160.141 9 -16481400.74047  20886182.277    20886188.3314
  24510140.204    -5872386.308 7  -4386180.17345  24510140.293    24510148.5284
  22790657.282     9544823.305 8   7501998.57746  22790656.726    22790665.9834
  23141614.124   -14530235.286 8 -11309043.40946  23141613.395    23141621.9484
  23359035.779    15778783.672 8  12321802.59645  23359034.896    23359046.9504
  22654160.739     9742338.523 8   7632272.61746  22654160.601    22654167.4614
  20788271.358   -25362420.470 9 -19741166.48148  20788271.149    20788276.9314
 00  8 22 21 14  0.0000000  0  7 11 30 21 20 15 29 25
  20887398.698   -21168770.124 9 -16476421.51547  20887398.275    20887404.3204
  24505934.403    -5894487.868 7  -4403402.12945  24505934.514    24505942.8094
  22804764.865     9618958.529 8   7559766.17446  22804764.310    22804773.6104
  23124844.708   -14618358.488 8 -11377710.74146  23124844.033    23124852.4914
  23381023.761    15894330.277 8  12411838.62745  23381022.894    23381035.0164
  22668334.379     9816821.519 8   7690311.28246  22668334.239    22668341.1494
  20782957.730   -25390343.527 9 -19762924.66848  20782957.538    20782963.3214
 00  8 22 21 14 30.0000000  0  7 11 30 21 20 15 29 25
  20888726.087   -21161794.652 9 -16470986.09947  20888725.656    20888731.7104
  24501819.922    -5916109.650 7  -4420250.25445  24501820.003    24501828.3684
  22818924.158     9693365.325 8   7617745.39346  22818923.597    22818932.9024
  23108088.629   -14706412.184 8 -11446323.91146  23108087.904    23108096.2624
  23403036.021    16010004.140 8  12501973.82745  23403035.195    23403047.3114
  22682521.630     9891375.736 8   7748405.46346  22682521.497    22682528.4284
  20777743.101   -25417746.530 9 -19784277.62448  20777742.898    20777748.6894
 00  8 22 21 15  0.0000000  0  7 11 30 21 20 15 29 25
  20890164.825   -21154233.983 9 -16465094.68447  20890164.400    20890170.4624
  24497797.082    -5937250.044 7  -4436723.27345  24497797.168    24497805.3494
  22833134.969     9768042.892 8   7675935.59346  22833134.360    22833143.7234
  23091345.957   -14794395.126 8 -11514881.94646  23091345.225    23091353.6644
  23425071.948    16125802.422 8  12592205.98145  23425071.140    23425083.2504
  22696722.193     9966000.134 8   7806554.31046  22696722.086    22696728.9814
  20772627.498   -25444628.942 9 -19805224.92348  20772627.299    20772633.0804
 00  8 22 21 15 30.0000000  0  7 11 30 21 20 15 29 25
  20891714.897   -21146088.461 9 -16458747.53947  20891714.447    20891720.5014
  24493866.051    -5957907.546 7  -4452820.00845  24493866.069    24493874.3024
  22847397.108     9842990.589 8   7734336.28246  22847396.496    22847405.8924
  23074617.015   -14882305.879 8 -11583383.73646  23074616.325    23074624.6334
  23447130.980    16241722.240 8  12682532.84745  23447130.179    23447142.3044
  22710935.891    10040693.866 8   7864757.20646  22710935.857    22710942.7364
  20767611.148   -25470989.996 9 -19825765.97048  20767610.942    20767616.7134
 00  8 22 21 16  0.0000000  0  7 11 30 21 20 15 29 25
  20893376.262   -21137357.986 9 -16451944.58247  20893375.817    20893381.8694
  24490027.179    -5978080.303 7  -4468539.03245  24490027.227    24490035.4544
  22861710.659     9918208.569 8   7792947.58246  22861710.047    22861719.4994
  23057902.125   -14970142.784 8 -11651827.99246  23057901.427    23057909.7354
  23469212.725    16357761.563 8  12772952.82345  23469211.952    23469224.1204
  22725162.796    10115456.430 8   7923013.73046  22725162.727    22725169.6114
  20762694.087   -25496829.088 9 -19845900.29248  20762693.886    20762699.6344
 00  8 22 21 16 30.0000000  0  8 11 30 01 21 20 15 29 25
  20895147.551   -21128049.883 9 -16444691.53447  20895147.101    20895153.1704
  24486279.680    -5997773.356 7  -4483884.25745  24486279.622    24486287.7904
  24676678.877    -5023733.275 7  -3654725.02145  24676678.741    24676692.4114
  22876074.302     9993689.772 8   7851763.99246  22876073.694    22876083.1814
  23041200.279   -15057911.219 8 -11720218.89946  23041199.630    23041207.9704
  23491315.404    16473910.607 8  12863458.30545  23491314.641    23491326.7814
  22739401.266    10190279.951 8   7981317.74746  22739401.160    22739408.0854
  20757875.144   -25522152.678 9 -19865632.92948  20757874.962    20757880.7124
 00  8 22 21 17  0.0000000  0  8 11 30 01 21 20 15 29 25
  20897029.895   -21118158.028 9 -16436983.61347  20897029.477    20897035.5554
  24482625.087    -6016978.950 7  -4498849.65345  24482625.141    24482633.2014
  24660796.055    -5107198.232 7  -3719762.51245  24660795.757    24660809.3734
  22890489.185    10069440.052 8   7910790.06546  22890488.644    22890498.1204
  23024512.894   -15145603.546 8 -11788550.48946  23024512.252    23024520.5504
  23513439.617    16590173.266 8  12954052.31045  23513438.904    23513451.0094
  22753652.374    10265170.125 8   8039673.70846  22753652.255    22753659.2274
  20753155.650   -25546953.527 9 -19884958.22948  20753155.470    20753161.2124
 00  8 22 21 17 30.0000000  0  8 11 30 01 21 20 15 29 25
  20899023.927   -21107679.426 9 -16428818.48847  20899023.507    20899029.6054
  24479064.077    -6035692.552 7  -4513431.66345  24479064.176    24479072.1864
  24644937.000    -5190537.012 7  -3784701.62345  24644936.795    24644950.5494
  22904955.852    10145462.341 8   7970028.08546  22904955.299    22904964.7414
  23007840.960   -15233214.921 8 -11856818.99046  23007840.264    23007848.6004
  23535585.649    16706550.276 8  13044735.40145  23535584.973    23535597.1694
  22767916.672    10340129.408 8   8098083.52046  22767916.559    22767923.4954
  20748536.429   -25571227.657 9 -19903873.10448  20748536.247    20748541.9814
 00  8 22 21 18  0.0000000  0  8 11 30 01 21 20 15 29 25
  20901129.330   -21096615.592 9 -16420197.34047  20901128.900    20901135.0174
  24475596.644    -6053913.643 7  -4527629.88645  24475596.717    24475604.7354
  24629101.736    -5273750.356 7  -3849543.02545  24629101.508    24629115.2574
  22919473.870    10221754.751 8   8029476.60046  22919473.338    22919482.8304
  22991184.497   -15320744.875 8 -11925024.05746  22991183.805    22991192.1564
  23557752.667    16823037.905 8  13135504.71145  23557751.947    23557764.2104
  22782193.752    10415155.817 8   8156545.64146  22782193.625    22782200.5894
  20744017.206   -25594976.159 9 -19922378.39948  20744017.006    20744022.7624
 00  8 22 21 18 30.0000000  0  8 11 30 01 21 20 15 29 25
  20903345.776   -21084967.995 9 -16411121.30747  20903345.345    20903351.4784
  24472223.093    -6071641.679 7  -4541443.93345  24472223.133    24472231.1704
  24613290.474    -5356839.277 7  -3914287.46945  24613290.155    24613303.9254
  22934043.138    10298316.108 8   8089134.67046  22934042.583    22934052.1244
  22974543.515   -15408193.211 8 -11993165.53946  22974542.845    22974551.1624
  23579940.049    16939632.422 7  13226357.29645  23579939.278    23579951.5634
  22796483.268    10490247.363 8   8215058.50846  22796483.063    22796490.0374
  20739597.897   -25618199.623 9 -19940474.57548  20739597.705    20739603.4544
 00  8 22 21 19  0.0000000  0  8 11 30 01 21 20 15 29 25
  20905673.160   -21072737.585 9 -16401591.13947  20905672.744    20905678.9004
  24468943.554    -6088875.860 8  -4554873.16945  24468943.653    24468951.4414
  24597502.709    -5439803.880 8  -3978935.03945  24597502.344    24597515.9744
  22948663.348    10375145.376 8   8149001.51645  22948662.791    22948672.3764
  22957918.259   -15495558.825 8 -12061242.54546  22957917.615    22957925.9324
  23602147.106    17056330.516 7  13317290.57845  23602146.324    23602158.9164
  22810784.886    10565402.745 8   8273621.12846  22810784.642    22810791.6694
  20735278.435   -25640898.317 9 -19958161.84048  20735278.246    20735283.9944
 00  8 22 21 19 30.0000000  0  8 11 30 01 21 20 15 29 25
  20908111.347   -21059924.935 9 -16391607.27847  20908110.926    20908117.0864
  24465758.250    -6105614.889 7  -4567916.54745  24465758.318    24465766.1874
  24581738.705    -5522643.826 7  -4043485.47945  24581738.178    24581751.8644
  22963334.376    10452241.961 8   8209076.65645  22963333.844    22963343.4434
  22941308.985   -15582840.430 8 -12129254.09546  22941308.323    22941316.6954
  23624373.382    17173129.508 7  13408302.49145  23624372.577    23624385.2254
  22825098.415    10640620.994 8   8332232.72346  22825098.193    22825105.2884
  20731059.011   -25663071.427 9 -19975439.55848  20731058.827    20731064.5724
 00  8 22 21 20  0.0000000  0  8 11 30 01 21 20 15 29 25
  20910660.255   -21046530.382 9 -16381169.98747  20910659.841    20910666.0194
  24462667.386    -6121857.070 7  -4580572.75145  24462667.458    24462675.4614
  24565998.553    -5605358.651 7  -4107938.45445  24565997.965    24566011.5204
  22978056.308    10529605.691 8   8269359.95145  22978055.823    22978065.4184
  22924716.035   -15670036.512 8 -12197198.99546  22924715.420    22924723.7884
  23646618.415    17290026.683 7  13499390.87545  23646617.588    23646630.3254
  22839423.823    10715901.509 8   8390892.85246  22839423.646    22839430.7814
  20726939.619   -25684718.860 9 -19992307.65948  20726939.419    20726945.1774
 00  8 22 21 20 30.0000000  0  8 11 30 01 21 20 15 29 25
  20913319.650   -21032555.181 9 -16370280.24747  20913319.230    20913325.4104
  24459671.133    -6137601.878 7  -4592841.38245  24459671.212    24459679.2904
  24550281.959    -5687948.900 7  -4172294.30545  24550281.263    24550295.0224
  22992828.858    10607235.394 8   8329850.50045  22992828.317    22992837.9584
  22908139.559   -15757146.197 8 -12265076.58046  22908138.955    22908147.2654
  23668881.520    17407018.677 7  13590553.16845  23668880.644    23668893.4294
  22853760.777    10791242.624 8   8449600.18246  22853760.581    22853767.7074
  20722920.152   -25705841.188 9 -20008766.59148  20722919.961    20722925.7274
 00  8 22 21 21  0.0000000  0  8 11 30 01 21 20 15 29 25
  20916089.498   -21017999.609 9 -16358938.27247  20916089.093    20916095.2724
  24456770.149    -6152847.582 8  -4604721.16745  24456770.190    24456778.0484
  24534589.303    -5770413.681 7  -4236552.45245  24534588.848    24534602.1914
  23007652.015    10685130.975 8   8390548.23445  23007651.484    23007661.0384
  22891579.874   -15844167.795 8 -12332885.53246  22891579.250    22891587.4814
  23691162.185    17524103.271 7  13681787.59845  23691161.259    23691174.0394
  22868109.179    10866643.869 8   8508354.38446  22868109.008    22868116.0724
  20719000.791   -25726437.464 9 -20024815.62048  20719000.594    20719006.3434
 00  8 22 21 21 30.0000000  0  8 11 30 01 21 20 15 29 25
  20918969.723   -21002864.109 9 -16347144.39847  20918969.319    20918975.4944
  24453964.217    -6167593.131 8  -4616211.18045  24453964.382    24453971.9564
  24518920.623    -5852752.911 7  -4300712.72545  24518920.295    24518933.5234
  23022525.496    10763291.193 8   8451452.16645  23022524.868    23022534.5674
  22875037.138   -15931100.106 8 -12400624.89846  22875036.542    22875044.7314
  23713460.002    17641277.584 7  13773091.93645  23713459.133    23713471.9994
  22882468.831    10942104.126 8   8567154.56746  22882468.636    22882475.6524
  20715181.521   -25746507.784 9 -20040454.80448  20715181.318    20715187.0564
 00  8 22 21 22  0.0000000  0  8 11 30 01 21 20 15 29 25
  20921960.130   -20987149.459 9 -16334899.24447  20921959.689    20921965.8934
  24451253.610    -6181836.936 8  -4627310.21445  24451253.819    24451261.4154
  24503275.749    -5934966.177 7  -4364774.85445  24503275.375    24503288.3994
  23037449.315    10841715.826 8   8512562.14645  23037448.656    23037458.4304
  22858511.773   -16017941.219 8 -12468293.20646  22858511.152    22858519.2934
  23735774.426    17758539.271 7  13864464.34645  23735773.416    23735786.4594
  22896839.606    11017623.126 8   8626000.52146  22896839.418    22896846.3724
  20711462.459   -25766051.648 9 -20055683.77148  20711462.253    20711467.9584
 00  8 22 21 22 30.0000000  0  8 11 30 01 21 20 15 29 25
  20925060.742   -20970855.834 9 -16322202.94247  20925060.322    20925066.5234
  24448638.849    -6195577.320 8  -4638016.95445  24448639.010    24448646.8804
  24487655.121    -6017052.883 7  -4428738.35345  24487654.750    24487667.7494
  23052423.437    10920404.682 8   8573878.00545  23052422.809    23052432.5554
  22842004.123   -16104689.373 8 -12535889.07146  22842003.430    22842011.5784
  23758104.992    17875885.819 8  13955902.90445  23758104.126    23758117.1344
  22911221.483    11093200.131 8   8684891.67046  22911221.261    22911228.2304
  20707843.687   -25785068.378 9 -20070501.97748  20707843.488    20707849.1804
 00  8 22 21 23  0.0000000  0  8 11 30 01 21 20 15 29 25
  20928271.285   -20953984.403 9 -16309056.39347  20928270.859    20928277.0534
  24446120.093    -6208813.699 8  -4648330.99545  24446120.134    24446128.0764
  24472058.466    -6099013.134 7  -4492603.33545  24472058.057    24472071.0614
  23067447.647    10999357.053 8   8635399.20845  23067447.049    23067456.7954
  22825514.338   -16191343.660 8 -12603411.78546  22825513.576    22825521.6794
  23780451.138    17993314.366 8  14047405.31445  23780450.286    23780463.3804
  22925614.095    11168833.807 8   8743826.97346  22925613.907    22925620.8784
  20704325.112   -25803558.430 9 -20084909.78748  20704324.934    20704330.5974
 00  8 22 21 23 30.0000000  0  8 11 30 01 21 20 15 29 25
  20931591.715   -20936535.679 9 -16295460.01147  20931591.281    20931597.4734
  24443697.397    -6221544.748 8  -4658251.25245  24443697.520    24443705.4484
  24456485.907    -6180846.592 7  -4556369.46745  24456485.548    24456498.5634
  23082521.996    11078572.789 8   8697125.63145  23082521.443    23082531.2384
  22809042.646   -16277902.408 8 -12670860.07346  22809041.939    22809049.9774
  23802812.385    18110822.005 8  14138969.36845  23802811.576    23802824.6684
  22940017.413    11244523.617 8   8802806.02646  22940017.266    22940024.1934
  20700906.917   -25821521.218 9 -20098906.74048  20700906.720    20700912.3894
 00  8 22 21 24  0.0000000  0  8 11 30 01 21 20 15 29 25
  20935021.838   -20918510.413 9 -16281414.37547  20935021.396    20935027.5774
  24441371.171    -6233769.141 8  -4667776.74245  24441371.311    24441379.1814
  24440937.742    -6262552.723 7  -4620036.43145  24440937.302    24440950.1584
  23097646.338    11158051.183 8   8759056.72045  23097645.732    23097655.5474
  22792589.511   -16364363.851 8 -12738232.52146  22792588.770    22792596.8404
  23825188.273    18228406.453 8  14230593.28245  23825187.425    23825200.6144
  22954431.331    11320268.875 8   8861828.28946  22954431.128    22954438.0484
  20697589.050   -25838956.635 9 -20112492.75348  20697588.847    20697594.5034
 00  8 22 21 24 30.0000000  0  8 11 30 01 21 20 15 29 25
  20938561.476   -20899909.706 9 -16266920.33847  20938561.046    20938567.2224
  24439141.503    -6245486.076 7  -4676906.79845  24439141.604    24439149.5064
  24425413.692    -6344131.584 7  -4683604.15745  24425413.238    24425426.1804
  23112820.428    11237791.100 8   8821191.57845  23112819.808    23112829.7174
  22776155.056   -16450726.816 8 -12805528.24646  22776154.346    22776162.3524
  23847578.139    18346064.775 8  14322274.73245  23847577.316    23847590.6034
  22968855.520    11396068.441 8   8920892.86146  22968855.332    22968862.2404
  20694371.519   -25855864.766 9 -20125667.89448  20694371.325    20694376.9684
 00  8 22 21 25  0.0000000  0  8 11 30 01 21 20 15 29 25
  20942210.574   -20880733.681 9 -16251978.00947  20942210.130    20942216.3114
  24437008.691    -6256693.787 8  -4685640.06345  24437008.851    24437016.8014
  24409913.909    -6425582.526 7  -4747072.23245  24409913.459    24409926.4144
  23128044.348    11317792.738 8   8883530.38845  23128043.719    23128053.5484
  22759739.718   -16536989.558 8 -12872745.87046  22759739.011    22759747.0454
  23869981.631    18463794.467 7  14414011.81245  23869980.735    23869994.1954
  22983289.946    11471921.961 8   8979999.47146  22983289.780    22983296.6624
  20691254.440   -25872245.023 9 -20138431.70848  20691254.243    20691259.8914
 00  8 22 21 25 30.0000000  0  8 11 30 01 21 20 15 29 25
  20945969.063   -20860982.932 9 -16236587.83847  20945968.608    20945974.7844
  24434972.963    -6267391.242 8  -4693975.72145  24434973.250    24434981.0364
  24394438.528    -6506905.310 7  -4810440.42345  24394438.043    24394451.1144
  23143317.901    11398055.116 8   8946072.37645  23143317.344    23143327.0724
  22743343.776   -16623150.363 8 -12939884.06746  22743343.071    22743351.0864
  23892398.211    18581593.306 7  14505802.75645  23892397.297    23892410.8854
  22997734.533    11547828.661 8   9039147.51346  22997734.390    22997741.2854
  20688237.817   -25888097.477 9 -20150784.24248  20688237.621    20688243.2624
 00  8 22 21 26  0.0000000  0  8 11 30 01 21 20 15 29 25
  20949836.663   -20840658.687 9 -16220750.79247  20949836.210    20949842.3694
  24433034.599    -6277577.384 8  -4701912.93545  24433034.772    24433042.6464
  24378987.608    -6588099.918 7  -4873708.77945  24378986.999    24379000.0494
  23158640.958    11478577.861 8   9008817.23945  23158640.457    23158650.1354
  22726967.462   -16709207.919 8 -13006941.79446  22726966.778    22726974.8104
  23914827.439    18699458.323 7  14597645.25245  23914826.630    23914840.2644
  23012189.132    11623787.774 8   9098336.40146  23012188.953    23012195.8864
  20685321.649   -25903422.001 9 -20162725.40748  20685321.450    20685327.0764
 00  8 22 21 26 30.0000000  0  8 11 30 01 21 20 15 29 25
  20953813.214   -20819761.973 9 -16204467.66347  20953812.767    20953818.9324
  24431193.709    -6287251.346 8  -4709451.08245  24431193.887    24431201.7374
  24363560.925    -6669166.143 7  -4936877.01245  24363560.398    24363573.5424
  23174013.402    11559360.008 8   9071764.22645  23174012.835    23174022.5574
  22710611.117   -16795160.799 8 -13073917.97046  22710610.382    22710618.4464
  23937268.702    18817386.492 7  14689536.98245  23937267.834    23937281.5944
  23026653.525    11699798.186 8   9157565.26146  23026653.320    23026660.2244
  20682505.929   -25918218.580 9 -20174255.18348  20682505.729    20682511.3334
 00  8 22 21 27  0.0000000  0  8 11 30 01 21 20 15 29 25
  20957898.662   -20798292.995 9 -16187738.61447  20957898.199    20957904.3644
  24429450.691    -6296411.378 8  -4716588.77145  24429450.744    24429458.5314
  24348158.981    -6750103.144 7  -4999944.62645  24348158.501    24348171.4734
  23189435.077    11640401.008 8   9134912.93545  23189434.478    23189444.3534
  22694275.101   -16881006.850 8 -13140810.89846  22694274.362    22694282.4064
  23959721.551    18935375.802 7  14781476.33845  23959720.680    23959734.4354
  23041127.537    11775859.774 8   9216834.00246  23041127.350    23041134.3124
  20679790.770   -25932486.823 9 -20185373.27048  20679790.569    20679796.1544
 00  8 22 21 27 30.0000000  0  8 11 30 01 21 20 15 29 25
  20962092.693   -20776253.141 9 -16170564.72647  20962092.235    20962098.4064
  24427805.485    -6305056.893 8  -4723325.50245  24427805.602    24427813.3144
  24332781.637    -6830911.161 7  -5062911.70545  24332781.206    24332794.0774
  23204905.969    11721700.417 8   9198262.98145  23204905.368    23204915.2394
  22677959.673   -16966744.918 8 -13207619.69346  22677958.916    22677966.9284
  23982185.578    19053423.294 7  14873461.02645  23982184.619    23982198.4914
  23055611.151    11851971.534 8   9276141.82946  23055610.982    23055617.9394
  20677176.014   -25946227.426 9 -20196080.20948  20677175.819    20677181.3924
 00  8 22 21 28  0.0000000  0  8 11 30 01 21 20 15 29 25
  20966395.261   -20753643.042 9 -16152946.48747  20966394.787    20966401.0144
  24426258.386    -6313186.776 8  -4729660.47945  24426258.633    24426266.0754
  24317428.843    -6911589.571 7  -5125777.79545  24317428.534    24317441.2604
  23220425.873    11803257.655 8   9261813.93245  23220425.244    23220435.2744
  22661665.043   -17052373.441 8 -13274343.11146  22661664.336    22661672.2894
  24004660.019    19171526.219 7  14965488.89845  24004659.031    24004672.9784
  23070104.137    11928132.635 8   9335488.10946  23070104.030    23070110.8934
  20674661.713   -25959439.927 9 -20206375.64448  20674661.510    20674667.0904
 00  8 22 21 28 30.0000000  0  8 11 30 01 21 20 15 29 25
  20970806.148   -20730463.652 9 -16134884.64647  20970805.703    20970811.9364
  24424809.667    -6320800.077 8  -4735592.92345  24424809.866    24424817.3544
  24302100.758    -6992138.230 7  -5188542.77145  24302100.387    24302113.2334
  23235994.741    11885072.034 8   9325565.26345  23235994.096    23236004.2044
  22645391.601   -17137890.857 8 -13340979.96246  22645390.852    22645398.7564
  24027144.557    19289681.990 7  15057558.00745  24027143.693    24027157.3934
  23084606.369    12004342.408 8   9394872.31045  23084606.190    23084613.1144
  20672247.915   -25972124.458 9 -20216259.67248  20672247.721    20672253.2904
 00  8 22 21 29  0.0000000  0  8 11 30 01 21 20 15 29 25
  20975325.185   -20706715.928 9 -16116379.94647  20975324.735    20975330.9874
  24423459.353    -6327895.850 8  -4741122.07645  24423459.531    24423467.1014
  24286797.531    -7072557.000 8  -5251206.55645  24286797.111    24286809.9244
  23251612.349    11967142.933 8   9389516.45445  23251611.694    23251621.8504
  22629139.642   -17223295.052 8 -13407528.58946  22629138.934    22629146.7714
  24049638.734    19407888.063 7  15149666.24945  24049637.862    24049651.5974
  23099117.691    12080600.166 8   9454293.90945  23099117.513    23099124.6134
  20669934.584   -25984280.907 9 -20225732.20548  20669934.382    20669939.9624
 00  8 22 21 29 30.0000000  0  8 11 30 01 21 20 15 29 25
  20979952.177   -20682400.951 9 -16097433.23447  20979951.732    20979957.9674
  24422207.820    -6334472.877 7  -4746247.01645  24422207.918    24422215.5084
  24271519.045    -7152845.357 8  -5313768.72445  24271518.567    24271531.3784
  23267278.690    12049469.580 8   9453666.95245  23267278.118    23267288.2734
  22612909.497   -17308584.567 8 -13473987.85446  22612908.829    22612916.6314
  24072141.942    19526142.068 7  15241811.83845  24072141.044    24072154.8884
  23113638.078    12156905.297 8   9513752.40945  23113637.921    23113645.0134
  20667721.750   -25995909.273 9 -20234793.24948  20667721.554    20667727.1224
 00  8 22 21 30  0.0000000  0  8 11 30 01 21 20 15 29 25
  20984686.970   -20657519.622 9 -16078045.21347  20984686.524    20984692.7634
  24421055.035    -6340530.530 7  -4750967.25345  24421055.126    24421062.7274
  24256265.288    -7233003.612 8  -5376229.47645  24256264.728    24256277.6804
  23282993.521    12132051.019 8   9518015.96845  23282992.969    23283003.1844
  22596701.388   -17393758.356 8 -13540356.94646  22596700.710    22596708.4784
  24094653.821    19644440.762 7  15333992.30945  24094652.779    24094666.7244
  23128167.341    12233256.897 8   9573247.12645  23128167.123    23128174.2934
  20665609.320   -26007010.078 9 -20243443.20348  20665609.127    20665614.6854
 00  8 22 21 30 30.0000000  0  8 11 30 01 21 20 15 29 25
  20989529.301   -20632073.080 9 -16058216.76147  20989528.862    20989535.0894
  24420001.293    -6346067.706 7  -4755281.91245  24420001.325    24420008.9554
  24241036.441    -7313031.304 8  -5438588.56145  24241035.871    24241048.7064
  23298756.743    12214886.741 8   9582563.13545  23298756.187    23298766.4564
  22580515.730   -17478814.396 8 -13606634.28246  22580515.055    22580522.7914
  24117173.594    19762781.998 7  15426205.84245  24117172.619    24117186.7584
  23142705.285    12309654.333 8   9632777.57045  23142705.108    23142712.1854
  20663597.423   -26017582.633 9 -20251681.53148  20663597.229    20663602.7734
 00  8 22 21 31  0.0000000  0  8 11 30 01 21 20 15 29 25
  20994479.069   -20606061.863 9 -16037948.30447  20994478.635    20994484.8794
  24419046.863    -6351083.146 7  -4759190.03145  24419046.905    24419054.4404
  24225832.493    -7392927.697 7  -5500845.29845  24225832.036    24225844.6604
  23314568.379    12297976.891 8   9647308.56845  23314567.751    23314578.1724
  22564352.794   -17563750.699 8 -13672818.31446  22564352.104    22564359.8114
  24139701.102    19881163.383 7  15518450.69245  24139700.192    24139714.4264
  23157251.928    12386097.227 8   9692343.43245  23157251.758    23157258.7244
  20661686.032   -26027627.026 9 -20259508.30648  20661685.833    20661691.3714
 00  8 22 21 31 30.0000000  0  8 11 30 01 21 20 15 29 25
  20999536.077   -20579487.392 9 -16017240.94947  20999535.624    20999541.8624
  24418191.856    -6355576.321 7  -4762691.18145  24418191.787    24418199.3454
  24210653.512    -7472692.863 8  -5562999.78745  24210653.113    24210665.5704
  23330428.246    12381320.452 8   9712251.46345  23330427.630    23330438.0454
  22548212.923   -17648566.090 8 -13738908.13646  22548212.198    22548219.9074
  24162235.723    19999581.914 7  15610724.49845  24162234.982    24162249.1014
  23171807.116    12462584.898 8   9751944.17745  23171806.923    23171813.9574
  20659875.030   -26037143.797 9 -20266923.94948  20659874.826    20659880.3554
 00  8 22 21 32  0.0000000  0  8 11 30 01 21 20 15 29 25
  21004700.028   -20552350.850 9 -15996095.62147  21004699.579    21004705.7964
  24417436.381    -6359546.301 7  -4765784.66045  24417436.391    24417443.9204
  24195499.541    -7552326.649 7  -5625051.90645  24195499.155    24195511.5764
  23346336.185    12464916.664 8   9777391.23945  23346335.598    23346346.0664
  22532096.375   -17733258.674 8 -13804902.26546  22532095.695    22532103.3374
  24184776.856    20118035.199 7  15703025.36345  24184776.127    24184790.4394
  23186370.665    12539116.558 8   9811579.20345  23186370.470    23186377.5524
  20658164.436   -26046132.905 9 -20273928.42648  20658164.241    20658169.7574
 00  8 22 21 32 30.0000000  0  8 11 30 01 21 20 15 29 25
  21009970.781   -20524653.093 9 -15974512.97647  21009970.330    21009976.5344
  24416780.558    -6362992.327 8  -4768469.83245  24416780.664    24416788.2514
  24180370.718    -7631828.754 7  -5687001.42345  24180370.259    24180382.5534
  23362291.952    12548764.273 8   9842726.89145  23362291.412    23362301.8524
  22516003.541   -17817826.825 8 -13870799.42746  22516002.875    22516010.4474
  24207324.153    20236520.499 7  15795351.15745  24207323.388    24207337.9434
  23200942.456    12615691.427 8   9871247.91245  23200942.202    23200949.2374
  20656554.125   -26054594.986 9 -20280522.23148  20656553.925    20656559.4374
 00  8 22 21 33  0.0000000  0  8 11 30 01 21 20 15 29 25
  21015348.059   -20496395.308 9 -15952493.94547  21015347.607    21015353.8174
  24416224.658    -6365913.546 7  -4770746.08345  24416224.699    24416232.3424
  24165266.853    -7711199.031 7  -5748848.23645  24165266.484    24165278.6014
  23378295.575    12632862.856 8   9908258.12845  23378294.963    23378305.3684
  22499934.744   -17902268.812 8 -13936598.28046  22499934.060    22499941.5524
  24229877.080    20355035.304 7  15887699.94645  24229876.405    24229890.9554
  23215522.293    12692308.986 8   9930949.86845  23215522.119    23215529.0394
  20655044.188   -26062529.729 9 -20286705.12448  20655043.991    20655049.4754
 00  8 22 21 33 30.0000000  0  8 11 30 01 21 20 15 29 25
  21020831.683   -20467578.823 9 -15930039.57147  21020831.241    21020837.4414
  24415768.834    -6368309.349 7  -4772612.92045  24415768.814    24415776.5364
  24150188.046    -7790437.439 8  -5810592.22145  24150187.584    24150200.1464
  23394346.821    12717212.015 8   9973984.62045  23394346.121    23394356.5934
  22483890.239   -17986583.140 8 -14002297.67046  22483889.527    22483896.9764
  24252435.105    20473576.907 7  15980069.62745  24252434.328    24252449.0994
  23230110.099    12768968.380 8   9990684.40145  23230109.900    23230116.9304
  20653634.557   -26069937.426 9 -20292477.34048  20653634.346    20653639.8414
 00  8 22 21 34  0.0000000  0  8 11 30 01 21 20 15 29 25
  21026421.429   -20438204.603 9 -15907150.59247  21026420.982    21026427.1854
  24415413.141    -6370178.541 7  -4774069.41645  24415413.091    24415420.7684
  24135134.483    -7869543.437 7  -5872233.11145  24135133.966    24135146.3594
  23410445.483    12801810.690 8  10039905.53345  23410444.886    23410455.2914
  22467870.385   -18070767.835 8 -14067896.04246  22467869.658    22467877.0704
  24274997.800    20592143.081 7  16072458.49745  24274997.009    24275011.9034
  23244705.849    12845669.363 8  10050451.36145  23244705.616    23244712.7564
  20652325.158   -26076818.200 9 -20297838.96048  20652324.943    20652330.4354
 00  8 22 21 34 30.0000000  0  8 11 30 01 21 20 15 29 25
  21032117.203   -20408273.196 9 -15883827.44547  21032116.758    21032122.9554
  24415157.672    -6371520.178 7  -4775114.81545  24415157.728    24415165.4624
  24120106.348    -7948516.311 7  -5933770.22645  24120105.898    24120118.3544
  23426591.529    12886658.666 8  10106020.70445  23426590.979    23426601.4424
  22451875.616   -18154820.833 8 -14133391.79546  22451874.861    22451882.2244
  24297564.730    20710731.375 7  16164864.52245  24297564.056    24297579.0434
  23259309.448    12922411.568 8  10110250.44145  23259309.246    23259316.3634
  20651116.066   -26083172.046 9 -20302789.99048  20651115.850    20651121.3284
 00  8 22 21 35  0.0000000  0  8 11 30 01 21 20 15 29 25
  21037918.551   -20377787.220 9 -15860072.16747  21037918.092    21037924.2714
  24415002.658    -6372334.536 7  -4775749.36045  24415002.736    24415010.5044
  24105103.235    -8027357.054 8  -5995204.39545  24105102.844    24105115.0894
  23442784.807    12971754.236 8  10172328.80445  23442784.238    23442794.7314
  22435905.944   -18238741.646 8 -14198784.54746  22435905.196    22435912.5504
  24320134.998    20829338.183 7  16257284.93545  24320134.281    24320149.6894
  23273920.522    12999193.248 8  10170080.29145  23273920.271    23273927.4114
  20650006.969   -26089000.306 9 -20307331.46748  20650006.768    20650012.2234
 00  8 22 21 35 30.0000000  0  8 11 30 01 21 20 15 29 25
  21043825.316   -20346747.124 9 -15835885.11547  21043824.833    21043831.0244
  24414948.347    -6372620.208 7  -4775971.95345  24414948.504    24414956.1364
  24090125.486    -8106064.672 8  -6056534.81045  24090124.964    24090137.4684
  23459025.116    13057097.274 8  10238829.74545  23459024.595    23459035.0534
  22419961.915   -18322527.582 8 -14264072.20646  22419961.194    22419968.5174
  24342708.659    20947961.651 7  16349718.47745  24342707.953    24342723.0274
  23288539.192    13076014.677 8  10229941.08845  23288538.971    23288546.0824
  20648997.957   -26094302.538 9 -20311463.06048  20648997.756    20649003.2154
 00  8 22 21 36  0.0000000  0  8 11 30 01 21 20 15 29 25
  21049837.223   -20315154.505 9 -15811267.51647  21049836.721    21049842.9414
  24414994.581    -6372377.020 7  -4775782.42945  24414994.711    24415002.4884
  24075173.118    -8184639.410 7  -6117761.71145  24075172.666    24075185.0664
  23475312.306    13142686.473 8  10305522.48845  23475311.780    23475322.3204
  22404043.802   -18406177.284 8 -14329253.71046  22404043.104    22404050.3544
  24365284.996    21066598.796 7  16442162.65145  24365284.125    24365299.5414
  23303165.309    13152874.923 8  10289832.15545  23303165.094    23303172.1884
  20648088.967   -26099079.218 9 -20315185.12748  20648088.766    20648094.2044
 00  8 22 21 36 30.0000000  0  8 11 30 01 21 20 15 29 25
  21055954.100   -20283010.251 9 -15786220.07747  21055953.616    21055959.8524
  24415141.746    -6371603.549 7  -4775179.71145  24415141.789    24415149.6344
  24060246.156    -8263080.528 7  -6178884.50245  24060245.749    24060258.0684
  23491646.392    13228522.257 8  10372407.37445  23491645.852    23491656.4154
  22388152.001   -18489688.791 8 -14394327.52146  22388151.326    22388158.5664
  24387863.314    21185247.470 7  16534615.71245  24387862.403    24387878.1424
  23317798.653    13229773.592 8  10349753.17945  23317798.464    23317805.4504
  20647279.995   -26103330.367 9 -20318497.68848  20647279.806    20647285.2214
 00  8 22 21 37  0.0000000  0  8 11 30 01 21 20 15 29 25
  21062175.576   -20250316.127 9 -15760744.16947  21062175.109    21062181.3424
  24415389.691    -6370299.870 7  -4774163.86745  24415389.967    24415397.6674
  24045344.553    -8341388.215 8  -6239903.28745  24045344.105    24045356.5174
  23508027.181    13314603.078 8  10439483.19345  23508026.622    23508037.1614
  22372286.791   -18573060.682 8 -14459292.54946  22372286.099    22372293.3294
  24410443.423    21303904.686 7  16627075.46145  24410442.561    24410458.1964
  23332439.136    13306709.911 8  10409703.50245  23332439.028    23332445.9454
  20646570.934   -26107056.494 9 -20321401.13748  20646570.736    20646576.1444
 00  8 22 21 37 30.0000000  0  8 11 30 01 21 20 15 29 25
  21068501.598   -20217072.861 9 -15734840.36147  21068501.130    21068507.3634
  24415738.819    -6368464.806 7  -4772733.91045  24415739.146    24415746.7144
  24030468.537    -8419561.868 8  -6300817.66645  24030467.964    24030480.2034
  23524454.499    13400928.607 8  10506749.69245  23524453.929    23524464.4644
  22356448.550   -18656290.792 8 -14524147.09646  22356447.873    22356455.0994
  24433024.743    21422568.501 7  16719540.45445  24433023.759    24433039.2084
  23347086.753    13383683.599 8  10469682.94745  23347086.628    23347093.6644
  20645961.721   -26110257.907 9 -20323895.72048  20645961.518    20645966.9284
 00  8 22 21 38  0.0000000  0  8 11 30 01 21 20 15 29 25
  21074931.754   -20183282.396 9 -15708510.16547  21074931.288    21074937.5374
  24416189.288    -6366098.408 7  -4770889.92945  24416189.294    24416196.9094
  24015617.995    -8497601.809 8  -6361627.82945  24015617.465    24015629.6874
  23540928.027    13487496.912 8  10574205.35945  23540927.495    23540938.0664
  22340637.554   -18739377.683 8 -14588890.05846  22340636.849    22340644.0534
  24455606.679    21541235.812 7  16812008.14845  24455605.826    24455620.8844
  23361741.275    13460693.456 8  10529690.60945  23361741.123    23361748.1214
  20645452.178   -26112935.525 9 -20325982.15548  20645451.981    20645457.3764
 00  8 22 21 38 30.0000000  0  8 11 30 01 21 20 15 29 25
  21081465.829   -20148945.784 9 -15681754.39847  21081465.365    21081471.6234
  24416740.592    -6363199.537 7  -4768631.03345  24416740.982    24416748.4374
  24000792.986    -8575507.364 8  -6422333.30045  24000792.438    24000804.5684
  23557447.751    13574307.993 8  10641850.21645  23557447.128    23557457.8684
  22324854.187   -18822319.378 8 -14653519.86646  22324853.516    22324860.7234
  24478188.767    21659904.389 7  16904476.71945  24478188.091    24478203.6794
  23376402.731    13537739.718 8  10589726.62045  23376402.573    23376409.5374
  20645042.359   -26115089.071 9 -20327660.22048  20645042.135    20645047.5434
 00  8 22 21 39  0.0000000  0  8 11 30 01 21 20 15 29 25
  21088103.541   -20114064.466 9 -15654574.18247  21088103.070    21088109.3444
  24417393.490    -6359767.855 7  -4765956.98045  24417393.790    24417401.2034
  23985993.364    -8653278.908 8  -6482934.33145  23985992.873    23986005.0384
  23574013.412    13661360.605 8  10709683.26145  23574012.871    23574023.5874
  22309098.748   -18905114.298 8 -14718035.30846  22309098.063    22309105.2504
  24500770.700    21778571.630 8  16996944.33145  24500770.139    24500785.6684
  23391070.950    13614821.376 8  10649790.20245  23391070.739    23391077.8344
  20644732.113   -26116719.261 9 -20328930.47348  20644731.909    20644737.3174
 00  8 22 21 39 30.0000000  0  8 11 30 01 21 20 15 29 25
  21094844.694   -20078639.611 9 -15626970.43347  21094844.233    21094850.5234
  24418148.028    -6355802.728 7  -4762867.23145  24418148.288    24418155.7304
  23971219.368    -8730915.770 8  -6543430.41545  23971218.921    23971231.0224
  23590625.025    13748654.688 7  10777704.46145  23590624.481    23590635.3384
  22293371.658   -18987760.410 8 -14782434.79546  22293370.961    22293378.1224
  24523351.893    21897235.073 7  17089408.97145  24523351.247    24523366.8924
  23405745.677    13691937.992 8  10709881.03845  23405745.530    23405752.6374
  20644521.467   -26117826.048 9 -20329792.87848  20644521.255    20644526.6654
 00  8 22 21 40  0.0000000  0  8 11 30 01 21 20 15 29 25
  21101688.987   -20042672.659 9 -15598944.27547  21101688.525    21101694.8434
  24419004.031    -6351303.895 7  -4759361.62245  24419004.316    24419011.9594
  23956471.059    -8808417.841 8  -6603821.47645  23956470.661    23956482.6164
  23607282.408    13836189.089 7  10845912.93945  23607281.869    23607292.6844
  22277673.211   -19070255.865 8 -14846716.88446  22277672.498    22277679.6664
  24545931.804    22015892.229 7  17181868.76245  24545931.134    24545946.6144
  23420427.028    13769089.067 8  10769998.70745  23420426.866    23420433.9954
  20644410.295   -26118410.246 9 -20330248.08048  20644410.082    20644415.4824
 00  8 22 21 40 30.0000000  0  7 11 30 01 21 20 29 25
  21108636.451   -20006163.495 9 -15570495.60247  21108636.015    21108642.3684
  24419962.093    -6346268.768 7  -4755438.13245  24419962.652    24419969.9714
  23941748.771    -8885783.288 8  -6664106.07245  23941748.392    23941760.2534
  23623985.634    13923964.590 7  10914309.27145  23623985.115    23623995.9474
  22262004.137   -19152597.111 8 -14910878.81446  22262003.416    22262010.6074
  23435115.158    13846275.820 8  10830144.16945  23435115.068    23435122.3234
  20644398.807   -26118470.508 9 -20330295.01248  20644398.600    20644403.9954
 00  8 22 21 41  0.0000000  0  7 11 30 01 21 20 29 25
  21115686.570   -19969115.099 9 -15541626.75847  21115686.115    21115692.4924
  24421022.175    -6340698.885 7  -4751097.93645  24421022.587    24421029.8084
  23927052.191    -8963013.354 8  -6724285.17845  23927051.767    23927063.5954
  23640734.329    14011978.917 7  10982891.69045  23640733.770    23640744.6724
  22246364.399   -19234784.093 8 -14974920.54446  22246363.683    22246370.8734
  23449809.739    13923495.990 7  10890315.68345  23449809.535    23449816.8534
  20644486.592   -26118009.088 9 -20329935.45048  20644486.380    20644491.7764
 00  8 22 21 41 30.0000000  0  7 11 30 01 21 20 29 25
  21122838.729   -19931530.275 9 -15512339.91247  21122838.263    21122844.6654
  24422183.804    -6334594.535 7  -4746341.28145  24422184.135    24422191.4374
  23912381.240    -9040109.150 8  -6784359.66045  23912380.754    23912392.5764
  23657528.033    14100230.065 7  11051658.65045  23657527.554    23657538.4174
  22230754.141   -19316816.058 8 -15038841.47346  22230753.420    22230760.6314
  23464510.326    14000747.937 7  10950511.95245  23464510.148    23464517.4014
  20644673.437   -26117027.202 9 -20329170.32348  20644673.220    20644678.6254
 00  8 22 21 42  0.0000000  0  7 11 30 01 21 20 29 25
  21130092.742   -19893410.245 9 -15482636.02647  21130092.291    21130098.7084
  24423447.190    -6327955.200 7  -4741167.76545  24423447.519    24423454.9964
  23897735.982    -9117070.308 8  -6844329.23045  23897735.473    23897747.1224
  23674366.708    14188717.512 7  11120609.73545  23674366.227    23674377.1374
  22215173.737   -19398690.942 8 -15102640.00346  22215173.076    22215180.2744
  23479216.972    14078031.563 8  11010732.90345  23479216.836    23479224.0554
  20644959.154   -26115525.495 9 -20328000.13948  20644958.952    20644964.3534
 00  8 22 21 42 30.0000000  0  7 11 30 01 21 20 29 25
  21137448.333   -19854756.411 9 -15452516.18947  21137447.879    21137454.3124
  24424812.501    -6320780.647 7  -4735577.18645  24424812.674    24424820.2594
  23883116.319    -9193896.456 8  -6904193.61145  23883115.763    23883127.4444
  23691250.290    14277440.722 7  11189744.52345  23691249.689    23691260.7514
  22199623.668   -19480406.707 8 -15166314.55046  22199623.001    22199630.2024
  23493929.546    14155346.480 8  11070978.24545  23493929.451    23493936.7154
  20645343.742   -26113504.387 9 -20326425.23148  20645343.546    20645348.9454
 00  8 22 21 43  0.0000000  0  7 11 30 01 21 20 29 25
  21144905.271   -19815570.028 9 -15421981.38247  21144904.837    21144911.2644
  24426279.899    -6313070.099 7  -4729568.96945  24426279.948    24426287.3704
  23868522.400    -9270587.268 8  -6963952.52945  23868521.826    23868533.3654
  23708178.509    14366398.482 7  11259062.08645  23708177.960    23708188.9764
  22184104.288   -19561961.400 8 -15229863.58646  22184103.605    22184110.7864
  23508648.070    14232692.230 8  11131247.60445  23508647.952    23508655.1664
  20645827.207   -26110963.683 9 -20324445.44448  20645827.001    20645832.3984
 00  8 22 21 43 30.0000000  0  7 11 30 01 21 20 29 25
  21152463.319   -19775852.299 9 -15391032.53847  21152462.895    21152469.3414
  24427849.292    -6304822.690 7  -4723142.40745  24427849.352    24427856.8864
  23853954.449    -9347141.939 8  -7023605.37045  23853953.911    23853965.3654
  23725151.287    14455590.508 7  11328562.17745  23725150.760    23725161.8624
  22168616.003   -19643352.599 8 -15293285.22146  22168615.287    22168622.4574
  23523372.390    14310068.848 8  11191541.02645  23523372.248    23523379.4844
  20646409.441   -26107903.867 9 -20322061.15348  20646409.228    20646414.6364
 00  8 22 21 44  0.0000000  0  7 11 30 01 21 20 29 25
  21160122.150   -19735605.087 9 -15359671.10747  21160121.712    21160128.1514
  24429520.882    -6296038.558 7  -4716297.62645  24429520.945    24429528.6084
  23839412.346    -9423560.761 8  -7083152.35245  23839411.779    23839423.1504
  23742168.492    14545015.867 7  11398244.08745  23742167.899    23742179.1774
  22153159.139   -19724578.808 8 -15356578.29046  22153158.407    22153165.5534
  23538102.424    14387475.518 8  11251857.84745  23538102.300    23538109.6164
  20647090.204   -26104326.499 9 -20319273.58048  20647089.997    20647095.3974
 00  8 22 21 44 30.0000000  0  7 11 30 01 21 20 29 25
  21167881.422   -19694830.027 9 -15327898.36747  21167880.981    21167887.4134
  24431294.555    -6286717.403 7  -4709034.37845  24431294.597    24431302.3944
  23824896.041    -9499843.693 8  -7142593.45645  23824895.498    23824906.7774
  23759229.974    14634673.739 7  11468107.16945  23759229.388    23759240.5574
  22137733.982   -19805638.284 8 -15419741.43746  22137733.286    22137740.3544
  23552838.153    14464911.901 8  11312197.85045  23552838.010    23552845.3434
  20647869.415   -26100231.716 9 -20316082.82248  20647869.208    20647874.5694
 00  8 22 21 45  0.0000000  0  7 11 30 01 21 20 29 25
  21175740.747   -19653529.108 9 -15295715.87447  21175740.300    21175746.7154
  24433170.551    -6276859.276 7  -4701352.71345  24433170.648    24433178.4284
  23810405.623    -9575990.768 8  -7201928.69245  23810405.150    23810416.4254
  23776335.405    14724562.511 7  11538150.18245  23776334.846    23776346.1194
  22122340.841   -19886529.270 8 -15482773.29846  22122340.193    22122347.2434
  23567579.375    14542377.147 8  11372560.33045  23567579.224    23567586.4944
  20648746.892   -26095620.455 9 -20312489.61748  20648746.680    20648752.0404
 00  8 22 21 45 30.0000000  0  7 11 30 01 21 20 29 25
  21183699.935   -19611703.569 9 -15263124.58447  21183699.470    21183705.8864
  24435148.800    -6266463.581 7  -4693252.16345  24435148.918    24435156.7474
  23795941.166    -9652001.525 8  -7261157.72445  23795940.684    23795952.0114
  23793484.667    14814681.739 7  11608372.77345  23793484.043    23793495.4614
  22106980.198   -19967249.692 8 -15545672.25046  22106979.557    22106986.5964
  23582325.963    14619870.829 8  11432944.94845  23582325.816    23582333.0734
  20649722.618   -26090492.856 9 -20308494.07348  20649722.415    20649727.7664
 00  8 22 21 46  0.0000000  0  7 11 30 01 21 20 29 25
  21191758.593   -19569355.245 9 -15230125.93347  21191758.151    21191764.5274
  24437229.476    -6255529.837 7  -4684732.36845  24437229.448    24437237.3084
  23781502.700    -9727875.807 8  -7320280.38845  23781502.269    23781513.4914
  23810677.602    14905030.670 7  11678774.35445  23810676.990    23810688.3314
  22091652.436   -20047797.375 8 -15608436.60346  22091651.788    22091658.8194
  23597077.962    14697392.914 8  11493351.72845  23597077.862    23597084.9924
  20650796.520   -26084849.403 9 -20304096.56948  20650796.311    20650801.6634
 00  8 22 21 46 30.0000000  0  7 11 30 01 21 20 29 25
  21199916.360   -19526485.867 9 -15196721.26447  21199915.934    21199922.3084
  24439412.551    -6244058.109 7  -4675793.35045  24439412.516    24439420.2224
  23767090.231    -9803613.440 8  -7379296.58945  23767089.766    23767100.9454
  23827914.046    14995608.162 7  11749354.02345  23827913.559    23827924.8494
  22076357.876   -20128170.747 8 -15671065.12546  22076357.196    22076364.1894
  23611835.237    14774942.680 8  11553780.03745  23611835.077    23611842.3044
  20651968.401   -26078691.128 9 -20299297.90548  20651968.210    20651973.5274
 00  8 22 21 47  0.0000000  0  7 11 30 01 21 20 29 25
  21208172.970   -19483097.223 9 -15162911.97947  21208172.538    21208178.9374
  24441697.923    -6232048.344 7  -4666435.08945  24441697.824    24441705.4754
  23752703.798    -9879214.303 8  -7438206.20045  23752703.276    23752714.5174
  23845193.880    15086413.133 7  11820110.94145  23845193.336    23845204.6624
  22061096.792   -20208367.897 8 -15733556.33346  22061096.111    22061103.0774
  23626597.636    14852519.593 8  11614229.54345  23626597.477    23626604.7744
  20653238.064   -26072018.947 9 -20294098.79448  20653237.861    20653243.1884
 00  8 22 21 47 30.0000000  0  7 11 30 01 21 20 29 25
  21216528.078   -19439190.964 9 -15128699.35447  21216527.634    21216534.0474
  24444085.737    -6219500.271 7  -4656657.36645  24444085.692    24444093.4474
  23738343.363    -9954678.182 8  -7497009.07545  23738342.878    23738354.1054
  23862516.889    15177445.341 7  11891044.92245  23862516.343    23862527.7434
  22045869.657   -20288386.903 8 -15795908.72946  22045868.982    22045875.9274
  23641365.114    14930123.311 8  11674699.90945  23641365.054    23641372.2374
  20654605.440   -26064833.369 9 -20288499.63548  20654605.234    20654610.5664
 00  8 22 21 48  0.0000000  0  7 11 30 01 21 20 29 25
  21224981.405   -19394768.363 9 -15094084.38847  21224980.971    21224987.4154
  24446575.909    -6206413.657 7  -4646460.01645  24446576.008    24446583.6674
  23724009.029   -10030004.753 8  -7555704.94845  23724008.581    23724019.7534
  23879882.727    15268702.975 7  11962154.57645  23879882.181    23879893.6994
  22030676.784   -20368225.592 8 -15858120.61346  22030676.080    22030683.0214
  23656137.728    15007753.668 7  11735191.04745  23656137.517    23656144.9424
  20656070.363   -26057134.928 9 -20282500.84148  20656070.170    20656075.5074
 00  8 22 21 48 30.0000000  0  7 11 30 01 21 20 29 25
  21233532.555   -19349831.885 9 -15059069.00147  21233532.111    21233538.6164
  24449168.591    -6192788.873 7  -4635843.29745  24449168.742    24449176.2844
  23709700.789   -10105194.304 8  -7614294.05245  23709700.246    23709711.4614
  23897291.369    15360185.183 7  12033439.20545  23897290.800    23897302.5284
  22015518.525   -20447882.356 8 -15920190.74546  22015517.804    22015524.7544
  23670915.261    15085409.891 7  11795702.35245  23670915.116    23670922.3484
  20657632.694   -26048924.771 9 -20276103.31048  20657632.509    20657637.8394
 00  8 22 21 49  0.0000000  0  7 11 30 01 21 20 29 25
  21242181.189   -19304383.073 9 -15023654.39547  21242180.744    21242187.2904
  24451863.842    -6178625.606 7  -4624806.98645  24451864.106    24451871.5204
  23695418.662   -10180246.558 8  -7672776.17145  23695418.114    23695429.3524
  23914742.550    15451891.069 7  12104898.13245  23914742.008    23914753.7344
  22000395.325   -20527355.041 8 -15982117.43646  22000394.614    22000401.5564
  23685697.606    15163091.498 7  11856233.41145  23685697.494    23685704.7614
  20659292.298   -26040203.492 9 -20269307.50348  20659292.100    20659297.4414
 00  8 22 21 49 30.0000000  0  7 11 30 01 21 20 29 25
  21250926.982   -19258423.812 9 -14987842.03847  21250926.560    21250933.1104
  24454661.596    -6163923.681 7  -4613350.94345  24454661.790    24454669.3044
  23681162.721   -10255161.419 8  -7731151.24245  23681162.133    23681173.4194
  23932236.138    15543819.590 7  12176530.53545  23932235.598    23932247.2514
  21985307.480   -20606641.834 8 -16043899.28047  21985306.769    21985313.6914
  23700484.743    15240798.326 7  11916784.13445  23700484.605    23700491.8444
  20661049.022   -26030971.694 9 -20262113.88548  20661048.814    20661054.1574
